[[{"header":{"parameterUnit":"m.s-1","parameterCategory":1,"la1":31.0,"la2":29.5877,"lo1":-88.7671,"lo2":-86.6584,"dy":0.0162,"dx":0.0185,"nx":115,"ny":88,"refTime":"2024-06-15T00:00:00:Z","depth":0,"parameterNumber":2,"parameterNumberName":"U-component_of_WINDS"},"data":[0.0,0.0,0.0,0.0,0.0,0.0,0.0,0.0,0.0,0.0,0.0,0.0,0.0,0.0,0.0,0.0,0.0,0.0,0.0,0.0,0.0,0.0,0.0,0.0,0.0,0.0,0.0,0.0,0.0,0.0,0.0,0.0,0.0,0.0,0.0,0.0,0.0,0.0,0.0,0.0,0.0,0.0,0.0,0.0,0.0,0.0,0.0,0.0,0.0,0.0,0.0,0.0,0.0,0.0,0.0,0.0,0.0,0.0,0.0,0.0,0.0,0.0,0.0,0.0,0.0,0.0,0.0,0.0,0.0,0.0,0.0,0.0,0.0,0.0,0.0,0.0,0.0,0.0,0.0,0.0,0.0,0.0,0.0,0.0,0.0,0.0,0.0,0.0,0.0,0.0,0.0,0.0,0.0,0.0,0.0,0.0,0.0,0.0,0.0,0.0,0.0,0.0,0.0,0.0,0.0,0.0,0.0,0.0,0.0,0.0,0.0,0.0,0.0,0.0,0.0,0.0,0.0,0.0,0.0,0.0,0.0,0.0,0.0,0.0,0.0,0.0,0.0,0.0,0.0,0.0,0.0,0.0,0.0,0.0,0.0,0.0,0.0,0.0,0.0,0.0,0.0,0.0,0.0,0.0,0.0,0.0,0.0,0.0,0.0,0.0,0.0,0.0,0.0,0.0,0.0,0.0,0.0,0.0,0.0,0.0,0.0,0.0,0.0,0.0,0.0,0.0,0.0,0.0,0.0,0.0,0.0,0.0,0.0,0.0,0.0,0.0,0.0,0.0,0.0,0.0,0.0,0.0,0.0,0.0,0.0,0.0,0.0,0.0,0.0,0.0,0.0,0.0,0.0,0.0,0.0,0.0,0.0,0.0,0.0,0.0,0.0,0.0,0.0,0.0,0.0,0.0,0.0,0.0,0.0,0.0,0.0,0.0,0.0,0.0,0.0,0.0,0.0,0.0,0.0,0.0,0.0,0.0,0.0,0.0,0.0,0.0,0.0,0.0,0.0,0.0,0.0,0.0,0.0,0.0,0.0,0.0,0.0,0.0,0.0,0.0,0.0,0.0,0.0,0.0,0.0,0.0,0.0,0.0,0.0,0.0,0.0,0.0,0.0,0.0,0.0,0.0,0.0,0.0,0.0,0.0,0.0,0.0,0.0,0.0,0.0,0.0,0.0,0.0,0.0,0.0,0.0,0.0,0.0,0.0,0.0,0.0,0.0,0.0,0.0,0.0,0.0,0.0,0.0,0.0,0.0,0.0,0.0,0.0,0.0,0.0,0.0,0.0,0.0,0.0,0.0,0.0,0.0,0.0,0.0,0.0,0.0,0.0,0.0,0.0,0.0,0.0,0.0,0.0,0.0,0.0,0.0,0.0,0.0,0.0,0.0,0.0,0.0,0.0,0.0,0.0,0.0,0.0,0.0,0.0,0.0,0.0,0.0,0.0,0.0,0.0,0.0,0.0,0.0,0.0,0.0,0.0,0.0,0.0,0.0,0.0,0.0,0.0,0.0,0.0,0.0,0.0,0.0,0.0,0.0,0.0,0.0,0.0,0.0,0.0,0.0,0.0,0.0,0.0,0.0,0.0,0.0,0.0,0.0,0.0,0.0,0.0,0.0,0.0,0.0,0.0,0.0,0.0,0.0,0.0,0.0,0.0,0.0,0.0,0.0,0.0,0.0,0.0,0.0,0.0,0.0,0.0,0.0,0.0,0.0,0.0,0.0,0.0,0.0,0.0,0.0,0.0,0.0,0.0,0.0,0.0,0.0,0.0,0.0,0.0,0.0,0.0,0.0,0.0,0.0,0.0,0.0,0.0,0.0,0.0,0.0,0.0,0.0,0.0,0.0,0.0,0.0,0.0,0.0,0.0,0.0,0.0,0.0,0.0,0.0,0.0,0.0,0.0,0.0,0.0,0.0,0.0,0.0,0.0,0.0,0.0,0.0,0.0,0.0,0.0,0.0,0.0,0.0,0.0,0.0,0.0,0.0,0.0,0.0,0.0,0.0,0.0,0.0,0.0,0.0,0.0,0.0,0.0,0.0,0.0,0.0,0.0,0.0,0.0,0.0,0.0,0.0,0.0,0.0,0.0,0.0,0.0,0.0,0.0,0.0,0.0,0.0,0.0,0.0,0.0,0.0,0.0,0.0,0.0,0.0,0.0,0.0,0.0,0.0,0.0,0.0,0.0,0.0,0.0,0.0,0.0,0.0,0.0,0.0,0.0,0.0,0.0,0.0,0.0,0.0,0.0,0.0,0.0,0.0,0.0,0.0,0.0,0.0,0.0,0.0,0.0,0.0,0.0,0.0,0.0,0.0,0.0,0.0,0.0,0.0,0.0,0.0,0.0,0.0,0.0,0.0,0.0,0.0,0.0,0.0,0.0,0.0,0.0,0.0,0.0,0.0,0.0,0.0,0.0,0.0,0.0,0.0,0.0,0.0,0.0,0.0,0.0,0.0,0.0,0.0,0.0,0.0,0.0,0.0,0.0,0.0,0.0,0.0,0.0,0.0,0.0,0.0,0.0,0.0,0.0,0.0,0.0,0.0,0.0,0.0,0.0,0.0,0.0,0.0,0.0,0.0,0.0,0.0,0.0,0.0,0.0,0.0,0.0,0.0,0.0,0.0,0.0,0.0,0.0,0.0,0.0,0.0,0.0,0.0,0.0,0.0,0.0,0.0,0.0,0.0,0.0,0.0,0.0,0.0,0.0,0.0,0.0,0.0,0.0,0.0,0.0,0.0,0.0,0.0,0.0,0.0,0.0,0.0,0.0,0.0,0.0,0.0,0.0,0.0,0.0,0.0,0.0,0.0,0.0,0.0,0.0,0.0,0.0,0.0,0.0,0.0,0.0,0.0,0.0,0.0,0.0,0.0,0.0,0.0,0.0,0.0,0.0,0.0,0.0,0.0,0.0,0.0,0.0,0.0,0.0,0.0,0.0,0.0,0.0,0.0,0.0,0.0,0.0,0.0,0.0,0.0,0.0,0.0,0.0,0.0,0.0,0.0,0.0,0.0,0.0,0.0,0.0,0.0,0.0,0.0,0.0,0.0,0.0,0.0,0.0,0.0,0.0,0.0,0.0,0.0,0.0,0.0,0.0,0.0,0.0,0.0,0.0,0.0,0.0,0.0,0.0,0.0,0.0,0.0,0.0,0.0,0.0,0.0,0.0,0.0,0.0,0.0,0.0,0.0,0.0,0.0,0.0,0.0,0.0,0.0,0.0,0.0,0.0,0.0,0.0,0.0,0.0,0.0,0.0,0.0,0.0,0.0,0.0,0.0,0.0,0.0,0.0,0.0,0.0,0.0,0.0,0.0,0.0,0.0,0.0,0.0,0.0,0.0,0.0,0.0,0.0,0.0,0.0,0.0,0.0,0.0,0.0,0.0,0.0,0.0,0.0,0.0,0.0,0.0,0.0,0.0,0.0,0.0,0.0,0.0,0.0,0.0,0.0,0.0,0.0,0.0,0.0,0.0,0.0,0.0,0.0,0.0,0.0,0.0,0.0,0.0,0.0,0.0,0.0,0.0,0.0,0.0,0.0,0.0,0.0,0.0,0.0,0.0,0.0,0.0,0.0,0.0,0.0,0.0,0.0,0.0,0.0,0.0,0.0,0.0,0.0,0.0,0.0,0.0,0.0,0.0,0.0,0.0,0.0,0.0,0.0,0.0,0.0,0.0,0.0,0.0,0.0,0.0,0.0,0.0,0.0,0.0,0.0,0.0,0.0,0.0,0.0,0.0,0.0,0.0,0.0,0.0,0.0,0.0,0.0,0.0,0.0,0.0,0.0,0.0,0.0,0.0,0.0,0.0,0.0,0.0,0.0,0.0,0.0,0.0,0.0,0.0,0.0,0.0,0.0,0.0,0.0,0.0,0.0,0.0,0.0,0.0,0.0,0.0,0.0,0.0,0.0,0.0,0.0,0.0,0.0,0.0,0.0,0.0,0.0,0.0,0.0,0.0,0.0,0.0,0.0,0.0,0.0,0.0,0.0,0.0,0.0,0.0,0.0,0.0,0.0,0.0,0.0,0.0,0.0,0.0,0.0,0.0,0.0,0.0,0.0,0.0,0.0,0.0,0.0,0.0,0.0,0.0,0.0,0.0,0.0,0.0,0.0,0.0,0.0,0.0,0.0,0.0,0.0,0.0,0.0,0.0,0.0,0.0,0.0,0.0,0.0,0.0,0.0,0.0,0.0,0.0,0.0,0.0,0.0,0.0,0.0,0.0,0.0,0.0,0.0,0.0,0.0,0.0,0.0,0.0,0.0,-0.8151,0.0,0.0,0.0,0.0,0.0,0.0,0.0,0.0,0.0,0.0,0.0,0.0,0.0,0.0,0.0,0.0,0.0,0.0,0.0,0.0,0.0,0.0,0.0,0.0,0.0,0.0,0.0,0.0,0.0,0.0,0.0,0.0,0.0,0.0,0.0,0.0,0.0,0.0,0.0,0.0,0.0,0.0,0.0,0.0,0.0,0.0,0.0,0.0,0.0,0.0,0.0,0.0,0.0,0.0,0.0,0.0,0.0,0.0,0.0,0.0,0.0,0.0,0.0,0.0,0.0,0.0,0.0,0.0,0.0,0.0,0.0,0.0,0.0,0.0,0.0,0.0,0.0,0.0,0.0,0.0,0.0,0.0,0.0,0.0,0.0,0.0,0.0,0.0,0.0,0.0,0.0,0.0,0.0,0.0,0.0,0.0,0.0,0.0,0.0,0.0,0.0,0.0,0.0,0.0,0.0,0.0,0.0,0.0,0.0,0.0,-0.8732,-0.8738,-0.8412,-0.8191,-0.8118,0.0,0.0,0.0,0.0,0.0,0.0,0.0,0.0,0.0,0.0,0.0,0.0,0.0,0.0,0.0,0.0,0.0,0.0,0.0,0.0,0.0,0.0,0.0,0.0,0.0,0.0,0.0,0.0,0.0,0.0,0.0,0.0,0.0,0.0,0.0,0.0,0.0,0.0,0.0,0.0,0.0,0.0,0.0,0.0,0.0,0.0,0.0,0.0,0.0,0.0,0.0,0.0,0.0,0.0,0.0,0.0,0.0,0.0,0.0,0.0,0.0,0.0,0.0,0.0,0.0,0.0,0.0,0.0,0.0,0.0,0.0,0.0,0.0,0.0,0.0,0.0,0.0,0.0,0.0,0.0,0.0,0.0,0.0,0.0,0.0,0.0,0.0,0.0,0.0,0.0,0.0,0.0,0.0,0.0,0.0,0.0,0.0,0.0,0.0,0.0,0.0,0.0,0.0,0.0,0.0,0.0,0.0,0.0,0.0,0.0,0.0,0.0,-0.8726,-0.854,-0.8505,0.0,0.0,0.0,0.0,0.0,0.0,0.0,0.0,0.0,0.0,0.0,0.0,0.0,0.0,0.0,0.0,0.0,0.0,0.0,0.0,0.0,0.0,0.0,0.0,0.0,0.0,0.0,0.0,0.0,0.0,0.0,0.0,0.0,0.0,0.0,0.0,0.0,0.0,0.0,0.0,0.0,0.0,0.0,0.0,0.0,0.0,0.0,0.0,0.0,0.0,0.0,0.0,0.0,0.0,0.0,0.0,0.0,0.0,0.0,0.0,0.0,0.0,0.0,0.0,0.0,0.0,0.0,0.0,0.0,0.0,0.0,0.0,0.0,0.0,0.0,0.0,0.0,0.0,0.0,0.0,0.0,0.0,0.0,0.0,0.0,0.0,0.0,0.0,0.0,0.0,0.0,0.0,0.0,0.0,0.0,0.0,0.0,0.0,0.0,0.0,0.0,0.0,0.0,0.0,0.0,0.0,0.0,0.0,0.0,0.0,-0.8896,-0.994,-0.9937,0.0,-0.9754,0.0,0.0,0.0,0.0,0.0,0.0,0.0,0.0,0.0,0.0,0.0,0.0,0.0,0.0,0.0,0.0,0.0,0.0,0.0,0.0,0.0,0.0,0.0,0.0,0.0,0.0,0.0,0.0,0.0,0.0,0.0,0.0,0.0,0.0,0.0,0.0,0.0,0.0,0.0,0.0,0.0,0.0,0.0,0.0,0.0,0.0,0.0,0.0,0.0,0.0,0.0,0.0,0.0,0.0,0.0,0.0,0.0,0.0,0.0,0.0,0.0,0.0,0.0,0.0,0.0,0.0,0.0,0.0,0.0,0.0,0.0,0.0,0.0,0.0,0.0,0.0,0.0,0.0,0.0,0.0,0.0,0.0,0.0,0.0,0.0,0.0,0.0,0.0,0.0,0.0,0.0,0.0,0.0,0.0,0.0,0.0,0.0,0.0,0.0,0.0,0.0,0.0,0.0,0.0,0.0,0.0,0.0,0.0,0.0,0.0,-0.9606,-1.0266,-1.0084,-0.9956,0.0,0.0,0.0,0.0,0.0,0.0,0.0,0.0,0.0,0.0,0.0,0.0,0.0,0.0,0.0,0.0,0.0,0.0,0.0,0.0,0.0,0.0,0.0,0.0,0.0,0.0,0.0,0.0,0.0,0.0,0.0,0.0,0.0,0.0,0.0,0.0,0.0,0.0,0.0,0.0,0.0,0.0,0.0,0.0,0.0,0.0,0.0,0.0,0.0,0.0,0.0,0.0,0.0,0.0,0.0,0.0,0.0,0.0,0.0,0.0,0.0,0.0,0.0,0.0,0.0,0.0,0.0,0.0,0.0,0.0,0.0,0.0,0.0,0.0,0.0,0.0,0.0,0.0,0.0,0.0,0.0,0.0,0.0,0.0,0.0,0.0,0.0,0.0,0.0,0.0,0.0,0.0,0.0,0.0,0.0,0.0,0.0,0.0,0.0,0.0,0.0,0.0,0.0,0.0,0.0,0.0,0.0,0.0,0.0,0.0,-0.9885,0.0,-1.0734,-1.0549,-1.0273,-0.9905,0.0,0.0,0.0,0.0,0.0,0.0,0.0,0.0,0.0,0.0,0.0,0.0,0.0,0.0,0.0,0.0,0.0,0.0,0.0,0.0,0.0,0.0,0.0,0.0,0.0,0.0,0.0,0.0,0.0,0.0,0.0,0.0,0.0,0.0,0.0,0.0,0.0,0.0,0.0,0.0,0.0,0.0,0.0,0.0,0.0,0.0,0.0,0.0,0.0,0.0,0.0,0.0,0.0,0.0,0.0,0.0,0.0,0.0,0.0,0.0,0.0,0.0,0.0,0.0,0.0,0.0,0.0,0.0,0.0,0.0,0.0,0.0,0.0,0.0,0.0,0.0,0.0,0.0,0.0,0.0,0.0,0.0,0.0,0.0,0.0,0.0,0.0,0.0,0.0,0.0,0.0,0.0,0.0,0.0,0.0,0.0,0.0,0.0,0.0,0.0,0.0,0.0,0.0,0.0,0.0,0.0,0.0,0.0,0.0,-1.0856,-1.0483,-1.1698,-1.1721,-1.1147,0.0,0.0,0.0,0.0,0.0,0.0,0.0,0.0,0.0,0.0,0.0,0.0,0.0,0.0,0.0,0.0,0.0,0.0,0.0,0.0,0.0,0.0,0.0,0.0,0.0,0.0,0.0,0.0,0.0,0.0,0.0,0.0,0.0,0.0,0.0,0.0,0.0,0.0,0.0,0.0,0.0,0.0,0.0,0.0,0.0,0.0,0.0,0.0,0.0,0.0,0.0,0.0,0.0,0.0,0.0,0.0,0.0,0.0,0.0,0.0,0.0,0.0,0.0,0.0,0.0,0.0,0.0,0.0,0.0,0.0,0.0,0.0,0.0,0.0,0.0,0.0,0.0,0.0,0.0,0.0,0.0,0.0,0.0,0.0,0.0,0.0,0.0,0.0,0.0,0.0,0.0,0.0,0.0,0.0,0.0,0.0,0.0,0.0,0.0,0.0,0.0,0.0,0.0,0.0,0.0,0.0,0.0,0.0,0.0,-1.0147,-1.0304,-1.1293,-1.3107,-1.1632,-1.0839,0.0,0.0,0.0,0.0,0.0,0.0,0.0,0.0,0.0,0.0,0.0,0.0,0.0,0.0,0.0,0.0,0.0,0.0,0.0,0.0,0.0,0.0,0.0,0.0,0.0,0.0,0.0,0.0,0.0,0.0,0.0,0.0,0.0,0.0,0.0,0.0,0.0,0.0,0.0,0.0,0.0,0.0,0.0,0.0,0.0,0.0,0.0,0.0,0.0,0.0,0.0,0.0,0.0,0.0,0.0,0.0,0.0,0.0,0.0,0.0,0.0,0.0,0.0,0.0,0.0,0.0,0.0,0.0,0.0,0.0,0.0,0.0,0.0,0.0,0.0,0.0,0.0,0.0,0.0,0.0,0.0,0.0,0.0,0.0,0.0,0.0,0.0,0.0,0.0,0.0,0.0,0.0,0.0,0.0,0.0,0.0,0.0,0.0,0.0,0.0,0.0,0.0,0.0,0.0,0.0,0.0,0.0,0.0,0.0,-0.9958,0.0,-1.2588,0.0,-1.1768,-1.0727,0.0,0.0,0.0,0.0,0.0,0.0,0.0,0.0,0.0,0.0,0.0,0.0,0.0,0.0,0.0,0.0,0.0,0.0,0.0,0.0,0.0,0.0,0.0,0.0,0.0,0.0,0.0,0.0,0.0,0.0,0.0,0.0,0.0,0.0,0.0,0.0,0.0,0.0,0.0,0.0,0.0,0.0,0.0,0.0,0.0,0.0,0.0,0.0,0.0,0.0,0.0,0.0,0.0,0.0,0.0,0.0,0.0,0.0,0.0,0.0,0.0,0.0,0.0,0.0,0.0,0.0,0.0,0.0,0.0,0.0,0.0,0.0,0.0,0.0,0.0,0.0,0.0,0.0,0.0,0.0,0.0,0.0,0.0,0.0,0.0,0.0,0.0,0.0,0.0,0.0,0.0,0.0,0.0,0.0,0.0,0.0,0.0,0.0,0.0,0.0,0.0,0.0,0.0,0.0,0.0,0.0,0.0,0.0,-0.9837,-1.2472,-1.4259,-1.4287,-1.2466,-1.2279,-1.0918,0.0,0.0,0.0,0.0,0.0,0.0,0.0,0.0,0.0,0.0,0.0,0.0,0.0,0.0,0.0,0.0,0.0,0.0,0.0,0.0,0.0,0.0,0.0,0.0,0.0,0.0,0.0,0.0,0.0,0.0,0.0,0.0,0.0,0.0,0.0,0.0,0.0,0.0,0.0,0.0,0.0,0.0,0.0,0.0,0.0,0.0,0.0,0.0,0.0,0.0,0.0,0.0,0.0,0.0,0.0,0.0,0.0,0.0,0.0,0.0,0.0,0.0,0.0,0.0,0.0,0.0,0.0,0.0,0.0,0.0,0.0,0.0,0.0,0.0,0.0,0.0,0.0,0.0,0.0,0.0,0.0,0.0,0.0,0.0,0.0,0.0,0.0,0.0,0.0,0.0,0.0,0.0,0.0,0.0,0.0,0.0,0.0,0.0,0.0,0.0,0.0,0.0,0.0,0.0,0.0,0.0,0.0,0.0,0.0,-1.1906,-1.3979,-1.5151,-1.5163,-1.2569,-1.1342,0.0,0.0,0.0,0.0,0.0,0.0,0.0,0.0,0.0,0.0,0.0,0.0,0.0,0.0,0.0,0.0,0.0,0.0,0.0,0.0,0.0,0.0,0.0,0.0,0.0,0.0,0.0,0.0,0.0,0.0,0.0,0.0,0.0,0.0,0.0,0.0,0.0,0.0,0.0,0.0,0.0,0.0,0.0,0.0,0.0,0.0,0.0,0.0,0.0,0.0,0.0,0.0,0.0,0.0,0.0,0.0,0.0,0.0,0.0,0.0,0.0,0.0,0.0,0.0,0.0,0.0,0.0,0.0,0.0,0.0,0.0,0.0,0.0,0.0,0.0,0.0,0.0,0.0,0.0,0.0,0.0,0.0,0.0,0.0,0.0,0.0,0.0,0.0,0.0,0.0,0.0,0.0,0.0,0.0,0.0,0.0,0.0,0.0,0.0,0.0,0.0,0.0,0.0,0.0,0.0,0.0,0.0,0.0,0.0,-1.402,-1.6079,-1.7068,-1.6727,-1.3903,-1.2362,-1.2291,0.0,0.0,0.0,0.0,0.0,0.0,0.0,0.0,0.0,0.0,0.0,0.0,0.0,0.0,0.0,0.0,0.0,0.0,0.0,0.0,0.0,0.0,0.0,0.0,0.0,0.0,0.0,0.0,0.0,0.0,0.0,0.0,0.0,0.0,0.0,0.0,0.0,0.0,0.0,0.0,0.0,0.0,0.0,0.0,0.0,0.0,0.0,0.0,0.0,0.0,0.0,0.0,0.0,0.0,0.0,0.0,0.0,0.0,0.0,0.0,0.0,0.0,0.0,0.0,0.0,0.0,0.0,0.0,0.0,0.0,0.0,0.0,0.0,0.0,0.0,0.0,0.0,0.0,0.0,0.0,0.0,0.0,0.0,0.0,0.0,0.0,0.0,0.0,0.0,0.0,0.0,0.0,0.0,0.0,0.0,0.0,0.0,0.0,0.0,0.0,0.0,0.0,0.0,0.0,0.0,0.0,0.0,0.0,-1.8032,-2.0071,-1.9873,-1.7319,-1.6001,-1.3931,0.0,0.0,0.0,0.0,0.0,0.0,0.0,0.0,0.0,0.0,0.0,0.0,0.0,0.0,0.0,0.0,0.0,0.0,0.0,0.0,0.0,0.0,0.0,0.0,0.0,0.0,0.0,0.0,0.0,0.0,0.0,0.0,0.0,0.0,0.0,0.0,0.0,0.0,0.0,0.0,0.0,0.0,0.0,0.0,0.0,0.0,0.0,0.0,0.0,0.0,0.0,0.0,0.0,0.0,0.0,0.0,0.0,0.0,0.0,0.0,0.0,0.0,0.0,0.0,0.0,0.0,0.0,0.0,0.0,0.0,0.0,0.0,0.0,0.0,0.0,0.0,0.0,0.0,0.0,0.0,0.0,0.0,0.0,0.0,0.0,0.0,0.0,0.0,0.0,0.0,0.0,0.0,0.0,0.0,0.0,0.0,0.0,0.0,0.0,0.0,0.0,0.0,0.0,0.0,0.0,0.0,0.0,0.0,0.0,-1.9831,-2.1893,-2.2246,-2.0648,-1.7264,-1.5171,0.0,0.0,0.0,0.0,0.0,0.0,0.0,0.0,0.0,0.0,0.0,0.0,0.0,0.0,0.0,0.0,0.0,0.0,0.0,0.0,0.0,0.0,0.0,0.0,0.0,0.0,0.0,0.0,0.0,0.0,0.0,0.0,0.0,0.0,0.0,0.0,0.0,0.0,0.0,0.0,0.0,0.0,0.0,0.0,0.0,0.0,0.0,0.0,0.0,0.0,0.0,0.0,0.0,0.0,0.0,0.0,0.0,0.0,0.0,0.0,0.0,0.0,0.0,0.0,0.0,0.0,0.0,0.0,0.0,0.0,0.0,0.0,0.0,0.0,0.0,0.0,0.0,0.0,0.0,0.0,0.0,0.0,0.0,0.0,0.0,0.0,0.0,0.0,0.0,0.0,0.0,0.0,0.0,0.0,0.0,0.0,0.0,0.0,0.0,0.0,0.0,0.0,0.0,0.0,0.0,0.0,0.0,0.0,-1.9457,-2.1988,-2.3131,-2.3479,-2.3035,-1.9201,-1.6642,0.0,0.0,0.0,0.0,0.0,0.0,0.0,0.0,0.0,0.0,0.0,0.0,0.0,0.0,0.0,0.0,0.0,0.0,0.0,0.0,0.0,0.0,0.0,0.0,0.0,0.0,0.0,0.0,0.0,0.0,0.0,0.0,0.0,0.0,0.0,0.0,0.0,0.0,0.0,0.0,0.0,0.0,0.0,0.0,0.0,0.0,0.0,0.0,0.0,0.0,0.0,0.0,0.0,0.0,0.0,0.0,0.0,0.0,0.0,0.0,0.0,0.0,0.0,0.0,0.0,0.0,0.0,0.0,0.0,0.0,0.0,0.0,0.0,0.0,0.0,0.0,0.0,0.0,0.0,0.0,0.0,0.0,0.0,0.0,0.0,0.0,0.0,0.0,0.0,0.0,0.0,0.0,0.0,0.0,0.0,0.0,0.0,0.0,0.0,0.0,0.0,0.0,0.0,0.0,0.0,0.0,0.0,0.0,-2.0716,-2.4107,-2.3928,-2.3977,-2.4293,-2.1216,-1.8133,0.0,0.0,0.0,0.0,0.0,0.0,0.0,0.0,0.0,0.0,0.0,0.0,0.0,0.0,0.0,0.0,0.0,0.0,0.0,0.0,0.0,0.0,0.0,0.0,0.0,0.0,0.0,0.0,0.0,0.0,0.0,0.0,0.0,0.0,0.0,0.0,0.0,0.0,0.0,0.0,0.0,0.0,0.0,0.0,0.0,0.0,0.0,0.0,0.0,0.0,0.0,0.0,0.0,0.0,0.0,0.0,0.0,0.0,0.0,0.0,0.0,0.0,0.0,0.0,0.0,0.0,0.0,0.0,0.0,0.0,0.0,0.0,0.0,0.0,0.0,0.0,0.0,0.0,0.0,0.0,0.0,0.0,0.0,0.0,0.0,0.0,0.0,0.0,0.0,0.0,0.0,0.0,0.0,0.0,0.0,0.0,0.0,0.0,0.0,0.0,0.0,0.0,0.0,0.0,0.0,0.0,0.0,0.0,-2.179,-2.4115,-2.424,-2.4295,-2.4394,-2.1216,-1.8489,0.0,0.0,0.0,0.0,0.0,0.0,0.0,0.0,0.0,0.0,0.0,0.0,0.0,0.0,0.0,0.0,0.0,0.0,0.0,0.0,0.0,0.0,0.0,0.0,0.0,0.0,0.0,0.0,0.0,0.0,0.0,0.0,0.0,0.0,0.0,0.0,0.0,0.0,0.0,0.0,0.0,0.0,0.0,0.0,0.0,0.0,0.0,0.0,-1.1526,0.0,0.0,0.0,0.0,0.0,0.0,0.0,0.0,0.0,0.0,0.0,0.0,0.0,0.0,0.0,0.0,0.0,0.0,0.0,0.0,0.0,0.0,0.0,0.0,0.0,0.0,0.0,0.0,0.0,0.0,0.0,0.0,0.0,0.0,0.0,0.0,0.0,0.0,0.0,0.0,0.0,0.0,0.0,0.0,0.0,0.0,0.0,0.0,0.0,0.0,0.0,0.0,0.0,0.0,0.0,0.0,0.0,0.0,0.0,-2.3063,-2.495,-2.4622,-2.4514,-2.4616,-2.1793,-1.9072,0.0,0.0,0.0,0.0,0.0,0.0,0.0,0.0,0.0,0.0,0.0,0.0,0.0,0.0,0.0,0.0,0.0,0.0,0.0,0.0,0.0,0.0,0.0,0.0,0.0,0.0,0.0,0.0,0.0,0.0,0.0,0.0,0.0,0.0,0.0,0.0,0.0,0.0,0.0,0.0,0.0,0.0,0.0,0.0,0.0,0.0,0.0,0.0,0.0,0.0,0.0,0.0,0.0,0.0,0.0,0.0,0.0,0.0,0.0,0.0,0.0,0.0,0.0,0.0,0.0,0.0,0.0,0.0,0.0,0.0,0.0,0.0,0.0,0.0,0.0,0.0,0.0,0.0,0.0,0.0,0.0,0.0,0.0,0.0,0.0,0.0,0.0,0.0,0.0,0.0,0.0,0.0,0.0,0.0,0.0,0.0,0.0,0.0,0.0,0.0,0.0,0.0,0.0,0.0,0.0,0.0,0.0,-2.1388,-2.3981,-2.5799,-2.5113,-2.4818,-2.5038,-2.2544,-1.9713,-1.6636,0.0,0.0,0.0,0.0,0.0,0.0,0.0,0.0,0.0,0.0,0.0,0.0,0.0,0.0,0.0,0.0,0.0,0.0,0.0,0.0,0.0,0.0,0.0,0.0,0.0,0.0,0.0,0.0,0.0,0.0,0.0,0.0,0.0,0.0,0.0,0.0,0.0,0.0,-0.9751,-1.2,0.0,0.0,0.0,0.0,0.0,0.0,0.0,0.0,-1.3854,0.0,0.0,0.0,0.0,0.0,0.0,0.0,0.0,0.0,0.0,0.0,0.0,0.0,0.0,0.0,0.0,0.0,0.0,0.0,0.0,0.0,0.0,0.0,0.0,0.0,0.0,0.0,0.0,0.0,0.0,0.0,0.0,0.0,0.0,0.0,0.0,0.0,0.0,0.0,0.0,0.0,0.0,0.0,0.0,0.0,0.0,0.0,0.0,0.0,0.0,0.0,0.0,0.0,0.0,0.0,0.0,-1.9959,-2.1295,-2.3139,-2.5519,-2.5785,-2.5654,-2.5076,-2.304,-2.0114,-1.6367,0.0,0.0,0.0,0.0,0.0,0.0,0.0,0.0,0.0,0.0,0.0,0.0,0.0,0.0,0.0,0.0,0.0,0.0,0.0,0.0,0.0,0.0,0.0,0.0,0.0,0.0,0.0,0.0,0.0,0.0,0.0,0.0,0.0,0.0,0.0,0.0,0.0,0.0,0.0,-1.4408,-1.5723,0.0,0.0,0.0,0.0,0.0,0.0,0.0,0.0,-1.4194,0.0,0.0,0.0,0.0,0.0,0.0,0.0,0.0,0.0,0.0,0.0,0.0,0.0,0.0,0.0,0.0,0.0,0.0,0.0,0.0,0.0,0.0,0.0,0.0,0.0,0.0,0.0,0.0,0.0,0.0,0.0,0.0,0.0,0.0,0.0,0.0,0.0,0.0,0.0,0.0,0.0,0.0,0.0,0.0,0.0,0.0,0.0,0.0,0.0,0.0,0.0,0.0,0.0,0.0,0.0,-1.9263,-2.2054,-2.4055,-2.5201,-2.5863,-2.5757,-2.479,-2.2367,-1.9491,0.0,0.0,0.0,0.0,0.0,0.0,0.0,0.0,0.0,0.0,0.0,0.0,0.0,0.0,0.0,0.0,0.0,0.0,0.0,0.0,0.0,0.0,0.0,0.0,0.0,0.0,0.0,0.0,0.0,0.0,0.0,0.0,0.0,0.0,0.0,0.0,0.0,0.0,0.0,0.0,-1.6245,-1.7475,-1.8119,0.0,0.0,0.0,0.0,0.0,0.0,-1.6993,-1.5903,0.0,0.0,0.0,0.0,0.0,0.0,0.0,0.0,0.0,0.0,0.0,0.0,0.0,0.0,0.0,0.0,0.0,0.0,0.0,0.0,0.0,0.0,0.0,0.0,0.0,0.0,0.0,0.0,0.0,0.0,0.0,0.0,0.0,0.0,0.0,0.0,0.0,0.0,0.0,0.0,0.0,0.0,0.0,0.0,0.0,0.0,0.0,0.0,0.0,0.0,0.0,0.0,0.0,0.0,0.0,-1.8246,-2.2379,-2.4654,-2.4907,-2.5833,-2.5731,-2.4508,-2.2043,-1.9281,0.0,0.0,0.0,0.0,0.0,0.0,0.0,0.0,0.0,0.0,0.0,0.0,0.0,0.0,0.0,0.0,0.0,0.0,0.0,0.0,0.0,0.0,0.0,0.0,0.0,0.0,0.0,0.0,0.0,0.0,0.0,0.0,0.0,0.0,0.0,0.0,0.0,0.0,0.0,0.0,0.0,-1.9371,-1.9935,-1.9586,0.0,0.0,0.0,0.0,-1.9443,-1.8726,0.0,0.0,0.0,0.0,0.0,0.0,0.0,0.0,0.0,0.0,0.0,0.0,0.0,0.0,0.0,0.0,0.0,0.0,0.0,0.0,0.0,0.0,0.0,0.0,0.0,0.0,0.0,0.0,0.0,0.0,0.0,0.0,0.0,0.0,0.0,0.0,0.0,0.0,0.0,0.0,0.0,0.0,0.0,0.0,0.0,0.0,0.0,0.0,0.0,0.0,0.0,0.0,0.0,0.0,0.0,0.0,-1.7839,-2.0989,-2.326,-2.455,-2.5926,-2.5978,-2.4541,-2.3424,-2.0703,0.0,0.0,0.0,0.0,0.0,0.0,0.0,0.0,0.0,0.0,0.0,0.0,0.0,0.0,0.0,0.0,0.0,0.0,0.0,0.0,0.0,0.0,0.0,0.0,0.0,0.0,0.0,0.0,0.0,0.0,0.0,0.0,0.0,0.0,0.0,0.0,0.0,0.0,0.0,0.0,0.0,-2.1684,-2.0575,-2.0843,-2.1207,0.0,0.0,-2.0598,-2.2228,-2.1089,0.0,0.0,0.0,0.0,0.0,0.0,0.0,0.0,0.0,0.0,0.0,0.0,0.0,0.0,0.0,0.0,0.0,0.0,0.0,0.0,0.0,0.0,0.0,0.0,0.0,0.0,0.0,0.0,0.0,0.0,0.0,0.0,0.0,0.0,0.0,0.0,0.0,0.0,0.0,0.0,0.0,0.0,0.0,0.0,0.0,0.0,0.0,0.0,0.0,0.0,0.0,0.0,0.0,0.0,0.0,-1.5558,-1.8425,-2.1803,-2.4052,-2.5101,-2.6166,-2.5997,-2.4525,-2.2915,-2.0285,0.0,0.0,0.0,0.0,0.0,0.0,0.0,0.0,0.0,0.0,0.0,0.0,0.0,0.0,0.0,0.0,0.0,0.0,0.0,0.0,0.0,0.0,0.0,0.0,0.0,0.0,0.0,0.0,0.0,0.0,0.0,0.0,0.0,0.0,0.0,0.0,0.0,0.0,0.0,0.0,0.0,0.0,-2.2502,-2.2456,0.0,0.0,0.0,-2.2603,-2.2942,0.0,0.0,0.0,0.0,0.0,0.0,0.0,0.0,0.0,0.0,0.0,0.0,0.0,0.0,0.0,0.0,0.0,0.0,0.0,0.0,0.0,0.0,0.0,0.0,0.0,0.0,0.0,0.0,0.0,0.0,0.0,0.0,0.0,0.0,0.0,0.0,0.0,0.0,0.0,0.0,0.0,0.0,0.0,0.0,0.0,0.0,0.0,0.0,0.0,0.0,0.0,0.0,0.0,0.0,0.0,0.0,0.0,-1.8894,-2.2595,-2.4863,-2.5576,-2.6302,-2.5997,-2.4541,-2.2667,0.0,0.0,0.0,0.0,0.0,0.0,0.0,0.0,0.0,0.0,0.0,0.0,0.0,0.0,0.0,0.0,0.0,0.0,0.0,0.0,0.0,0.0,0.0,0.0,0.0,0.0,0.0,-0.6541,0.0,0.0,0.0,0.0,0.0,0.0,0.0,0.0,0.0,0.0,0.0,0.0,0.0,0.0,-2.2359,-2.3986,-2.4025,-2.3905,0.0,0.0,-2.43,-2.3694,-2.376,-2.3071,0.0,0.0,0.0,0.0,0.0,0.0,0.0,0.0,0.0,0.0,0.0,0.0,0.0,0.0,0.0,0.0,0.0,0.0,0.0,0.0,0.0,0.0,0.0,0.0,0.0,0.0,0.0,0.0,0.0,0.0,0.0,0.0,0.0,0.0,0.0,0.0,0.0,0.0,0.0,0.0,0.0,0.0,0.0,0.0,0.0,0.0,0.0,0.0,0.0,0.0,0.0,0.0,0.0,0.0,0.0,-1.8927,-2.2595,-2.4863,-2.5592,-2.6319,-2.5981,-2.4541,-2.3555,-2.1023,0.0,0.0,0.0,0.0,0.0,0.0,0.0,0.0,0.0,0.0,0.0,0.0,0.0,0.0,0.0,0.0,0.0,0.0,0.0,0.0,0.0,0.0,0.0,0.0,0.0,0.0,0.0,0.0,0.0,0.0,0.0,0.0,0.0,0.0,0.0,0.0,0.0,0.0,0.0,0.0,0.0,-2.4051,-2.419,-2.5438,-2.6345,0.0,0.0,-2.5283,-2.5246,-2.4639,-2.3449,-2.1264,0.0,0.0,0.0,0.0,0.0,0.0,0.0,0.0,0.0,0.0,0.0,0.0,0.0,0.0,0.0,0.0,0.0,0.0,0.0,0.0,0.0,0.0,0.0,0.0,0.0,0.0,0.0,0.0,0.0,0.0,0.0,0.0,0.0,0.0,0.0,0.0,0.0,0.0,0.0,0.0,0.0,0.0,0.0,0.0,0.0,0.0,0.0,0.0,0.0,0.0,0.0,0.0,0.0,-1.683,-2.0293,-2.3069,-2.5083,-2.6234,-2.6556,-2.6014,-2.4541,-2.3951,-2.1678,0.0,0.0,0.0,0.0,0.0,0.0,0.0,0.0,0.0,0.0,0.0,0.0,0.0,0.0,0.0,0.0,0.0,0.0,0.0,0.0,0.0,0.0,0.0,0.0,0.0,0.0,0.0,0.0,-0.9195,-0.9499,-0.8848,0.0,0.0,0.0,0.0,0.0,0.0,0.0,0.0,0.0,0.0,-2.4381,-2.5509,-2.6209,0.0,0.0,-2.6741,-2.6715,-2.6209,-2.5706,-2.4762,-2.3011,-2.1899,0.0,0.0,0.0,0.0,0.0,0.0,0.0,0.0,0.0,0.0,0.0,0.0,0.0,0.0,0.0,0.0,0.0,0.0,0.0,0.0,0.0,0.0,0.0,0.0,0.0,0.0,0.0,0.0,0.0,0.0,0.0,0.0,0.0,0.0,0.0,0.0,0.0,0.0,0.0,0.0,0.0,0.0,0.0,0.0,0.0,0.0,0.0,0.0,0.0,0.0,0.0,0.0,-1.7306,-2.1156,-2.3374,-2.5202,-2.6657,-2.6708,-2.6116,-2.4881,-2.4246,-2.2305,0.0,0.0,0.0,0.0,0.0,0.0,0.0,0.0,0.0,0.0,0.0,0.0,0.0,0.0,0.0,0.0,0.0,0.0,0.0,0.0,0.0,0.0,0.0,0.0,0.0,0.0,0.0,0.0,-0.9866,-1.006,-0.9514,0.0,0.0,0.0,0.0,0.0,0.0,0.0,0.0,0.0,0.0,-2.5181,-2.6738,-2.7181,-2.7317,-2.7328,-2.7603,-2.7541,-2.6741,-2.6414,-2.568,-2.4059,0.0,0.0,0.0,0.0,0.0,0.0,0.0,0.0,0.0,0.0,0.0,0.0,0.0,0.0,0.0,0.0,0.0,0.0,0.0,0.0,0.0,0.0,0.0,0.0,0.0,0.0,0.0,-0.8201,0.0,0.0,-0.7302,0.0,0.0,0.0,0.0,0.0,0.0,0.0,0.0,0.0,0.0,0.0,0.0,0.0,0.0,0.0,0.0,0.0,0.0,0.0,0.0,0.0,0.0,-1.7794,-2.119,-2.3408,-2.5235,-2.664,-2.6708,-2.6319,-2.5576,-2.4496,-2.2908,-2.0725,0.0,0.0,0.0,0.0,0.0,0.0,0.0,0.0,0.0,0.0,0.0,0.0,0.0,0.0,0.0,0.0,0.0,0.0,0.0,0.0,0.0,0.0,0.0,0.0,0.0,0.0,-1.05,-0.9945,-0.9672,0.0,0.0,0.0,0.0,0.0,0.0,0.0,0.0,0.0,0.0,-2.5032,-2.684,-2.7677,-2.8455,-2.8932,-2.895,-2.8338,-2.7567,-2.6804,-2.6609,-2.5941,0.0,0.0,0.0,0.0,0.0,0.0,0.0,0.0,0.0,0.0,0.0,0.0,0.0,0.0,0.0,0.0,0.0,0.0,0.0,0.0,0.0,0.0,0.0,0.0,0.0,0.0,0.0,-1.2624,-1.2363,0.0,0.0,0.0,0.0,0.0,0.0,0.0,0.0,0.0,0.0,0.0,-2.1664,-2.24,0.0,0.0,0.0,0.0,0.0,0.0,0.0,0.0,0.0,0.0,0.0,0.0,-1.9187,-2.2567,-2.4357,-2.571,-2.6657,-2.6708,-2.6353,-2.5609,-2.4771,-2.2765,-1.9506,0.0,0.0,0.0,0.0,0.0,0.0,0.0,0.0,0.0,0.0,0.0,0.0,0.0,0.0,0.0,0.0,0.0,0.0,0.0,0.0,0.0,0.0,0.0,0.0,0.0,-1.0855,0.0,0.0,0.0,0.0,0.0,0.0,0.0,0.0,0.0,0.0,0.0,-2.2764,-2.5077,-2.6557,-2.7897,-2.9219,-2.9641,-2.9977,0.0,0.0,0.0,0.0,0.0,0.0,0.0,0.0,0.0,0.0,0.0,0.0,0.0,0.0,-2.6606,-2.2274,-2.1511,-2.1702,-2.2152,0.0,0.0,0.0,0.0,0.0,0.0,0.0,0.0,0.0,0.0,0.0,0.0,0.0,0.0,-1.5811,0.0,-1.4451,0.0,0.0,0.0,0.0,0.0,0.0,0.0,0.0,-2.248,-2.4144,-2.4966,-2.5659,-2.5625,0.0,-2.4252,-2.2139,0.0,0.0,0.0,0.0,0.0,0.0,0.0,0.0,-2.0525,-2.3327,-2.4847,-2.5964,-2.6657,-2.6708,-2.6454,-2.5981,-2.489,-2.2867,-1.9864,-1.796,-1.6269,0.0,0.0,0.0,0.0,0.0,0.0,0.0,0.0,0.0,0.0,0.0,0.0,0.0,0.0,0.0,0.0,0.0,0.0,0.0,0.0,0.0,0.0,0.0,-1.1902,0.0,0.0,0.0,0.0,0.0,0.0,0.0,0.0,0.0,-2.4069,-2.4395,-2.5296,-2.7563,-2.8539,-2.945,-3.0467,0.0,0.0,0.0,0.0,0.0,0.0,0.0,-2.8883,-2.9349,-2.862,-2.8269,-2.9257,-3.0164,-3.0658,-3.0381,0.0,0.0,-2.5424,-2.4553,-2.4714,-2.5145,-2.5627,-2.6088,-2.6572,-2.715,-2.7471,0.0,0.0,0.0,0.0,0.0,0.0,0.0,0.0,-1.8765,-1.8499,0.0,-1.7265,0.0,0.0,0.0,0.0,0.0,-2.0573,0.0,0.0,-2.5954,-2.7494,-2.7874,-2.73,-2.73,-2.7908,-2.7891,-2.7063,-2.5374,-2.0196,0.0,0.0,0.0,0.0,0.0,0.0,-2.1783,-2.3545,-2.5033,-2.6082,-2.6793,-2.6759,-2.6708,-2.6607,-2.4863,-2.324,-2.1879,-2.0013,-1.8432,-1.7117,-1.4603,0.0,0.0,0.0,0.0,0.0,0.0,0.0,0.0,0.0,0.0,0.0,0.0,0.0,0.0,0.0,0.0,0.0,0.0,0.0,0.0,-1.2454,0.0,0.0,0.0,0.0,0.0,0.0,0.0,0.0,0.0,0.0,-2.738,-2.7714,-2.8459,-3.0008,0.0,0.0,0.0,0.0,-3.1488,-3.1549,-3.1549,-3.1311,-3.054,-3.098,-3.1201,-3.0454,0.0,0.0,-3.0467,-3.1164,-3.163,-3.0871,-3.1551,-3.1509,-2.945,-2.8963,-2.8813,-2.8339,-2.8425,-2.8939,-2.9791,-3.0084,-3.0349,-2.2847,0.0,0.0,0.0,0.0,-2.1678,-2.2744,-2.4106,-2.3726,-2.3431,-2.3115,-2.1616,0.0,0.0,0.0,0.0,0.0,0.0,-2.567,-2.6872,-2.9049,-3.0381,-3.1004,-3.1326,-3.1326,-3.1004,-3.048,-2.9465,-2.7994,-2.5832,-2.2623,-1.8551,0.0,0.0,0.0,0.0,-2.451,-2.5761,-2.7266,-2.813,-2.8333,-2.7774,-2.6979,-2.5947,-2.4613,-2.3601,-2.2956,-2.1104,-1.9714,-1.8913,-1.6757,0.0,0.0,0.0,0.0,0.0,0.0,0.0,0.0,0.0,0.0,0.0,0.0,0.0,0.0,0.0,0.0,0.0,0.0,0.0,-1.2504,-1.359,-1.463,0.0,0.0,0.0,0.0,0.0,0.0,0.0,0.0,0.0,-3.0687,-3.0173,-2.9898,0.0,0.0,-3.1604,-3.2173,-3.2742,-3.3311,-3.3885,-3.4504,0.0,-3.3738,-3.3348,-3.3036,-3.2797,-3.2963,-3.3018,-3.2797,-3.3022,-3.3147,-3.2907,-3.3118,-3.2933,-3.1851,-3.1377,-3.1179,-3.1016,-3.1017,-3.1129,-3.1438,-3.1711,-3.1893,-2.7859,-2.6019,-2.4073,-2.376,-2.4574,-2.4954,-2.5909,-2.718,-2.6847,-2.6692,-2.658,-2.5259,-2.42,-2.3392,-2.3036,0.0,0.0,0.0,-2.8395,-2.9555,-3.1295,-3.2307,-3.2747,-3.3203,-3.3169,-3.2733,-3.229,-3.1613,-3.0717,-2.9956,-2.7625,-2.3915,0.0,0.0,-2.2573,-2.4946,-2.6487,-2.7164,-2.8367,-2.8993,-2.8976,-2.8034,-2.6954,-2.5765,-2.4159,-2.3289,-2.3256,-2.1622,-2.0641,-2.0442,-1.8726,-1.6891,0.0,0.0,0.0,0.0,0.0,0.0,0.0,0.0,0.0,0.0,0.0,-1.1294,-0.966,0.0,0.0,0.0,-1.1889,-1.305,-1.5358,-1.5984,0.0,0.0,0.0,0.0,0.0,0.0,0.0,-2.7068,-2.8846,-3.0715,-3.279,-3.2816,-3.2797,-3.3288,-3.3361,-3.3513,-3.4009,0.0,-3.4963,-3.5445,-3.5954,-3.6119,-3.5591,-3.511,-3.4798,-3.4798,-3.4812,-3.478,-3.478,-3.478,-3.478,-3.478,-3.4798,-3.4651,-3.4174,-3.3914,-3.3396,-3.2512,-3.2385,-3.2533,-3.2862,-3.3232,-3.3544,-3.2198,-3.1361,-2.7744,-2.6825,-2.7703,-2.7789,-2.8174,-2.8704,-2.8673,-2.8728,-2.8757,-2.8094,-2.7775,-2.7775,-2.7001,0.0,-2.7798,-2.9581,-3.0729,-3.1451,-3.2842,-3.3512,-3.349,-3.3571,-3.3571,-3.3592,-3.3525,-3.3491,-3.344,-3.2713,-3.1486,-2.9716,-2.8051,-2.6891,-2.627,-2.7377,-2.7976,-2.801,-2.8772,-2.9145,-2.9077,-2.7844,-2.6821,-2.6094,-2.3692,-2.2619,-2.3035,-2.1709,-2.1134,-2.1487,-2.0395,-1.8966,-1.7151,0.0,0.0,0.0,0.0,0.0,0.0,0.0,0.0,0.0,0.0,0.0,0.0,0.0,0.0,0.0,-1.5314,0.0,-1.8839,-1.9139,0.0,0.0,0.0,-2.3975,-2.5532,-2.7597,-2.9046,-2.944,0.0,0.0,-3.4082,-3.544,-3.6413,-3.6486,-3.6376,-3.6285,-3.6285,-3.6285,-3.6395,-3.6391,-3.6468,-3.6505,-3.656,-3.6413,-3.6303,-3.6317,-3.634,-3.6211,-3.6193,-3.6211,-3.6266,-3.6193,-3.6266,-3.6229,-3.6266,-3.6093,-3.5587,-3.3393,-3.3179,-3.3531,-3.4253,-3.4845,-3.5243,-3.317,-3.2946,-3.2003,-3.1206,-3.0581,-3.1078,-3.1379,-3.1485,-3.1003,-3.0784,-3.0733,-2.9624,-2.9361,-2.9792,-2.961,-2.9855,-3.0497,-3.1502,-3.2048,-3.2289,-3.3682,-3.4293,-3.4316,-3.4841,-3.5076,-3.5025,-3.4506,-3.4235,-3.4201,-3.3508,-3.2908,-3.247,-3.2013,-3.0185,-2.7133,-2.8671,-2.9567,-2.9548,-3.0294,-3.0395,-2.9837,-2.8577,-2.758,-2.6836,-2.3946,-2.2619,-2.3051,-2.1405,-2.0666,-2.1102,-2.061,-1.9644,-1.813,-1.5747,0.0,0.0,0.0,0.0,0.0,0.0,0.0,0.0,0.0,-1.5983,-1.3009,0.0,-1.6863,0.0,-1.7681,-1.9738,-2.0166,-2.1258,0.0,0.0,-2.6669,-2.8183,-3.0552,-3.1309,-3.2146,-3.3431,-3.4252,-3.5206,-3.6464,-3.6978,-3.7422,-3.801,-3.7074,-3.6285,-3.6303,-3.6835,-3.7235,-3.7272,-3.7698,-3.812,-3.8046,-3.7588,-3.7217,-3.7217,-3.6721,-3.6303,-3.6303,-3.6285,-3.6285,-3.6285,-3.6285,-3.6285,-3.634,-3.6285,-3.6156,-3.555,-3.5473,-3.5623,-3.6044,-3.6363,-3.667,-3.4382,-3.4382,-3.4382,-3.3963,-3.329,-3.3051,-3.2946,-3.2916,-3.2557,-3.2378,-3.2362,-3.1644,-3.1528,-3.1835,-3.1835,-3.2014,-3.2369,-3.3063,-3.3397,-3.3439,-3.4516,-3.5034,-3.5037,-3.5111,-3.5314,-3.556,-3.4588,-3.4389,-3.4918,-3.4275,-3.3923,-3.3875,-3.3897,-3.2575,-3.0101,-3.0721,-3.1089,-3.1072,-3.114,-3.0835,-3.0106,-2.8879,-2.7586,-2.629,-2.4071,-2.2586,-2.2064,-2.12,-2.0727,-2.0698,-2.0886,-2.041,-1.9166,-1.7546,-1.6063,0.0,0.0,0.0,0.0,0.0,0.0,0.0,0.0,0.0,0.0,0.0,-1.957,-1.8758,-2.0784,-2.2578,-2.371,-2.5097,-2.6707,-2.8628,-3.0037,-3.1448,-3.2865,-3.3295,-3.4147,-3.5732,-3.5835,-3.6319,-3.7814,-3.8028,-3.8193,-3.8634,-3.7936,-3.7367,-3.7386,-3.7771,-3.8062,-3.808,-3.8414,-3.8707,-3.8707,-3.8322,-3.8046,-3.8006,-3.7661,-3.7367,-3.7367,-3.7367,-3.7367,-3.7367,-3.7367,-3.7367,-3.7367,-3.7367,-3.7367,-3.7367,-3.7367,-3.7161,-3.6638,-3.6746,-3.6983,-3.5489,-3.5489,-3.5489,-3.5489,-3.5415,-3.4247,-3.3754,-3.3739,-3.3649,-3.3574,-3.3499,-3.3499,-3.3499,-3.3499,-3.3499,-3.3499,-3.3561,-3.4102,-3.4382,-3.444,-3.5128,-3.5455,-3.5449,-3.4967,-3.5082,-3.5664,-3.4537,-3.4603,-3.5712,-3.5178,-3.4818,-3.4636,-3.4641,-3.4336,-3.3677,-3.297,-3.2479,-3.2293,-3.1582,-3.0886,-3.0241,-2.9012,-2.7492,-2.5731,-2.4225,-2.2675,-2.1114,-2.1216,-2.1076,-2.0604,-2.1423,-2.1396,-2.0315,-1.9443,-1.8452,0.0,-1.6291,0.0,0.0,0.0,0.0,0.0,0.0,0.0,0.0,-2.116,-2.224,-2.3697,-2.4558,-2.5844,-2.7826,-2.9282,-3.0351,-3.0959,-3.2843,-3.402,-3.3864,-3.4588,-3.563,-3.6957,-3.7045,-3.7468,-3.8437,-3.8816,-3.9004,-3.898,-3.9027,-3.9019,-3.8982,-3.8799,-3.8634,-3.8707,-3.8707,-3.8707,-3.8707,-3.8689,-3.8652,-3.867,-3.8615,-3.8707,-3.8615,-3.8634,-3.8652,-3.8652,-3.8579,-3.8634,-3.8707,-3.8652,-3.8652,-3.8579,-3.856,-3.8187,-3.7168,-3.7015,-3.7005,-3.5489,-3.5489,-3.5489,-3.5489,-3.5489,-3.5235,-3.513,-3.5085,-3.4532,-3.4024,-3.3499,-3.3499,-3.3499,-3.3499,-3.3499,-3.3499,-3.3499,-3.3622,-3.3683,-3.3698,-3.4382,-3.4693,-3.4723,-3.5201,-3.5786,-3.643,-3.6237,-3.6274,-3.6575,-3.6443,-3.6055,-3.5419,-3.538,-3.5312,-3.5143,0.0,0.0,0.0,-3.1579,-3.1123,-3.0951,-2.9762,-2.8636,-2.7629,-2.4971,0.0,-2.2641,-2.1894,-2.1553,-2.1788,-2.2834,0.0,0.0,0.0,0.0,0.0,0.0,0.0,0.0,0.0,0.0,0.0,-2.3306,-2.312,-2.2801,-2.3458,-2.4474,-2.5998,-2.9414,-3.0921,-2.9369,-3.1113,-3.2525,-3.2985,-3.4849,-3.595,-3.5562,-3.6488,-3.7307,-3.7166,-3.8025,-3.8546,-3.8526,-3.9675,-4.0416,-4.0,-4.0332,-4.062,-4.06,-3.9533,-3.8762,-3.8707,-3.8744,-3.8707,-3.8707,-3.8707,-3.8707,-3.8707,-3.8707,-3.8707,-3.8707,-3.8707,-3.8707,-3.8707,-3.8707,-3.8707,-3.8707,-3.8707,-3.8707,-3.8707,-3.8707,-3.8685,-3.8581,-3.8598,-3.8712,-3.5489,0.0,-3.5489,-3.5489,0.0,-3.5489,-3.5489,-3.5489,-3.5145,-3.4786,-3.4487,-3.4487,-3.4487,-3.4487,-3.4487,-3.4487,-3.4487,-3.4502,-3.4487,-3.4487,-3.4848,-3.5003,-3.4993,-3.5008,-3.543,-3.6141,-3.5857,-3.5867,-3.6164,-3.5902,-3.5556,-3.5095,-3.4773,-3.4776,-3.5081,-3.4711,-3.3947,-3.2831,-3.2104,-3.1752,-3.1681,-3.0398,-2.9229,-2.8254,-2.6363,0.0,0.0,0.0,0.0,0.0,0.0,0.0,0.0,0.0,0.0,-2.1761,-2.189,-2.2176,-2.2608,-2.3433,-2.456,-2.5998,-2.6826,-2.6776,-2.566,-2.6268,-2.7334,-2.8824,-3.1681,-3.2863,-3.1654,-3.3074,-3.4092,-3.4071,-3.5509,-3.6344,-3.5945,-3.6344,-3.6926,-3.7351,-3.7901,-3.8488,-3.9165,-3.9987,-4.0649,-4.0667,-4.0909,-4.1132,-4.104,-4.0416,-3.9793,-3.935,-3.8927,-3.8707,-3.8707,-3.8707,-3.8726,-3.8707,-3.8707,-3.8707,-3.8707,-3.8707,-3.8707,-3.8707,-3.8707,-3.8707,-3.8707,-3.8707,-3.8707,-3.8707,-3.8707,-3.8716,-3.8884,-3.8894,-3.899,-3.5489,-3.5489,-3.5489,-3.5489,-3.5489,-3.5489,-3.5489,-3.5489,0.0,0.0,0.0,-3.5489,-3.5489,-3.5489,-3.5489,-3.5489,-3.5489,-3.5489,-3.5489,-3.5489,-3.5489,-3.5495,-3.5477,-3.4951,-3.5064,-3.5719,-3.5263,-3.5287,-3.5748,-3.5283,-3.4942,-3.4729,-3.41,-3.405,-3.4583,-3.4543,-3.4262,-3.3757,-3.2953,-3.2496,-3.2462,-3.1173,-2.9938,-2.8843,-2.7824,-2.6547,-2.4984,-2.479,-2.4513,-2.4068,-2.4527,-2.473,-2.4614,-2.4908,-2.5032,-2.4931,-2.5575,-2.5998,-2.5998,-2.6674,-2.7486,-2.8348,-2.9702,-2.9886,-2.85,-2.9008,-3.0008,-3.1461,-3.2933,-3.3723,-3.3626,-3.4641,-3.5173,-3.4757,-3.5839,-3.6392,-3.5937,-3.6034,-3.6647,-3.7408,-3.7824,-3.8388,-3.972,-4.0394,-4.0745,-4.1139,-4.1475,-4.1515,-4.1497,-4.1242,-4.0747,-4.0194,-3.968,-3.9221,-3.915,-3.9205,-3.9129,-3.9261,-3.9203,-3.9129,-3.9111,-3.8875,-3.8836,-3.9258,-3.9114,-3.9184,-3.9166,-3.9239,-3.9129,-3.9129,-3.9129,-3.9114,-3.9114,-3.9129,-3.9178,-3.5504,-3.5489,-3.5489,-3.5489,-3.5489,-3.5489,-3.5489,-3.5489,-3.5489,-3.5489,-3.5489,-3.5489,-3.5489,-3.5489,-3.5489,-3.5489,-3.5489,-3.5489,-3.5489,-3.5489,-3.5489,-3.5477,-3.5484,-3.5387,-3.5761,-3.6427,-3.6351,-3.6399,-3.6513,-3.6438,-3.6118,-3.5441,-3.4793,-3.4484,-3.4601,-3.4589,-3.4828,-3.5261,-3.3926,-3.3237,-3.3237,-3.2408,-3.1613,-3.0774,-2.9068,-2.7894,-2.7344,-2.6955,-2.6904,-2.7176,-2.787,-2.7973,-2.7315,-2.7265,-2.7046,-2.6488,-2.7097,-2.7503,-2.7519,-2.823,-2.9281,-3.0598,-3.1495,-3.1633,-3.0818,-3.0818,-3.1495,-3.2966,-3.4366,-3.5025,-3.4489,-3.5101,-3.5564,-3.5565,-3.6573,-3.7145,-3.6712,-3.7473,-3.7962,-3.7897,-3.882,-3.9261,-3.9468,-4.0972,-4.1975,-4.191,-4.2396,-4.3075,-4.2784,-4.1974,-4.115,-4.0948,-4.0838,-4.0747,-4.0581,-4.0747,-4.0618,-4.0765,-4.0655,-4.0563,-4.0545,-3.9682,-3.9389,-4.0471,-4.06,-4.0655,-4.0673,-4.0765,-4.0618,-4.0581,-4.0563,-4.0618,-4.0563,-4.0581,-4.0283,-3.6342,-3.6058,-3.6043,-3.5818,-3.5489,-3.5489,-3.5489,-3.5489,-3.5489,-3.5489,-3.5489,-3.5489,-3.5489,-3.5489,-3.5489,-3.5489,-3.5489,-3.5489,-3.5489,-3.5489,-3.5489,-3.5489,-3.5489,-3.5489,-3.5683,-3.6038,-3.6415,-3.6399,-3.609,-3.6091,-3.5732,-3.4994,-3.4344,-3.4181,-3.4596,-3.4603,-3.4934,-3.5543,-3.4556,-3.3981,-3.3981,-3.3271,-3.2544,-3.1819,-3.0544,-2.9597,-2.9075,-2.8489,-2.8253,-2.845,-2.8789,-2.884,-2.8484,-2.845,-2.8298,-2.8011,-2.8636,-2.9041,-2.9058,-3.0142,-3.1261,-3.2307,-3.2696,-3.2933,-3.2983,-3.2611,-3.2848,-3.3914,-3.5013,-3.5464,-3.5165,-3.5791,-3.6248,-3.6248,-3.7143,-3.7609,-3.7492,-3.7829,-3.8274,-3.8502,-3.9,-3.9532,-3.998,-4.1031,-4.1976,-4.2203,-4.3032,-4.3392,-4.316,-4.2718,-4.2231,-4.1827,-4.1389,-4.1132,-4.1132,-4.1113,-4.1113,-4.1113,-4.1113,-4.1113,-4.1132,-4.0543,-4.0689,-4.1001,-4.1313,-4.1387,-4.1205,-4.1113,-4.1113,-4.1113,-4.1113,-4.1113,-4.1113,-4.1113,-4.0882,-3.7135,-3.6701,-3.6686,-3.6402,-3.5923,-3.5789,-3.5729,-3.5714,-3.5579,-3.5489,-3.5489,-3.5489,-3.5489,-3.5489,-3.5489,-3.5489,-3.5489,-3.5489,-3.5489,-3.5489,-3.5489,-3.5489,-3.5489,-3.5489,-3.5489,-3.5554,-3.6086,-3.6054,-3.5544,-3.5568,-3.5217,-3.4539,-3.3983,-3.4104,-3.4835,-3.4519,-3.475,-3.5518,-3.4761,-3.4443,-3.4726,-3.4015,-3.3355,-3.2818,-3.1921,-3.1173,-3.0598,-2.9888,-2.9517,-2.9484,-2.9501,-2.9501,-2.9501,-2.9501,-2.9568,-2.9754,-3.0277,-3.0683,-3.0903,-3.1904,-3.2869,-3.3592,-3.366,-3.3964,-3.459,-3.4235,-3.4134,-3.4726,-3.5622,-3.609,-3.6011,-3.6586,-3.7066,-3.71,-3.7702,-3.8149,-3.8159,-3.8278,-3.8599,-3.914,-3.9225,-3.9691,-4.0453,-4.0827,-4.1402,-4.248,-4.316,-4.3304,-4.3014,-4.325,-4.3187,-4.2708,-4.2047,-4.1772,-4.1644,-4.1717,-4.1719,-4.1627,-4.1682,-4.1792,-4.1827,-4.2047,-4.2101,-4.1901,-4.2011,-4.2139,-4.1772,-4.1682,-4.1737,-4.1827,-4.1846,-4.1754,-4.1792,-4.1791,-4.159,-3.7389,-3.733,-3.733,-3.7285,-3.712,-3.6626,-3.6402,-3.6312,-3.5774,-3.5489,-3.5534,-3.5489,-3.5489,-3.5489,-3.5489,-3.5489,-3.5489,-3.5489,-3.5489,-3.5489,-3.5489,-3.5489,-3.5489,-3.5489,-3.5489,-3.5489,-3.5604,-3.5619,-3.5504,-3.5512,-3.5167,-3.4578,-3.4431,-3.4771,-3.5351,-3.4282,-3.4298,-3.5613,-3.4347,-3.4276,-3.538,-3.4776,-3.437,-3.4286,-3.2936,-3.2175,-3.2039,-3.1393,-3.0987,-3.0987,-3.0987,-3.0987,-3.0987,-3.1007,-3.1275,-3.1904,-3.2039,-3.2395,-3.3,-3.322,-3.3626,-3.4286,-3.4387,-3.4726,-3.5397,-3.5414,-3.5397,-3.5735,-3.6857,-3.7263,-3.6846,-3.7364,-3.7787,-3.7838,-3.8447,-3.8886,-3.8954,-3.9478,-3.9943,-3.9994,-3.991,-4.0053,-4.0277,-4.0726,-4.1424,-4.2342,-4.3105,-4.3427,-4.3286,-4.3392,-4.3496,-4.3369,-4.324,-4.3185,-4.313,-4.324,-4.3057,-4.3112,-4.3204,-4.3094,-4.3039,-4.3094,-4.3276,-4.2892,-4.3112,-4.3112,-4.3149,-4.3259,-4.3149,-4.2928,-4.2983,-4.3167,-4.324,-4.313,-4.2802,-3.8362,-3.8003,-3.7988,-3.7764,-3.7389,-3.7135,-3.703,-3.6971,-3.6357,-3.6088,-3.6028,-3.5684,-3.5489,-3.5489,-3.5489,-3.5489,-3.5489,-3.5489,-3.5489,-3.5489,-3.5489,-3.5489,-3.5489,-3.5489,-3.5489,-3.5489,-3.5489,-3.5489,-3.5489,-3.5489,-3.5355,-3.5055,-3.4713,-3.4881,-3.5435,-3.4594,-3.4411,-3.5004,-3.4883,-3.4865,-3.4951,-3.4728,-3.4538,-3.4467,-3.3914,-3.3393,-3.2966,-3.2645,-3.251,-3.251,-3.2493,-3.251,-3.251,-3.251,-3.2628,-3.2916,-3.2933,-3.3271,-3.3998,-3.4049,-3.4353,-3.5115,-3.5165,-3.5487,-3.618,-3.587,-3.5938,-3.6907,-3.755,-3.7753,-3.7567,-3.8125,-3.8548,-3.8633,-3.9216,-3.9656,-3.9673,-3.991,-4.0113,-4.0113,-4.0096,-4.0237,-4.0625,-4.1397,-4.181,-4.1961,-4.2621,-4.3339,-4.3124,-4.3304,-4.3479,-4.3479,-4.3479,-4.3479,-4.3479,-4.3479,-4.3479,-4.3479,-4.3479,-4.3479,-4.3479,-4.3479,-4.3479,-4.3479,-4.3479,-4.3479,-4.3406,-4.3479,-4.3479,-4.3479,-4.3479,-4.3479,-4.3479,-4.3479,-4.3195,-3.914,-3.8706,-3.8661,-3.8392,-3.7943,-3.7749,-3.7674,-3.7584,-3.7015,-3.678,-3.6671,-3.6058,-3.5789,-3.5744,-3.5594,-3.5489,-3.5489,-3.5489,-3.5489,-3.5489,-3.5489,-3.5489,-3.5489,-3.5489,-3.5489,-3.5489,-3.5489,-3.5489,-3.5489,-3.5489,-3.5489,-3.5415,-3.5011,-3.5136,-3.5644,-3.4968,-3.4645,-3.4865,-3.5027,-3.4959,-3.4888,-3.4701,-3.4662,-3.4773,-3.459,-3.4235,-3.3744,-3.3525,-3.3389,-3.3389,-3.3389,-3.3389,-3.3389,-3.3389,-3.3508,-3.3711,-3.3897,-3.4235,-3.4759,-3.481,-3.5131,-3.5825,-3.5943,-3.6265,-3.6806,-3.6569,-3.6834,-3.7973,-3.8379,-3.8497,-3.8278,-3.887,-3.9259,-3.9334,-3.9825,-4.0096,-4.0096,-4.0113,-4.0113,-4.0113,-4.0113,-4.0229,-4.0703,-4.1424,-4.1814,-4.1516,-4.2386,-4.3268,-4.3014,-4.3268,-4.3479,-4.3479,-4.3479,-4.3479,-4.3479,-4.3479,-4.3479,-4.3479,-4.3479,-4.3479,-4.3479,-4.3479,-4.3479,-4.3479,-4.3479,-4.3479,-4.3479,-4.3479,-4.3479,-4.3479,-4.3479,-4.3479,-4.3479,-4.3479,-4.3479,-3.9394,-3.9328,-3.9343,-3.9269,-3.926,-3.8616,-3.8347,-3.8317,-3.7644,-3.7375,-3.7285,-3.6716,-3.6447,-3.6402,-3.5878,-3.5519,-3.5489,-3.5489,-3.5489,-3.5489,-3.5489,-3.5489,-3.5489,-3.5489,-3.5489,-3.5489,-3.5489,-3.5489,-3.5489,-3.5489,-3.5489,-3.5474,-3.5415,-3.5787,-3.6184,-3.5168,-3.4865,-3.524,-3.4466,-3.4349,-3.5388,-3.4974,-3.4987,-3.5435,-3.4895,-3.4523,-3.4387,-3.3795,-3.344,-3.3423,-3.3491,-3.3457,-3.3457,-3.3457,-3.3795,-3.4404,-3.5059,-3.5464,-3.5532,-3.5571,-3.591,-3.6569,-3.6761,-3.7043,-3.7753,-3.7686,-3.8007,-3.8886,-3.9503,-3.9605,-3.9123,-3.9537,-3.9943,-3.9977,-4.0045,-4.0113,-4.0113,-4.0113,-4.0113,-4.0121,-4.0221,-4.0286,-4.0237,-4.0625,-4.1424,-4.1771,-4.2362,-4.292,-4.3303,-4.3462,-4.3479,-4.3479,-4.3479,-4.3479,-4.3479,-4.3479,-4.3479,-4.3479,-4.3479,-4.3479,-4.3479,-4.3479,-4.3479,-4.3479,-4.3479,-4.3479,-4.3479,-4.3479,-4.3479,-4.3479,-4.3479,-4.3479,-4.3479,-4.3479,-4.3479,-3.9388,-3.9388,-3.9388,-3.9388,-3.9358,-3.9155,-3.905,-3.8975,-3.8317,-3.8033,-3.7928,-3.736,-3.7075,-3.706,-3.6821,-3.6282,-3.5549,-3.5489,-3.5489,-3.5489,-3.5489,-3.5489,-3.5489,-3.5489,-3.5489,-3.5489,-3.5489,-3.5489,-3.5489,-3.5489,-3.5489,-3.5489,-3.5489,-3.5636,-3.5769,-3.5396,-3.5112,-3.4941,-3.5241,-3.5641,-3.5703,-3.5866,-3.6071,-3.6232,-3.5597,-3.5194,-3.5216,-3.4923,-3.4805,-3.4805,-3.4788,-3.4788,-3.4788,-3.4788,-3.489,-3.5182,-3.5447,-3.5802,-3.6282,-3.6349,-3.6688,-3.7398,-3.7499,-3.7821,-3.8345,-3.8227,-3.8396,-3.9453,-3.991,-3.9943,-3.9842,-3.996,-4.0113,-4.0113,-4.0113,-4.0113,-4.0113,-4.0113,-4.0113,-4.0221,-4.0666,-4.1036,-4.0897,-4.1732,-4.2465,-4.2442,-4.2865,-4.3232,-4.341,-4.3479,-4.3479,-4.3479,-4.3479,-4.3479,-4.3479,-4.3479,-4.3479,-4.3479,-4.3479,-4.3479,-4.3479,-4.3479,-4.3479,-4.3479,-4.3479,-4.3479,-4.3479,-4.3479,-4.3479,-4.3479,-4.3479,-4.3479,-4.3479,-4.3479,-4.3479,-3.9388,-3.9388,-3.9388,-3.9388,-3.9388,-3.9388,-3.9388,-3.9328,-3.8916,-3.8721,-3.8601,-3.8018,-3.7734,-3.7674,-3.7509,-3.6985,-3.6133,-3.5938,-3.5714,-3.5519,-3.5489,-3.5489,-3.5489,-3.5489,-3.5489,-3.5489,-3.5489,-3.5489,-3.5489,-3.5489,-3.5489,-3.5489,-3.5489,-3.5489,-3.5489,-3.5489,-3.525,-3.5115,-3.5813,-3.6144,-3.6045,-3.6454,-3.6704,-3.6646,-3.6191,-3.5951,-3.5934,-3.5733,-3.5599,-3.5612,-3.5605,-3.5701,-3.5943,-3.5994,-3.6113,-3.6315,-3.6343,-3.6569,-3.7043,-3.7168,-3.7466,-3.8176,-3.8261,-3.8565,-3.9208,-3.8886,-3.9191,-3.9859,-4.0113,-4.0113,-4.0113,-4.0096,-4.0113,-4.0113,-4.0113,-4.0113,-4.0113,-4.0113,-4.0113,-4.0221,-4.0861,-4.1178,-4.1138,-4.2147,-4.2657,-4.2674,-4.3032,-4.325,-4.3444,-4.3479,-4.3479,-4.3479,-4.3479,-4.3479,-4.3479,-4.3479,-4.3479,-4.3479,-4.3479,-4.3479,-4.3479,-4.3479,-4.3479,-4.3479,-4.3479,-4.3479,-4.3479,-4.3479,-4.3479,-4.3479,-4.3479,-4.3479,-4.3479,-4.3479,-4.3479,-3.9403,-3.9388,-3.9388,-3.9388,-3.9388,-3.9388,-3.9388,-3.9373,-3.9343,-3.9284,-3.92,-3.8676,-3.8407,-3.8302,-3.7883,-3.7464,-3.7255,-3.6821,-3.6222,-3.5654,-3.5594,-3.5549,-3.5504,-3.5489,-3.5489,-3.5489,-3.5489,-3.5489,-3.5489,-3.5489,-3.5489,-3.5489,-3.5489,-3.5489,-3.5489,-3.5489,-3.5489,-3.5464,-3.5627,-3.5947,-3.6491,-3.6624,-3.6694,-3.6686,-3.6577,-3.6535,-3.6622,-3.5974,-3.5621,-3.5679,-3.5686,-3.5982,-3.6671,-3.6812,-3.7094,-3.7601,-3.7804,-3.7831,-3.7889,-3.7922,-3.8227,-3.8853,-3.9005,-3.9276,-3.9808,-3.9926,-3.996,-4.0062,-4.0113,-4.0113,-4.0113,-4.0113,-4.0113,-4.0113,-4.0113,-4.0113,-4.0113,-4.0113,-4.0113,-4.0196,-4.0703,-4.0926,-4.1064,-4.1732,-4.2364,-4.2655,-4.2751,-4.2884,-4.3178,-4.3267,-4.3444,-4.3444,-4.3462,-4.3479,-4.3479,-4.3479,-4.3479,-4.3479,-4.3479,-4.3479,-4.3479,-4.3479,-4.3479,-4.3479,-4.3479,-4.3479,-4.3479,-4.3479,-4.3479,-4.3479,-4.3479,-4.3479,-4.3479,-4.3479,-4.3479,-3.9828,-3.9403,-3.9388,-3.9388,-3.9388,-3.9388,-3.9388,-3.9388,-3.9388,-3.9388,-3.9343,-3.92,-3.9095,-3.9065,-3.8856,-3.8527,-3.8078,-3.7838,-3.7225,-3.6327,-3.6193,-3.5938,-3.5594,-3.5504,-3.5489,-3.5489,-3.5489,-3.5489,-3.5489,-3.5489,-3.5489,-3.5489,-3.5489,-3.5489,-3.5489,-3.5489,-3.5489,-3.5569,-3.6006,-3.6384,-3.66,-3.661,-3.6651,-3.659,-3.6164,-3.6085,-3.6553,-3.5959,-3.5637,-3.5642,-3.6097,-3.671,-3.7364,-3.755,-3.7669,-3.7872,-3.7898,-3.8176,-3.8582,-3.8684,-3.8954,-3.9571,-3.9757,-3.9842,-4.0062,-4.0113,-4.0113,-4.0113,-4.0113,-4.0113,-4.0113,-4.0113,-4.0113,-4.0113,-4.0113,-4.0113,-4.0113,-4.0113,-4.0113,-4.0204,-4.0938,-4.1446,-4.1686,-4.2246,-4.2733,-4.2674,-4.2674,-4.2675,-4.2483,-4.2809,-4.2939,-4.2958,-4.316,-4.3479,-4.3479,-4.3479,-4.3479,-4.3479,-4.3479,-4.3479,-4.3479,-4.3479,-4.3479,-4.3479,-4.3479,-4.3479,-4.3479,-4.3479,-4.3479,-4.3479,-4.3479,-4.3479,-4.3479,-4.3479,-4.3479,-4.0367,-3.9798,-3.9783,-3.9634,-3.9403,-3.9388,-3.9388,-3.9388,-3.9388,-3.9388,-3.9388,-3.9388,-3.9388,-3.9388,-3.9388,-3.9185,-3.8796,-3.8766,-3.8197,-3.7255,-3.6896,-3.6582,-3.6178,-3.5953,-3.5714,-3.5534,-3.5489,-3.5489,-3.5489,-3.5489,-3.5489,-3.5489,-3.5489,-3.5489,-3.5489,-3.5489,-3.5489,-3.5587,-3.5958,-3.6196,-3.6244,-3.6477,-3.6477,-3.6228,-3.6006,-3.6006,-3.6182,-3.5764,-3.5573,-3.5647,-3.6099,-3.6795,-3.7728,-3.8125,-3.843,-3.8667,-3.8751,-3.8954,-3.9368,-3.9411,-3.9571,-3.9994,-4.0113,-4.0096,-4.0113,-4.0113,-4.0113,-4.0113,-4.0113,-4.0113,-4.0113,-4.0113,-4.0113,-4.0113,-4.0113,-4.0113,-4.0113,-4.0113,-4.0113,-4.0279,-4.085,-4.1512,-4.2124,-4.2344,-4.2884,-4.2674,-4.25,-4.246,-4.2203,-4.25,-4.2674,-4.2902,-4.3268,-4.3462,-4.3479,-4.3479,-4.3479,-4.3479,-4.3479,-4.3479,-4.3479,-4.3479,-4.3479,-4.3479,-4.3479,-4.3479,-4.3479,-4.3479,-4.3479,-4.3479,-4.3479,-4.3479,-4.3479,-4.3479,-4.3479,-4.104,-4.0487,-4.0397,-4.0038,-3.9544,-3.9469,-3.9388,-3.9388,-3.9388,-3.9388,-3.9388,-3.9388,-3.9388,-3.9388,-3.9388,-3.9328,-3.9358,-3.9298,-3.9005,-3.8362,-3.7868,-3.7479,-3.7165,-3.6626,-3.6118,-3.5699,-3.5549,-3.5489,-3.5489,-3.5489,-3.5489,-3.5489,-3.5489,-3.5489,-3.5489,-3.5489,-3.5489,-3.5489,-3.5569,-3.5587,-3.5587,-3.6134,-3.6228,-3.5619,-3.6054,-3.6117,-3.5671,-3.555,-3.558,-3.567,-3.5934,-3.6697,-3.7762,-3.8631,-3.9368,-3.9876,-4.0045,-3.9977,-4.0062,-3.9977,-4.0028,-4.0079,-4.0113,-4.0113,-4.0113,-4.0113,-4.0113,-4.0113,-4.0113,-4.0113,-4.0113,-4.0113,-4.0113,-4.0113,-4.0113,-4.0113,-4.0113,-4.0113,-4.0113,-4.0179,-4.0601,-4.1178,-4.1955,-4.1916,-4.22,-4.236,-4.218,-4.2142,-4.236,-4.2539,-4.2884,-4.3124,-4.3303,-4.3462,-4.3479,-4.3479,-4.3479,-4.3479,-4.3479,-4.3479,-4.3479,-4.3479,-4.3479,-4.3479,-4.3479,-4.3479,-4.3479,-4.3479,-4.3479,-4.3479,-4.3479,-4.3479,-4.3479,-4.3479,-4.3479,-4.1752,-4.1085,-4.0606,-4.0292,-4.0083,-3.9612,-3.9403,-3.9388,-3.9388,-3.9388,-3.9388,-3.9388,-3.9388,-3.9388,-3.9388,-3.9388,-3.9388,-3.9388,-3.9343,-3.9119,-3.8955,-3.8272,-3.7449,-3.6806,-3.6432,-3.6193,-3.5789,-3.5489,-3.5489,-3.5504,-3.5504,-3.5489,-3.5489,-3.5489,-3.5489,-3.5489,-3.5489,-3.5489,-3.5489,-3.5489,-3.5522,-3.5668,-3.5701,-3.5572,-3.5701,-3.5733,-3.5489,-3.5489,-3.5785,-3.6352,-3.6941,-3.7648,-3.8454,-3.9276,-3.9809,-4.0028,-4.0113,-4.0113,-4.0113,-4.0113,-4.0113,-4.0113,-4.0113,-4.0113,-4.0113,-4.0113,-4.0113,-4.0113,-4.0113,-4.0113,-4.0113,-4.0113,-4.0113,-4.0113,-4.0113,-4.0113,-4.0113,-4.0113,-4.0113,-4.0171,-4.0577,-4.0844,-4.0914,-4.137,-4.1768,-4.1955,-4.1948,-4.1849,-4.2157,-4.2683,-4.3045,-4.3013,-4.3142,-4.3375,-4.3479,-4.3479,-4.3479,-4.3479,-4.3479,-4.3479,-4.3479,-4.3479,-4.3479,-4.3479,-4.3479,-4.3479,-4.3479,-4.3479,-4.3479,-4.3479,-4.3479,-4.3479,-4.3479,-4.3479,-4.3479,-4.2387,-4.1796,-4.1422,-4.1055,-4.0741,-4.0113,-3.9828,-3.9768,-3.9493,-3.9388,-3.9388,-3.9388,-3.9388,-3.9388,-3.9388,-3.9388,-3.9388,-3.9388,-3.9388,-3.9388,-3.9343,-3.8796,-3.7943,-3.7404,-3.715,-3.6806,-3.6222,-3.5968,-3.5863,-3.5654,-3.5504,-3.5489,-3.5489,-3.5489,-3.5489,-3.5489,-3.5489,-3.5489,-3.5489,-3.5489,-3.5489,-3.5489,-3.5489,-3.5489,-3.5489,-3.5489,-3.5489,-3.5489,-3.5718,-3.6196,-3.6859,-3.7645,-3.8386,-3.9183,-3.9731,-4.002,-4.0113,-4.0113,-4.0113,-4.0113,-4.0113,-4.0113,-4.0113,-4.0113,-4.0113,-4.0113,-4.0113,-4.0113,-4.0113,-4.0113,-4.0113,-4.0113,-4.0113,-4.0113,-4.0113,-4.0113,-4.0113,-4.0113,-4.0113,-4.0179,-4.0319,-4.0473,-4.0138,-4.0772,-4.1139,-4.1463,-4.1868,-4.182,-4.1956,-4.2629,-4.3224,-4.3359,-4.3342,-4.3575,-4.3699,-4.3699,-4.3773,-4.3754,-4.3828,-4.3754,-4.3699,-4.3644,-4.3479,-4.3479,-4.3479,-4.3479,-4.3479,-4.3479,-4.3479,-4.3479,-4.3479,-4.3479,-4.3479,-4.3479,-4.3479,-4.2985,-4.2485,-4.241,-4.2066,-4.1452,-4.0786,-4.0442,-4.0262,-3.9813,-3.9478,-3.9403,-3.9388,-3.9388,-3.9388,-3.9388,-3.9388,-3.9388,-3.9388,-3.9388,-3.9388,-3.9343,-3.9035,-3.8556,-3.8242,-3.7928,-3.7479,-3.6881,-3.6626,-3.6432,-3.5968,-3.5654,-3.5654,-3.5594,-3.5489,-3.5489,-3.5489,-3.5489,-3.5489,-3.5489,-3.5489,-3.5489,-3.5489,-3.5489,-3.5489,-3.5489,-3.5489,-3.5489,-3.5489,-3.5522,-3.5489,-3.6181,-3.7114,-3.7892,-3.8608,-3.9236,-3.985,-3.9952,-3.9901,-4.007,-4.0113,-4.0113,-4.0113,-4.0113,-4.0113,-4.0113,-4.0113,-4.0113,-4.0113,-4.0113,-4.0113,-4.0113,-4.0113,-4.0113,-4.013,-4.0146,-4.0248,-4.0197,-4.0146,-4.013,-4.0248,-4.0265,-4.0248,-4.0383,-4.04,-4.0626,-4.1986,-4.23,-4.2562,-4.2849,-4.3517,-4.3937,-4.4107,-4.4014,-4.3903,-4.3938,-4.3938,-4.4048,-4.414,-4.4304,-4.4304,-4.4157,-4.401,-4.3644,-4.3479,-4.3479,-4.3479,-4.3479,-4.3479,-4.3516,-4.3479,-4.3479,-4.3479,-4.3479,-4.3479,-4.3479,-4.3215,-4.309,-4.262,-4.2321,-4.2111,-4.1482,-4.0891,-4.0427,-4.0277,-3.9933,-3.9544,-3.9418,-3.9418,-3.9418,-3.9418,-3.9388,-3.9388,-3.9388,-3.9388,-3.9388,-3.9388,-3.9328,-3.9065,-3.8691,-3.8347,-3.8018,-3.7524,-3.724,-3.7045,-3.6626,-3.6252,-3.6193,-3.5789,-3.5504,-3.5504,-3.5489,-3.5489,-3.5489,-3.5489,-3.5489,-3.5489,-3.5489,-3.5489,-3.5489,-3.5489,-3.5489,-3.5489,-3.5489,-3.5489,-3.5668,-3.6212,-3.7084,-3.8117,-3.8246,-3.8761,-3.9558,-3.9516,-3.9489,-3.9952,-4.0113,-4.0113,-4.0113,-4.0113,-4.0113,-4.0113,-4.0113,-4.0113,-4.0113,-4.0113,-4.0113,-4.0197,-4.013,-4.0231,-4.035,-4.0688,-4.0967,-4.0865,-4.0502,-4.057,-4.0976,-4.1085,-4.1322,-4.2202,-4.1822,-4.204,-4.262,-4.2984,-4.3389,-4.385,-4.4327,-4.4626,-4.4784,-4.4711,-4.462,-4.4782,-4.4764,-4.4745,-4.4764,-4.4837,-4.491,-4.4782,-4.4506,-4.4194,-4.3809,-4.3479,-4.3552,-4.3828,-4.3626,-4.3681,-4.3589,-4.3516,-4.3589,-4.3626,-4.3571,-4.3809,-4.3305,-4.326,-4.2955,-4.2806,-4.2716,-4.2171,-4.1677,-4.1294,-4.098,-4.0681,-4.0322,-4.0053,-3.9888,-3.9828,-3.9574,-3.9388,-3.9388,-3.9388,-3.9388,-3.9388,-3.9388,-3.9388,-3.9358,-3.9095,-3.8856,-3.8751,-3.8182,-3.7898,-3.7704,-3.724,-3.6746,-3.6492,-3.6133,-3.5804,-3.5534,-3.5519,-3.5489,-3.5489,-3.5489,-3.5489,-3.5489,-3.5489,-3.5489,-3.5489,-3.5489,-3.5489,-3.5489,-3.5489,-3.5701,-3.5943,-3.6086,-3.6646,-3.7844,-3.8218,-3.8723,-3.9135,-3.9584,-3.9568,-4.0003,-4.0113,-4.0113,-4.0113,-4.0113,-4.0113,-4.0113,-4.0113,-4.0113,-4.0113,-4.0146,-4.0214,-4.0544,-4.0612,-4.0696,-4.1145,-4.1457,-4.1711,-4.166,-4.1356,-4.1196,-4.1593,-4.1644,-4.2151,-4.2574,-4.2692,-4.2535,-4.2638,-4.3556,-4.3958,-4.4024,-4.4521,-4.5154,-4.5343,-4.5325,-4.5384,-4.5645,-4.5681,-4.559,-4.5553,-4.5498,-4.5535,-4.548,-4.5131,-4.48,-4.4525,-4.436,-4.4287,-4.4452,-4.4176,-4.3883,-4.3626,-4.3589,-4.3718,-4.3938,-4.4176,-4.4544,-4.3305,-4.3305,-4.3305,-4.3305,-4.3215,-4.2746,-4.2455,-4.2276,-4.1811,-4.1467,-4.1317,-4.0771,-4.0546,-4.0442,-4.0053,-3.9723,-3.9619,-3.9568,-3.9649,-3.9388,-3.9388,-3.9388,-3.9358,-3.9313,-3.9269,-3.9298,-3.8826,-3.8571,-3.8377,-3.7898,-3.7389,-3.6915,-3.669,-3.6447,-3.5953,-3.5684,-3.5744,-3.5759,-3.5579,-3.5489,-3.5489,-3.5489,-3.5489,-3.5489,-3.5489,-3.5489,-3.5489,-3.5522,-3.575,-3.6353,-3.5943,-3.6133,-3.6753,-3.7645,-3.8778,-3.8684,-3.9348,-3.9584,-3.9995,-4.0113,-4.0113,-4.0113,-4.0113,-4.0113,-4.0113,-4.013,-4.0231,-4.0383,-4.0519,-4.0857,-4.1305,-4.1373,-4.166,-4.2066,-4.2303,-4.2455,-4.2489,-4.2523,-4.2489,-4.21,-4.2337,-4.2828,-4.3115,-4.325,-4.2895,-4.2799,-4.3769,-4.4485,-4.453,-4.4721,-4.535,-4.584,-4.5816,-4.6081,-4.638,-4.6519,-4.6448,-4.6544,-4.6397,-4.6397,-4.6416,-4.6397,-4.6159,-4.5681,-4.548,-4.5333,-4.5131,-4.4966,-4.4544,-4.3956,-4.4048,-4.4525,-4.4745,-4.4856,-4.5241,-4.3305,-4.3305,-4.3305,-4.3305,-4.329,-4.317,-4.2851,-4.244,-4.2306,-4.1931,-4.1459,-4.1317,-4.122,-4.116,-4.1145,-4.0756,-4.0322,-4.0157,-3.9918,-3.9508,-3.9418,-3.9388,-3.9388,-3.9388,-3.9388,-3.9409,-3.9215,-3.9155,-3.902,-3.8586,-3.8123,-3.7928,-3.7509,-3.712,-3.6866,-3.6626,-3.6327,-3.6252,-3.5938,-3.5714,-3.5609,-3.5519,-3.5489,-3.5489,-3.5489,-3.5489,-3.5489,-3.5489,-3.5554,-3.5718,-3.6134,-3.6117,-3.6006,-3.6149,-3.7397,-3.8914,-3.8903,-3.9022,-3.9876,-4.0113,-4.0113,-4.0113,-4.018,-4.0163,-4.0146,-4.0231,-4.0587,-4.1018,-4.1474,-4.1931,-4.2083,-4.2117,-4.2168,-4.2439,-4.2878,-4.3189,-4.3335,-4.3572,-4.3707,-4.3149,-4.325,-4.3403,-4.3656,-4.3859,-4.3752,-4.3633,-4.4099,-4.4776,-4.508,-4.5211,-4.5523,-4.5965,-4.6287,-4.6668,-4.7096,-4.7213,-4.7284,-4.7568,-4.759,-4.7572,-4.7645,-4.7865,-4.7645,-4.6856,-4.6305,-4.6012,-4.5847,-4.5718,-4.5443,-4.5021,-4.5223,-4.548,-4.5608,-4.57,-4.581,-4.3305,-4.3305,-4.3305,-4.3305,-4.3305,-4.3305,-4.3125,-4.2895,-4.2865,-4.2701,-4.2372,-4.2058,-4.1916,-4.1826,-4.1512,-4.1212,-4.0935,-4.0502,-4.0232,-3.9903,-3.9568,-3.9388,-3.9418,-3.9418,-3.9388,-3.9388,-3.9388,-3.9388,-3.9358,-3.911,-3.8736,-3.8362,-3.8033,-3.7764,-3.7419,-3.7105,-3.6985,-3.6866,-3.6626,-3.6297,-3.5983,-3.5759,-3.5534,-3.5519,-3.5534,-3.5489,-3.5489,-3.5489,-3.5489,-3.5587,-3.5846,-3.5797,-3.5649,-3.5795,-3.6662,-3.8689,-3.8712,-3.8816,-3.9833,-4.0113,-4.0113,-4.0146,-4.0434,-4.0646,-4.0781,-4.1035,-4.1382,-4.1728,-4.1982,-4.2472,-4.2811,-4.2861,-4.3064,-4.3453,-4.3792,-4.3944,-4.4079,-4.4384,-4.4248,-4.3995,-4.4012,-4.4079,-4.4265,-4.4462,-4.4547,-4.4598,-4.4598,-4.4917,-4.5399,-4.5399,-4.5425,-4.589,-4.627,-4.6738,-4.7132,-4.7345,-4.7572,-4.7975,-4.8324,-4.8324,-4.8306,-4.8251,-4.8086,-4.759,-4.715,-4.6801,-4.6617,-4.6489,-4.6287,-4.6067,-4.5957,-4.5993,-4.6342,-4.6544,-4.6654,-4.3305,-4.3305,-4.3305,-4.3305,-4.3305,-4.3305,-4.329,-4.3305,-4.3275,-4.3245,-4.323,-4.2821,-4.2551,-4.2432,-4.2087,-4.1728,-4.1564,-4.1025,-4.0816,-4.0531,-4.0172,-3.9873,-3.9828,-3.9612,-3.9627,-3.9687,-3.9418,-3.9388,-3.9388,-3.9328,-3.9065,-3.8796,-3.8616,-3.8377,-3.7973,-3.7764,-3.7659,-3.7569,-3.7434,-3.712,-3.6656,-3.6193,-3.5893,-3.5878,-3.5893,-3.5953,-3.6028,-3.6058,-3.6043,-3.6028,-3.6016,-3.5971,-3.5893,-3.5893,-3.683,-3.8438,-3.8748,-3.9119,-3.967,-4.0341,-4.0451,-4.0468,-4.1052,-4.1339,-4.1593,-4.1965,-4.2472,-4.254,-4.2838,-4.3064,-4.3572,-4.3639,-4.3927,-4.4248,-4.4479,-4.4564,-4.4513,-4.4564,-4.4564,-4.4479,-4.4598,-4.4598,-4.4598,-4.4598,-4.4598,-4.4598,-4.4598,-4.4665,-4.5025,-4.4923,-4.5025,-4.5648,-4.6136,-4.6618,-4.6977,-4.7219,-4.7449,-4.7777,-4.8132,-4.8324,-4.8324,-4.8306,-4.8122,-4.7976,-4.8012,-4.7682,-4.748,-4.7296,-4.7186,-4.6948,-4.6544,-4.6617,-4.7131,-4.7369,-4.7443,-4.3305,-4.3305,-4.3305,-4.3305,-4.3305,-4.3305,-4.3305,-4.3305,-4.3305,-4.3305,-4.3305,-4.32,-4.3125,-4.3065,-4.305,-4.2731,-4.2381,-4.2051,-4.1692,-4.1317,-4.104,-4.092,-4.098,-4.0516,-4.0322,-4.0232,-3.9783,-3.9418,-3.9448,-3.9463,-3.9358,-3.923,-3.917,-3.9185,-3.885,-3.8497,-3.8287,-3.8182,-3.7734,-3.7404,-3.73,-3.7165,-3.706,-3.7075,-3.706,-3.7015,-3.6941,-3.6941,-3.6985,-3.703,-3.709,-3.715,-3.7195,-3.718,-3.8104,-3.8822,-3.8843,-3.8278,-3.9361,-4.0428,-4.1068,-4.1187,-4.1762,-4.2083,-4.2455,-4.2844,-4.3301,-4.3318,-4.3792,-4.4141,-4.4259,-4.4395,-4.453,-4.4547,-4.4598,-4.4598,-4.4598,-4.4598,-4.4598,-4.4598,-4.4598,-4.4598,-4.4598,-4.4598,-4.4598,-4.4598,-4.4598,-4.4665,-4.472,-4.4654,-4.4776,-4.5425,-4.5749,-4.6185,-4.6819,-4.7044,-4.7381,-4.7632,-4.8014,-4.8323,-4.8324,-4.8324,-4.8324,-4.8233,-4.8324,-4.8324,-4.7993,-4.7883,-4.8012,-4.7829,-4.7425,-4.7645,-4.8086,-4.8196,-4.8067,-4.3305,-4.3305,-4.3305,-4.3305,-4.3305,-4.3305,-4.3305,-4.3305,-4.3305,-4.3305,-4.3305,-4.3305,-4.3305,-4.3305,-4.3305,-4.314,-4.2865,-4.259,-4.2291,-4.1931,-4.1662,-4.1467,-4.1294,-4.11,-4.0965,-4.0876,-4.0651,-4.0352,-4.0053,-3.9582,-3.9388,-3.9388,-3.9388,-3.9343,-3.9388,-3.914,-3.9005,-3.8781,-3.8362,-3.7988,-3.7868,-3.7629,-3.7419,-3.7419,-3.7449,-3.7464,-3.743,-3.7404,-3.7404,-3.7404,-3.7404,-3.7404,-3.7404,-3.7424,-3.7819,-3.8207,-3.8419,-3.9127,-4.0673,-4.1432,-4.1656,-4.1972,-4.2506,-4.3098,-4.3504,-4.3809,-4.4045,-4.4096,-4.4378,-4.4581,-4.4598,-4.4598,-4.4598,-4.4598,-4.4598,-4.4598,-4.4598,-4.4598,-4.4598,-4.4598,-4.4598,-4.4598,-4.4598,-4.4598,-4.4598,-4.4598,-4.4598,-4.4626,-4.4637,-4.4626,-4.4869,-4.5258,-4.5459,-4.5648,-4.6353,-4.6887,-4.7306,-4.766,-4.8143,-4.8358,-4.8323,-4.8324,-4.8434,-4.8379,-4.8324,-4.8324,-4.8324,-4.8269,-4.8177,-4.8233,-4.8306,-4.8324,-4.8324,-4.8306,-4.8214,-4.3305,-4.3305,-4.3305,-4.3305,-4.3305,-4.3305,-4.3305,-4.3305,-4.3305,-4.3305,-4.3305,-4.3305,-4.3305,-4.3305,-4.3305,-4.326,-4.3245,-4.2806,-4.2641,-4.2402,-4.2147,-4.1968,-4.1938,-4.1818,-4.1662,-4.1662,-4.1294,-4.1025,-4.0636,-4.0217,-3.9852,-3.9418,-3.9388,-3.9388,-3.9388,-3.9343,-3.9298,-3.926,-3.8886,-3.8676,-3.8571,-3.8212,-3.8033,-3.7958,-3.7913,-3.7913,-3.7878,-3.7938,-3.7973,-3.8003,-3.8033,-3.8093,-3.8078,-3.8123,-3.8355,-3.872,-3.9071,-4.0196,-4.1544,-4.2317,-4.2303,-4.256,-4.3206,-4.391,-4.4344,-4.4598,-4.4581,-4.4513,-4.4547,-4.4598,-4.4598,-4.4598,-4.4598,-4.4598,-4.4598,-4.4598,-4.4632,-4.4733,-4.4699,-4.4598,-4.4598,-4.4598,-4.4598,-4.4598,-4.4598,-4.4598,-4.4598,-4.4649,-4.4682,-4.4767,-4.485,-4.5189,-4.5192,-4.5385,-4.6031,-4.6669,-4.713,-4.7861,-4.8352,-4.867,-4.88,-4.8783,-4.8802,-4.8673,-4.8489,-4.8324,-4.8324,-4.8324,-4.8324,-4.8324,-4.8324,-4.8324,-4.8324,-4.8324,-4.8324,-4.3305,-4.3305,-4.3305,-4.3305,-4.3305,-4.3305,-4.3305,-4.3305,-4.3305,-4.3305,-4.3305,-4.3305,-4.3305,-4.3305,-4.3305,-4.3305,-4.329,-4.3245,-4.314,-4.314,-4.3155,-4.2961,-4.2821,-4.2521,-4.2321,-4.2231,-4.1923,-4.1594,-4.1324,-4.1205,-4.0457,-3.9619,-3.9612,-3.9478,-3.9418,-3.9463,-3.9403,-3.9373,-3.923,-3.9245,-3.9245,-3.9089,-3.9074,-3.9104,-3.9179,-3.9239,-3.9224,-3.9074,-3.9,-3.902,-3.894,-3.8955,-3.888,-3.891,-3.9169,-3.9577,-3.9833,-4.0842,-4.1907,-4.2442,-4.2361,-4.2688,-4.3444,-4.4412,-4.4564,-4.4598,-4.4598,-4.4598,-4.4598,-4.4598,-4.4598,-4.4598,-4.4598,-4.4649,-4.4733,-4.4886,-4.4936,-4.5021,-4.4953,-4.4699,-4.4767,-4.5072,-4.5139,-4.5258,-4.5021,-4.5021,-4.5258,-4.5309,-4.5139,-4.5139,-4.4987,-4.5043,-4.4947,-4.5235,-4.5846,-4.6593,-4.7707,-4.8596,-4.9237,-4.9462,-4.9609,-4.9517,-4.9444,-4.915,-4.8985,-4.8636,-4.8416,-4.8636,-4.8691,-4.8434,-4.8324,-4.8324,-4.8324,-4.8324,-4.8324,-4.3305,-4.3305,-4.3305,-4.3305,-4.3305,-4.3305,-4.3305,-4.3305,-4.3305,-4.3305,-4.3305,-4.3305,-4.3305,-4.3305,-4.3305,-4.3305,-4.3305,-4.3305,-4.3305,-4.3305,-4.329,-4.3305,-4.3155,-4.312,-4.2955,-4.288,-4.2626,-4.2297,-4.2051,-4.2036,-4.1512,-4.0786,-4.0292,-4.0068,-3.9963,-3.9723,-3.9508,-3.9433,-3.9418,-3.9403,-3.9388,-3.9388,-3.9388,-3.9388,-3.9388,-3.9388,-3.9358,-3.9373,-3.9388,-3.9388,-3.9388,-3.9388,-3.9388,-3.9388,-3.9574,-3.992,-3.999,-4.0447,-4.1295,-4.212,-4.3089,-4.369,-4.4243,-4.4598,-4.4598,-4.4598,-4.4598,-4.4598,-4.4682,-4.4801,-4.4632,-4.4615,-4.4615,-4.4716,-4.4936,-4.5179,-4.5348,-4.5483,-4.5602,-4.5534,-4.5788,-4.6109,-4.6075,-4.6041,-4.572,-4.5449,-4.572,-4.5906,-4.5737,-4.5669,-4.5585,-4.5596,-4.5563,-4.5766,-4.6377,-4.739,-4.8459,-4.9281,-5.0073,-5.0307,-5.0472,-5.038,-5.0251,-4.9884,-4.9719,-4.9719,-4.9591,-4.9315,-4.904,-4.8691,-4.8453,-4.8324,-4.8324,-4.8398,-4.8545,-4.3305,-4.3305,-4.3305,-4.3305,-4.3305,-4.3305,-4.3305,-4.3305,-4.3305,-4.3305,-4.3305,-4.3305,-4.3305,-4.3305,-4.3305,-4.3305,-4.3305,-4.3305,-4.3305,-4.3305,-4.3305,-4.3305,-4.3305,-4.3275,-4.32,-4.3305,-4.326,-4.3,-4.2671,-4.2656,-4.2372,-4.1893,-4.1324,-4.101,-4.0591,-4.0277,-3.9993,-3.9978,-3.9783,-3.9723,-3.9738,-3.9493,-3.9388,-3.9388,-3.9388,-3.9388,-3.9388,-3.9388,-3.9388,-3.9388,-3.9388,-3.9388,-3.9388,-3.9388,-3.9388,-3.9388,-3.9424,-3.9481,-4.0305,-4.1526,-4.341,-4.4197,-4.4474,-4.4598,-4.4598,-4.4598,-4.4598,-4.4666,-4.4919,-4.5162,-4.5072,-4.5224,-4.5432,-4.5732,-4.5805,-4.6041,-4.6109,-4.621,-4.6397,-4.6498,-4.6667,-4.665,-4.6769,-4.6684,-4.6583,-4.6261,-4.621,-4.638,-4.638,-4.6363,-4.643,-4.643,-4.6464,-4.6735,-4.7145,-4.8253,-4.9348,-5.0185,-5.0875,-5.1244,-5.1371,-5.1298,-5.0986,-5.049,-5.0472,-5.0839,-5.0637,-5.0141,-4.9499,-4.8893,-4.8691,-4.8508,-4.8857,-4.8985,-4.9169,-4.3305,-4.3305,-4.3305,-4.3305,-4.3305,-4.3305,-4.3305,-4.3305,-4.3305,-4.3305,-4.3305,-4.3305,-4.3305,-4.3305,-4.3305,-4.3305,-4.3305,-4.3305,-4.3305,-4.3305,-4.3305,-4.3305,-4.3305,-4.3305,-4.3305,-4.3305,-4.329,-4.3245,-4.3185,-4.311,-4.3065,-4.297,-4.2387,-4.1871,-4.1414,-4.1377,-4.1347,-4.1205,-4.0621,-4.0442,-4.0292,-3.9948,-3.9783,-3.9753,-3.9768,-3.9813,-3.9828,-3.9664,-3.9649,-3.9582,-3.9433,-3.9403,-3.9388,-3.9388,-3.9388,-3.9388,-3.9448,-3.9884,-4.0699,-4.1607,-4.3008,-4.4382,-4.4699,-4.4818,-4.4699,-4.4632,-4.4818,-4.5089,-4.5799,-4.6109,-4.6177,-4.6177,-4.6363,-4.6498,-4.6583,-4.6786,-4.6853,-4.7141,-4.7361,-4.7479,-4.7124,-4.6887,-4.7141,-4.7293,-4.7344,-4.7158,-4.6887,-4.687,-4.7039,-4.7208,-4.7361,-4.7394,-4.7445,-4.7564,-4.8052,-4.9183,-5.0206,-5.1034,-5.167,-5.2007,-5.2289,-5.2325,-5.1885,-5.1206,-5.1316,-5.1738,-5.1353,-5.082,-5.0251,-4.9682,-4.9003,-4.8857,-4.9242,-4.9591,-4.9793,-4.3305,-4.3305,-4.3305,-4.3305,-4.3305,-4.3305,-4.3305,-4.3305,-4.3305,-4.3305,-4.3305,-4.3305,-4.3305,-4.3305,-4.3305,-4.3305,-4.3305,-4.3305,-4.3305,-4.3305,-4.3305,-4.3305,-4.3305,-4.3305,-4.3305,-4.3305,-4.3305,-4.3305,-4.3275,-4.3305,-4.3305,-4.3185,-4.3015,-4.2402,-4.1669,-4.1422,-4.1407,-4.1339,-4.113,-4.104,-4.1025,-4.0816,-4.0651,-4.0636,-4.0621,-4.0591,-4.0546,-4.0262,-4.0083,-4.0008,-3.9843,-3.9589,-3.9523,-3.9523,-3.9514,-3.9568,-3.9738,-4.0701,-4.1813,-4.2889,-4.3697,-4.444,-4.506,-4.5314,-4.5314,-4.4823,-4.5156,-4.5833,-4.6498,-4.6718,-4.6583,-4.6599,-4.6735,-4.6836,-4.7005,-4.7394,-4.7648,-4.8122,-4.8426,-4.846,-4.8274,-4.8122,-4.8206,-4.8054,-4.8037,-4.8122,-4.7902,-4.7986,-4.8156,-4.8308,-4.846,-4.846,-4.8477,-4.8494,-4.8869,-4.9667,-5.0242,-5.0838,-5.185,-5.2779,-5.3002,-5.2959,-5.2818,-5.2194,-5.2396,-5.2561,-5.216,-5.172,-5.1151,-5.0563,-5.0141,-4.9848,-5.016,-5.038,-5.0453,-4.3305,-4.3305,-4.3305,-4.3305,-4.3305,-4.3305,-4.3305,-4.3305,-4.3305,-4.3305,-4.3305,-4.3305,-4.3305,-4.3305,-4.3305,-4.3305,-4.3305,-4.3305,-4.3305,-4.3305,-4.3305,-4.3305,-4.3305,-4.3305,-4.3305,-4.3305,-4.3305,-4.3305,-4.3305,-4.3305,-4.3305,-4.3305,-4.329,-4.2841,-4.2312,-4.2177,-4.2162,-4.2117,-4.1968,-4.1752,-4.1677,-4.1489,-4.1362,-4.1347,-4.1347,-4.1362,-4.125,-4.1025,-4.0726,-4.0591,-4.0367,-4.0083,-4.0068,-4.0083,-4.0098,-4.0277,-4.0546,-4.144,-4.2458,-4.2997,-4.3634,-4.428,-4.5382,-4.6012,-4.6041,-4.572,-4.5957,-4.6515,-4.7158,-4.7276,-4.7242,-4.7242,-4.7479,-4.7614,-4.7767,-4.8173,-4.8308,-4.8748,-4.8849,-4.8934,-4.8968,-4.9001,-4.9018,-4.8951,-4.8765,-4.8866,-4.8934,-4.9018,-4.9018,-4.9018,-4.9018,-4.8968,-4.8951,-4.8849,-4.9099,-4.9763,-5.0268,-5.0645,-5.1703,-5.2853,-5.2959,-5.278,-5.3002,-5.3185,-5.302,-5.291,-5.2965,-5.2616,-5.2087,-5.1867,-5.1756,-5.1499,-5.1298,-5.1224,-5.1224,-4.3235,-4.325,-4.329,-4.321,-4.317,-4.3036,-4.321,-4.325,-4.321,-4.321,-4.3305,-4.3305,-4.3305,-4.3305,-4.3305,-4.3305,-4.3305,-4.3305,-4.3305,-4.3305,-4.3305,-4.3305,-4.3305,-4.3305,-4.3305,-4.3305,-4.3305,-4.3305,-4.3305,-4.3305,-4.3305,-4.3305,-4.3305,-4.311,-4.3021,-4.2961,-4.2961,-4.2836,-4.2611,-4.2417,-4.2327,-4.1953,-4.1833,-4.1803,-4.1803,-4.1773,-4.1698,-4.1534,-4.1429,-4.1354,-4.1317,-4.1332,-4.1362,-4.1407,-4.1407,-4.1437,-4.1422,-4.197,-4.2655,-4.303,-4.351,-4.4375,-4.5689,-4.6418,-4.6641,-4.6518,-4.7018,-4.7308,-4.7801,-4.7977,-4.8105,-4.8392,-4.8697,-4.8731,-4.8731,-4.8866,-4.8866,-4.8984,-4.8984,-4.9001,-4.9001,-4.9018,-4.9018,-4.9018,-4.9018,-4.9018,-4.9018,-4.9018,-4.9018,-4.9018,-4.9018,-4.9001,-4.9001,-4.9001,-4.9376,-4.9792,-5.0072,-5.0362,-5.1419,-5.2404,-5.2468,-5.2684,-5.302,-5.3185,-5.3185,-5.3167,-5.3112,-5.3112,-5.3038,-5.2873,-5.2619,-5.2491,-5.2068,-5.205,-5.2142,-4.2111,-4.2152,-4.2941,-4.24,-4.1099,-4.1782,-4.2493,-4.3155,-4.2508,-4.2467,-4.3305,-4.3305,-4.3305,-4.3305,-4.3305,-4.3305,-4.3305,-4.3305,-4.3305,-4.3305,-4.3305,-4.3305,-4.3305,-4.3305,-4.3305,-4.3305,-4.3305,-4.3305,-4.3305,-4.3305,-4.3305,-4.3305,-4.3305,-4.3305,-4.3305,-4.3305,-4.3305,-4.3245,-4.3075,-4.3,-4.2985,-4.2716,-4.2572,-4.2596,-4.2581,-4.2581,-4.2551,-4.2237,-4.2132,-4.2111,-4.1662,-4.1467,-4.1422,-4.1452,-4.1527,-4.2066,-4.2156,-4.2415,-4.3075,-4.3775,-4.4204,-4.4444,-4.5626,-4.5791,-4.6241,-4.6825,-4.7598,-4.7862,-4.7964,-4.8061,-4.8236,-4.8582,-4.8861,-4.897,-4.894,-4.8829,-4.8861,-4.9018,-4.9018,-4.9018,-4.9018,-4.9018,-4.9018,-4.9018,-4.9018,-4.9018,-4.9018,-4.9018,-4.9018,-4.9018,-4.9018,-4.9018,-4.9018,-4.9018,-4.9212,-4.9593,-4.985,-5.0195,-5.1094,-5.1814,-5.2042,-5.2358,-5.2937,-5.3185,-5.3185,-5.3185,-5.3185,-5.3185,-5.3185,-5.3185,-5.2983,-5.2968,-5.2913,-5.2766,-5.2692,-4.0958,-4.1042,-4.1643,-4.1393,-4.0788,-4.1295,-4.2249,-4.3021,-4.2548,-4.2725,-4.325,-4.3305,-4.3305,-4.3305,-4.3305,-4.3305,-4.3305,-4.3305,-4.3305,-4.3305,-4.3305,-4.3305,-4.3305,-4.3305,-4.3305,-4.3305,-4.3305,-4.3305,-4.3305,-4.3305,-4.3305,-4.3305,-4.3305,-4.3305,-4.3305,-4.3305,-4.3305,-4.3305,-4.3275,-4.3305,-4.3305,-4.3305,-4.3305,-4.3305,-4.3305,-4.3305,-4.3275,-4.2851,-4.2776,-4.2746,-4.2252,-4.2177,-4.2177,-4.2207,-4.2252,-4.2731,-4.2761,-4.288,-4.3277,-4.3704,-4.4074,-4.4472,-4.5064,-4.4997,-4.5433,-4.6033,-4.6994,-4.7622,-4.7802,-4.7982,-4.8208,-4.8482,-4.8688,-4.8892,-4.875,-4.8608,-4.8781,-4.897,-4.9018,-4.9018,-4.9018,-4.9018,-4.9018,-4.9018,-4.9018,-4.9018,-4.9018,-4.9018,-4.9018,-4.9018,-4.9018,-4.9018,-4.9018,-4.9001,-4.9243,-4.9346,-4.9513,-4.9786,-5.0307,-5.0964,-5.1419,-5.2048,-5.2663,-5.2988,-5.3185,-5.324,-5.3314,-5.3222,-5.3185,-5.3185,-5.3185,-5.3112,-5.3096,-5.3038,-5.3038,-3.9929,-3.9942,-3.9885,-4.0675,-4.1504,-4.1587,-4.2152,-4.3155,-4.313,-4.3305,-4.3305,-4.3305,-4.3305,-4.3305,-4.3305,-4.3305,-4.3305,-4.3305,-4.3305,-4.3305,-4.3305,-4.3305,-4.3305,-4.3305,-4.3305,-4.3305,-4.3305,-4.3305,-4.3305,-4.3305,-4.3305,-4.3305,-4.3305,-4.3305,-4.3305,-4.3305,-4.3305,-4.3305,-4.3305,-4.3305,-4.3305,-4.3305,-4.3305,-4.3305,-4.3305,-4.3305,-4.3305,-4.3275,-4.3305,-4.3275,-4.3245,-4.3155,-4.311,-4.3095,-4.3155,-4.317,-4.314,-4.3185,-4.326,-4.3488,-4.3448,-4.3747,-4.4105,-4.4106,-4.456,-4.5635,-4.668,-4.6815,-4.685,-4.7273,-4.7556,-4.7737,-4.7982,-4.837,-4.8497,-4.8608,-4.8861,-4.9001,-4.9018,-4.9086,-4.9289,-4.9306,-4.9441,-4.9509,-4.9898,-4.9492,-4.9424,-4.9458,-4.9424,-4.9424,-4.9204,-4.9187,-4.9052,-4.9035,-4.9063,-4.9155,-4.9178,-4.9432,-4.9993,-5.0608,-5.1425,-5.1973,-5.2389,-5.3067,-5.3739,-5.3515,-5.3479,-5.3369,-5.3259,-5.3185,-5.3185,-5.3185,-5.3203,-5.3277,-5.3185,-3.9885,-3.9885,-3.9885,-4.0589,-4.1531,-4.1587,-4.1726,-4.2126,-4.2955,-4.325,-4.3305,-4.3305,-4.3305,-4.3305,-4.3305,-4.3305,-4.3305,-4.3305,-4.3305,-4.3305,-4.3305,-4.3305,-4.3305,-4.3305,-4.3305,-4.3305,-4.3305,-4.3305,-4.3305,-4.3305,-4.3305,-4.3305,-4.3305,-4.3305,-4.3305,-4.3305,-4.3305,-4.3305,-4.3305,-4.3305,-4.3305,-4.3305,-4.3305,-4.3305,-4.3305,-4.3305,-4.3305,-4.3305,-4.3305,-4.329,-4.329,-4.329,-4.329,-4.3305,-4.3305,-4.3305,-4.3305,-4.3305,-4.3305,-4.3305,-4.3305,-4.3305,-4.3551,-4.3472,-4.3997,-4.5348,-4.5996,-4.5834,-4.5869,-4.6349,-4.6815,-4.7002,-4.7239,-4.7737,-4.8225,-4.8545,-4.8925,-4.9103,-4.9103,-4.934,-4.961,-4.9763,-4.9915,-5.0168,-5.0574,-5.0678,-5.0744,-5.0727,-5.0608,-5.0507,-4.9847,-4.9661,-4.9187,-4.9103,-4.9171,-4.9357,-4.9593,-4.9899,-5.0455,-5.1016,-5.1521,-5.2204,-5.2928,-5.3786,-5.4344,-5.3987,-5.3664,-5.3515,-5.3405,-5.343,-5.3592,-5.3757,-5.361,-5.3592,-5.3369,-3.8662,-3.9094,-3.9094,-3.9434,-4.0074,-4.0604,-4.1112,-4.167,-4.2275,-4.286,-4.325,-4.3305,-4.3305,-4.3305,-4.3305,-4.321,-4.321,-4.3305,-4.3305,-4.3305,-4.321,-4.3305,-4.3305,-4.3305,-4.3305,-4.3305,-4.3305,-4.3305,-4.3305,-4.3305,-4.3305,-4.3305,-4.3305,-4.3305,-4.3305,-4.3305,-4.3305,-4.3305,-4.3305,-4.3305,-4.3305,-4.3305,-4.3305,-4.3305,-4.3305,-4.3305,-4.3305,-4.3305,-4.3305,-4.3305,-4.3305,-4.3305,-4.3305,-4.3305,-4.3305,-4.3305,-4.3305,-4.3305,-4.3305,-4.3305,-4.3305,-4.3305,-4.3305,-4.3329,-4.3369,-4.454,-4.4989,-4.4818,-4.4479,-4.4825,-4.5638,-4.5996,-4.6208,-4.6592,-4.7221,-4.7688,-4.8921,-4.9999,-5.0101,-5.0321,-5.049,-5.0541,-5.0642,-5.0676,-5.0965,-5.0982,-5.1151,-5.1319,-5.1319,-5.1539,-5.0862,-5.0405,-5.0118,-4.9982,-5.0219,-5.0304,-5.0323,-5.0677,-5.098,-5.1336,-5.1826,-5.2688,-5.3513,-5.4072,-5.4351,-5.417,-5.3885,-5.3886,-5.3936,-5.4031,-5.4227,-5.4418,-5.4216,-5.4087,-5.4216,-3.7415,-3.8243,-3.8379,-3.8379,-3.8514,-3.9667,-4.0618,-4.1295,-4.1545,-4.2029,-4.2548,-4.2699,-4.2915,-4.3076,-4.3076,-4.2996,-4.286,-4.2684,-4.286,-4.2941,-4.2941,-4.3076,-4.321,-4.3305,-4.3305,-4.3305,-4.3305,-4.3305,-4.3305,-4.3305,-4.3305,-4.3305,-4.3305,-4.3305,-4.3305,-4.3305,-4.3305,-4.3305,-4.3305,-4.3305,-4.3305,-4.3305,-4.3305,-4.3305,-4.3305,-4.3305,-4.3305,-4.3305,-4.3305,-4.3305,-4.3305,-4.3305,-4.3305,-4.3305,-4.3305,-4.3305,-4.3305,-4.3305,-4.3305,-4.3305,-4.3305,-4.3305,-4.3305,-4.3319,-4.3374,-4.3596,-4.4035,-4.4156,-4.382,-4.3931,-4.4754,-4.5368,-4.5589,-4.6167,-4.6818,-4.7628,-4.9326,-5.0745,-5.0963,-5.1166,-5.1268,-5.1285,-5.1352,-5.1354,-5.1455,-5.1422,-5.1454,-5.1488,-5.1657,-5.2029,-5.1944,-5.1742,-5.1606,-5.1522,-5.1234,-5.105,-5.0948,-5.1266,-5.1562,-5.1788,-5.217,-5.3186,-5.3795,-5.3943,-5.4113,-5.4335,-5.4481,-5.4549,-5.4599,-5.4556,-5.4793,-5.4968,-5.5042,-5.5005,-5.5372,-3.8482,-3.9549,-3.9536,-3.9505,-3.9681,-4.0689,-4.0916,-4.0404,-4.1169,-4.1295,-4.0802,-4.0675,-4.0972,-4.1906,-4.1932,-4.1684,-4.1239,-4.1617,-4.1879,-4.1891,-4.2386,-4.2721,-4.3224,-4.3693,-4.3379,-4.3424,-4.3514,-4.3349,-4.3663,-4.3529,-4.3349,-4.3439,-4.3394,-4.3379,-4.3364,-4.3409,-4.3514,-4.3544,-4.3529,-4.3529,-4.3439,-4.3409,-4.3305,-4.3305,-4.3305,-4.3305,-4.3305,-4.3305,-4.3305,-4.3305,-4.3305,-4.3305,-4.3305,-4.3305,-4.3305,-4.3305,-4.3305,-4.3305,-4.3305,-4.3305,-4.3305,-4.3454,-4.3469,-4.3499,-4.3539,-4.3524,-4.3961,-4.4522,-4.4298,-4.4248,-4.4832,-4.5518,-4.5921,-4.7041,-4.7886,-4.9184,-5.0707,-5.1171,-5.142,-5.1657,-5.186,-5.1978,-5.2131,-5.235,-5.2773,-5.2739,-5.2723,-5.2723,-5.2655,-5.2824,-5.2892,-5.2841,-5.279,-5.2147,-5.1455,-5.1506,-5.1539,-5.1843,-5.2147,-5.2401,-5.2935,-5.3791,-5.4243,-5.407,-5.4493,-5.4937,-5.5061,-5.4763,-5.4952,-5.4941,-5.5254,-5.55,-5.5666,-5.5904,-5.6253]},{"header":{"parameterUnit":"m.s-1","parameterCategory":1,"la1":31.0,"la2":29.5877,"lo1":-88.7671,"lo2":-86.6584,"dy":0.0162,"dx":0.0185,"nx":115,"ny":88,"refTime":"2024-06-15T00:00:00:Z","depth":0,"parameterNumber":3,"parameterNumberName":"V-component_of_WINDS"},"data":[0.0,0.0,0.0,0.0,0.0,0.0,0.0,0.0,0.0,0.0,0.0,0.0,0.0,0.0,0.0,0.0,0.0,0.0,0.0,0.0,0.0,0.0,0.0,0.0,0.0,0.0,0.0,0.0,0.0,0.0,0.0,0.0,0.0,0.0,0.0,0.0,0.0,0.0,0.0,0.0,0.0,0.0,0.0,0.0,0.0,0.0,0.0,0.0,0.0,0.0,0.0,0.0,0.0,0.0,0.0,0.0,0.0,0.0,0.0,0.0,0.0,0.0,0.0,0.0,0.0,0.0,0.0,0.0,0.0,0.0,0.0,0.0,0.0,0.0,0.0,0.0,0.0,0.0,0.0,0.0,0.0,0.0,0.0,0.0,0.0,0.0,0.0,0.0,0.0,0.0,0.0,0.0,0.0,0.0,0.0,0.0,0.0,0.0,0.0,0.0,0.0,0.0,0.0,0.0,0.0,0.0,0.0,0.0,0.0,0.0,0.0,0.0,0.0,0.0,0.0,0.0,0.0,0.0,0.0,0.0,0.0,0.0,0.0,0.0,0.0,0.0,0.0,0.0,0.0,0.0,0.0,0.0,0.0,0.0,0.0,0.0,0.0,0.0,0.0,0.0,0.0,0.0,0.0,0.0,0.0,0.0,0.0,0.0,0.0,0.0,0.0,0.0,0.0,0.0,0.0,0.0,0.0,0.0,0.0,0.0,0.0,0.0,0.0,0.0,0.0,0.0,0.0,0.0,0.0,0.0,0.0,0.0,0.0,0.0,0.0,0.0,0.0,0.0,0.0,0.0,0.0,0.0,0.0,0.0,0.0,0.0,0.0,0.0,0.0,0.0,0.0,0.0,0.0,0.0,0.0,0.0,0.0,0.0,0.0,0.0,0.0,0.0,0.0,0.0,0.0,0.0,0.0,0.0,0.0,0.0,0.0,0.0,0.0,0.0,0.0,0.0,0.0,0.0,0.0,0.0,0.0,0.0,0.0,0.0,0.0,0.0,0.0,0.0,0.0,0.0,0.0,0.0,0.0,0.0,0.0,0.0,0.0,0.0,0.0,0.0,0.0,0.0,0.0,0.0,0.0,0.0,0.0,0.0,0.0,0.0,0.0,0.0,0.0,0.0,0.0,0.0,0.0,0.0,0.0,0.0,0.0,0.0,0.0,0.0,0.0,0.0,0.0,0.0,0.0,0.0,0.0,0.0,0.0,0.0,0.0,0.0,0.0,0.0,0.0,0.0,0.0,0.0,0.0,0.0,0.0,0.0,0.0,0.0,0.0,0.0,0.0,0.0,0.0,0.0,0.0,0.0,0.0,0.0,0.0,0.0,0.0,0.0,0.0,0.0,0.0,0.0,0.0,0.0,0.0,0.0,0.0,0.0,0.0,0.0,0.0,0.0,0.0,0.0,0.0,0.0,0.0,0.0,0.0,0.0,0.0,0.0,0.0,0.0,0.0,0.0,0.0,0.0,0.0,0.0,0.0,0.0,0.0,0.0,0.0,0.0,0.0,0.0,0.0,0.0,0.0,0.0,0.0,0.0,0.0,0.0,0.0,0.0,0.0,0.0,0.0,0.0,0.0,0.0,0.0,0.0,0.0,0.0,0.0,0.0,0.0,0.0,0.0,0.0,0.0,0.0,0.0,0.0,0.0,0.0,0.0,0.0,0.0,0.0,0.0,0.0,0.0,0.0,0.0,0.0,0.0,0.0,0.0,0.0,0.0,0.0,0.0,0.0,0.0,0.0,0.0,0.0,0.0,0.0,0.0,0.0,0.0,0.0,0.0,0.0,0.0,0.0,0.0,0.0,0.0,0.0,0.0,0.0,0.0,0.0,0.0,0.0,0.0,0.0,0.0,0.0,0.0,0.0,0.0,0.0,0.0,0.0,0.0,0.0,0.0,0.0,0.0,0.0,0.0,0.0,0.0,0.0,0.0,0.0,0.0,0.0,0.0,0.0,0.0,0.0,0.0,0.0,0.0,0.0,0.0,0.0,0.0,0.0,0.0,0.0,0.0,0.0,0.0,0.0,0.0,0.0,0.0,0.0,0.0,0.0,0.0,0.0,0.0,0.0,0.0,0.0,0.0,0.0,0.0,0.0,0.0,0.0,0.0,0.0,0.0,0.0,0.0,0.0,0.0,0.0,0.0,0.0,0.0,0.0,0.0,0.0,0.0,0.0,0.0,0.0,0.0,0.0,0.0,0.0,0.0,0.0,0.0,0.0,0.0,0.0,0.0,0.0,0.0,0.0,0.0,0.0,0.0,0.0,0.0,0.0,0.0,0.0,0.0,0.0,0.0,0.0,0.0,0.0,0.0,0.0,0.0,0.0,0.0,0.0,0.0,0.0,0.0,0.0,0.0,0.0,0.0,0.0,0.0,0.0,0.0,0.0,0.0,0.0,0.0,0.0,0.0,0.0,0.0,0.0,0.0,0.0,0.0,0.0,0.0,0.0,0.0,0.0,0.0,0.0,0.0,0.0,0.0,0.0,0.0,0.0,0.0,0.0,0.0,0.0,0.0,0.0,0.0,0.0,0.0,0.0,0.0,0.0,0.0,0.0,0.0,0.0,0.0,0.0,0.0,0.0,0.0,0.0,0.0,0.0,0.0,0.0,0.0,0.0,0.0,0.0,0.0,0.0,0.0,0.0,0.0,0.0,0.0,0.0,0.0,0.0,0.0,0.0,0.0,0.0,0.0,0.0,0.0,0.0,0.0,0.0,0.0,0.0,0.0,0.0,0.0,0.0,0.0,0.0,0.0,0.0,0.0,0.0,0.0,0.0,0.0,0.0,0.0,0.0,0.0,0.0,0.0,0.0,0.0,0.0,0.0,0.0,0.0,0.0,0.0,0.0,0.0,0.0,0.0,0.0,0.0,0.0,0.0,0.0,0.0,0.0,0.0,0.0,0.0,0.0,0.0,0.0,0.0,0.0,0.0,0.0,0.0,0.0,0.0,0.0,0.0,0.0,0.0,0.0,0.0,0.0,0.0,0.0,0.0,0.0,0.0,0.0,0.0,0.0,0.0,0.0,0.0,0.0,0.0,0.0,0.0,0.0,0.0,0.0,0.0,0.0,0.0,0.0,0.0,0.0,0.0,0.0,0.0,0.0,0.0,0.0,0.0,0.0,0.0,0.0,0.0,0.0,0.0,0.0,0.0,0.0,0.0,0.0,0.0,0.0,0.0,0.0,0.0,0.0,0.0,0.0,0.0,0.0,0.0,0.0,0.0,0.0,0.0,0.0,0.0,0.0,0.0,0.0,0.0,0.0,0.0,0.0,0.0,0.0,0.0,0.0,0.0,0.0,0.0,0.0,0.0,0.0,0.0,0.0,0.0,0.0,0.0,0.0,0.0,0.0,0.0,0.0,0.0,0.0,0.0,0.0,0.0,0.0,0.0,0.0,0.0,0.0,0.0,0.0,0.0,0.0,0.0,0.0,0.0,0.0,0.0,0.0,0.0,0.0,0.0,0.0,0.0,0.0,0.0,0.0,0.0,0.0,0.0,0.0,0.0,0.0,0.0,0.0,0.0,0.0,0.0,0.0,0.0,0.0,0.0,0.0,0.0,0.0,0.0,0.0,0.0,0.0,0.0,0.0,0.0,0.0,0.0,0.0,0.0,0.0,0.0,0.0,0.0,0.0,0.0,0.0,0.0,0.0,0.0,0.0,0.0,0.0,0.0,0.0,0.0,0.0,0.0,0.0,0.0,0.0,0.0,0.0,0.0,0.0,0.0,0.0,0.0,0.0,0.0,0.0,0.0,0.0,0.0,0.0,0.0,0.0,0.0,0.0,0.0,0.0,0.0,0.0,0.0,0.0,0.0,0.0,0.0,0.0,0.0,0.0,0.0,0.0,0.0,0.0,0.0,0.0,0.0,0.0,0.0,0.0,0.0,0.0,0.0,0.0,0.0,0.0,0.0,0.0,0.0,0.0,0.0,0.0,0.0,0.0,0.0,0.0,0.0,0.0,0.0,0.0,0.0,0.0,0.0,0.0,0.0,0.0,0.0,0.0,0.0,0.0,0.0,0.0,0.0,0.0,0.0,0.0,0.0,0.0,0.0,0.0,0.0,0.0,0.0,0.0,0.0,0.0,0.0,0.0,0.0,0.0,0.0,0.0,0.0,0.0,0.0,0.0,0.0,0.0,0.0,0.0,0.0,0.0,0.0,0.0,0.0,0.0,0.0,0.0,0.0,0.0,0.0,0.0,0.0,0.0,0.0,0.0,0.0,0.0,0.0,0.0,0.0,0.0,0.0,0.0,0.0,0.0,0.0,0.0,0.6156,0.0,0.0,0.0,0.0,0.0,0.0,0.0,0.0,0.0,0.0,0.0,0.0,0.0,0.0,0.0,0.0,0.0,0.0,0.0,0.0,0.0,0.0,0.0,0.0,0.0,0.0,0.0,0.0,0.0,0.0,0.0,0.0,0.0,0.0,0.0,0.0,0.0,0.0,0.0,0.0,0.0,0.0,0.0,0.0,0.0,0.0,0.0,0.0,0.0,0.0,0.0,0.0,0.0,0.0,0.0,0.0,0.0,0.0,0.0,0.0,0.0,0.0,0.0,0.0,0.0,0.0,0.0,0.0,0.0,0.0,0.0,0.0,0.0,0.0,0.0,0.0,0.0,0.0,0.0,0.0,0.0,0.0,0.0,0.0,0.0,0.0,0.0,0.0,0.0,0.0,0.0,0.0,0.0,0.0,0.0,0.0,0.0,0.0,0.0,0.0,0.0,0.0,0.0,0.0,0.0,0.0,0.0,0.0,0.0,0.0,0.5338,0.5328,0.5795,0.6103,0.6201,0.0,0.0,0.0,0.0,0.0,0.0,0.0,0.0,0.0,0.0,0.0,0.0,0.0,0.0,0.0,0.0,0.0,0.0,0.0,0.0,0.0,0.0,0.0,0.0,0.0,0.0,0.0,0.0,0.0,0.0,0.0,0.0,0.0,0.0,0.0,0.0,0.0,0.0,0.0,0.0,0.0,0.0,0.0,0.0,0.0,0.0,0.0,0.0,0.0,0.0,0.0,0.0,0.0,0.0,0.0,0.0,0.0,0.0,0.0,0.0,0.0,0.0,0.0,0.0,0.0,0.0,0.0,0.0,0.0,0.0,0.0,0.0,0.0,0.0,0.0,0.0,0.0,0.0,0.0,0.0,0.0,0.0,0.0,0.0,0.0,0.0,0.0,0.0,0.0,0.0,0.0,0.0,0.0,0.0,0.0,0.0,0.0,0.0,0.0,0.0,0.0,0.0,0.0,0.0,0.0,0.0,0.0,0.0,0.0,0.0,0.0,0.0,0.6398,0.6612,0.669,0.0,0.0,0.0,0.0,0.0,0.0,0.0,0.0,0.0,0.0,0.0,0.0,0.0,0.0,0.0,0.0,0.0,0.0,0.0,0.0,0.0,0.0,0.0,0.0,0.0,0.0,0.0,0.0,0.0,0.0,0.0,0.0,0.0,0.0,0.0,0.0,0.0,0.0,0.0,0.0,0.0,0.0,0.0,0.0,0.0,0.0,0.0,0.0,0.0,0.0,0.0,0.0,0.0,0.0,0.0,0.0,0.0,0.0,0.0,0.0,0.0,0.0,0.0,0.0,0.0,0.0,0.0,0.0,0.0,0.0,0.0,0.0,0.0,0.0,0.0,0.0,0.0,0.0,0.0,0.0,0.0,0.0,0.0,0.0,0.0,0.0,0.0,0.0,0.0,0.0,0.0,0.0,0.0,0.0,0.0,0.0,0.0,0.0,0.0,0.0,0.0,0.0,0.0,0.0,0.0,0.0,0.0,0.0,0.0,0.0,0.6463,0.7644,0.7711,0.0,0.8095,0.0,0.0,0.0,0.0,0.0,0.0,0.0,0.0,0.0,0.0,0.0,0.0,0.0,0.0,0.0,0.0,0.0,0.0,0.0,0.0,0.0,0.0,0.0,0.0,0.0,0.0,0.0,0.0,0.0,0.0,0.0,0.0,0.0,0.0,0.0,0.0,0.0,0.0,0.0,0.0,0.0,0.0,0.0,0.0,0.0,0.0,0.0,0.0,0.0,0.0,0.0,0.0,0.0,0.0,0.0,0.0,0.0,0.0,0.0,0.0,0.0,0.0,0.0,0.0,0.0,0.0,0.0,0.0,0.0,0.0,0.0,0.0,0.0,0.0,0.0,0.0,0.0,0.0,0.0,0.0,0.0,0.0,0.0,0.0,0.0,0.0,0.0,0.0,0.0,0.0,0.0,0.0,0.0,0.0,0.0,0.0,0.0,0.0,0.0,0.0,0.0,0.0,0.0,0.0,0.0,0.0,0.0,0.0,0.0,0.0,0.7437,0.7666,0.7967,0.8189,0.0,0.0,0.0,0.0,0.0,0.0,0.0,0.0,0.0,0.0,0.0,0.0,0.0,0.0,0.0,0.0,0.0,0.0,0.0,0.0,0.0,0.0,0.0,0.0,0.0,0.0,0.0,0.0,0.0,0.0,0.0,0.0,0.0,0.0,0.0,0.0,0.0,0.0,0.0,0.0,0.0,0.0,0.0,0.0,0.0,0.0,0.0,0.0,0.0,0.0,0.0,0.0,0.0,0.0,0.0,0.0,0.0,0.0,0.0,0.0,0.0,0.0,0.0,0.0,0.0,0.0,0.0,0.0,0.0,0.0,0.0,0.0,0.0,0.0,0.0,0.0,0.0,0.0,0.0,0.0,0.0,0.0,0.0,0.0,0.0,0.0,0.0,0.0,0.0,0.0,0.0,0.0,0.0,0.0,0.0,0.0,0.0,0.0,0.0,0.0,0.0,0.0,0.0,0.0,0.0,0.0,0.0,0.0,0.0,0.0,0.7619,0.0,0.8181,0.8543,0.8601,0.8311,0.0,0.0,0.0,0.0,0.0,0.0,0.0,0.0,0.0,0.0,0.0,0.0,0.0,0.0,0.0,0.0,0.0,0.0,0.0,0.0,0.0,0.0,0.0,0.0,0.0,0.0,0.0,0.0,0.0,0.0,0.0,0.0,0.0,0.0,0.0,0.0,0.0,0.0,0.0,0.0,0.0,0.0,0.0,0.0,0.0,0.0,0.0,0.0,0.0,0.0,0.0,0.0,0.0,0.0,0.0,0.0,0.0,0.0,0.0,0.0,0.0,0.0,0.0,0.0,0.0,0.0,0.0,0.0,0.0,0.0,0.0,0.0,0.0,0.0,0.0,0.0,0.0,0.0,0.0,0.0,0.0,0.0,0.0,0.0,0.0,0.0,0.0,0.0,0.0,0.0,0.0,0.0,0.0,0.0,0.0,0.0,0.0,0.0,0.0,0.0,0.0,0.0,0.0,0.0,0.0,0.0,0.0,0.0,0.0,0.8311,0.8777,0.9729,0.9792,0.9353,0.0,0.0,0.0,0.0,0.0,0.0,0.0,0.0,0.0,0.0,0.0,0.0,0.0,0.0,0.0,0.0,0.0,0.0,0.0,0.0,0.0,0.0,0.0,0.0,0.0,0.0,0.0,0.0,0.0,0.0,0.0,0.0,0.0,0.0,0.0,0.0,0.0,0.0,0.0,0.0,0.0,0.0,0.0,0.0,0.0,0.0,0.0,0.0,0.0,0.0,0.0,0.0,0.0,0.0,0.0,0.0,0.0,0.0,0.0,0.0,0.0,0.0,0.0,0.0,0.0,0.0,0.0,0.0,0.0,0.0,0.0,0.0,0.0,0.0,0.0,0.0,0.0,0.0,0.0,0.0,0.0,0.0,0.0,0.0,0.0,0.0,0.0,0.0,0.0,0.0,0.0,0.0,0.0,0.0,0.0,0.0,0.0,0.0,0.0,0.0,0.0,0.0,0.0,0.0,0.0,0.0,0.0,0.0,0.0,0.6574,0.7248,0.8607,1.0567,0.9378,0.8836,0.0,0.0,0.0,0.0,0.0,0.0,0.0,0.0,0.0,0.0,0.0,0.0,0.0,0.0,0.0,0.0,0.0,0.0,0.0,0.0,0.0,0.0,0.0,0.0,0.0,0.0,0.0,0.0,0.0,0.0,0.0,0.0,0.0,0.0,0.0,0.0,0.0,0.0,0.0,0.0,0.0,0.0,0.0,0.0,0.0,0.0,0.0,0.0,0.0,0.0,0.0,0.0,0.0,0.0,0.0,0.0,0.0,0.0,0.0,0.0,0.0,0.0,0.0,0.0,0.0,0.0,0.0,0.0,0.0,0.0,0.0,0.0,0.0,0.0,0.0,0.0,0.0,0.0,0.0,0.0,0.0,0.0,0.0,0.0,0.0,0.0,0.0,0.0,0.0,0.0,0.0,0.0,0.0,0.0,0.0,0.0,0.0,0.0,0.0,0.0,0.0,0.0,0.0,0.0,0.0,0.0,0.0,0.0,0.0,0.6576,0.0,0.8753,0.0,0.9111,0.8476,0.0,0.0,0.0,0.0,0.0,0.0,0.0,0.0,0.0,0.0,0.0,0.0,0.0,0.0,0.0,0.0,0.0,0.0,0.0,0.0,0.0,0.0,0.0,0.0,0.0,0.0,0.0,0.0,0.0,0.0,0.0,0.0,0.0,0.0,0.0,0.0,0.0,0.0,0.0,0.0,0.0,0.0,0.0,0.0,0.0,0.0,0.0,0.0,0.0,0.0,0.0,0.0,0.0,0.0,0.0,0.0,0.0,0.0,0.0,0.0,0.0,0.0,0.0,0.0,0.0,0.0,0.0,0.0,0.0,0.0,0.0,0.0,0.0,0.0,0.0,0.0,0.0,0.0,0.0,0.0,0.0,0.0,0.0,0.0,0.0,0.0,0.0,0.0,0.0,0.0,0.0,0.0,0.0,0.0,0.0,0.0,0.0,0.0,0.0,0.0,0.0,0.0,0.0,0.0,0.0,0.0,0.0,0.0,0.6824,0.8612,0.9062,0.9234,0.9224,0.9148,0.8359,0.0,0.0,0.0,0.0,0.0,0.0,0.0,0.0,0.0,0.0,0.0,0.0,0.0,0.0,0.0,0.0,0.0,0.0,0.0,0.0,0.0,0.0,0.0,0.0,0.0,0.0,0.0,0.0,0.0,0.0,0.0,0.0,0.0,0.0,0.0,0.0,0.0,0.0,0.0,0.0,0.0,0.0,0.0,0.0,0.0,0.0,0.0,0.0,0.0,0.0,0.0,0.0,0.0,0.0,0.0,0.0,0.0,0.0,0.0,0.0,0.0,0.0,0.0,0.0,0.0,0.0,0.0,0.0,0.0,0.0,0.0,0.0,0.0,0.0,0.0,0.0,0.0,0.0,0.0,0.0,0.0,0.0,0.0,0.0,0.0,0.0,0.0,0.0,0.0,0.0,0.0,0.0,0.0,0.0,0.0,0.0,0.0,0.0,0.0,0.0,0.0,0.0,0.0,0.0,0.0,0.0,0.0,0.0,0.0,0.66,0.7491,0.8441,0.9383,0.8399,0.8147,0.0,0.0,0.0,0.0,0.0,0.0,0.0,0.0,0.0,0.0,0.0,0.0,0.0,0.0,0.0,0.0,0.0,0.0,0.0,0.0,0.0,0.0,0.0,0.0,0.0,0.0,0.0,0.0,0.0,0.0,0.0,0.0,0.0,0.0,0.0,0.0,0.0,0.0,0.0,0.0,0.0,0.0,0.0,0.0,0.0,0.0,0.0,0.0,0.0,0.0,0.0,0.0,0.0,0.0,0.0,0.0,0.0,0.0,0.0,0.0,0.0,0.0,0.0,0.0,0.0,0.0,0.0,0.0,0.0,0.0,0.0,0.0,0.0,0.0,0.0,0.0,0.0,0.0,0.0,0.0,0.0,0.0,0.0,0.0,0.0,0.0,0.0,0.0,0.0,0.0,0.0,0.0,0.0,0.0,0.0,0.0,0.0,0.0,0.0,0.0,0.0,0.0,0.0,0.0,0.0,0.0,0.0,0.0,0.0,0.6206,0.7434,0.8533,0.9344,0.8374,0.8182,0.8868,0.0,0.0,0.0,0.0,0.0,0.0,0.0,0.0,0.0,0.0,0.0,0.0,0.0,0.0,0.0,0.0,0.0,0.0,0.0,0.0,0.0,0.0,0.0,0.0,0.0,0.0,0.0,0.0,0.0,0.0,0.0,0.0,0.0,0.0,0.0,0.0,0.0,0.0,0.0,0.0,0.0,0.0,0.0,0.0,0.0,0.0,0.0,0.0,0.0,0.0,0.0,0.0,0.0,0.0,0.0,0.0,0.0,0.0,0.0,0.0,0.0,0.0,0.0,0.0,0.0,0.0,0.0,0.0,0.0,0.0,0.0,0.0,0.0,0.0,0.0,0.0,0.0,0.0,0.0,0.0,0.0,0.0,0.0,0.0,0.0,0.0,0.0,0.0,0.0,0.0,0.0,0.0,0.0,0.0,0.0,0.0,0.0,0.0,0.0,0.0,0.0,0.0,0.0,0.0,0.0,0.0,0.0,0.0,0.7035,0.8649,0.9373,0.9112,0.8961,0.8516,0.0,0.0,0.0,0.0,0.0,0.0,0.0,0.0,0.0,0.0,0.0,0.0,0.0,0.0,0.0,0.0,0.0,0.0,0.0,0.0,0.0,0.0,0.0,0.0,0.0,0.0,0.0,0.0,0.0,0.0,0.0,0.0,0.0,0.0,0.0,0.0,0.0,0.0,0.0,0.0,0.0,0.0,0.0,0.0,0.0,0.0,0.0,0.0,0.0,0.0,0.0,0.0,0.0,0.0,0.0,0.0,0.0,0.0,0.0,0.0,0.0,0.0,0.0,0.0,0.0,0.0,0.0,0.0,0.0,0.0,0.0,0.0,0.0,0.0,0.0,0.0,0.0,0.0,0.0,0.0,0.0,0.0,0.0,0.0,0.0,0.0,0.0,0.0,0.0,0.0,0.0,0.0,0.0,0.0,0.0,0.0,0.0,0.0,0.0,0.0,0.0,0.0,0.0,0.0,0.0,0.0,0.0,0.0,0.0,0.7415,0.8901,0.9818,1.0015,0.93,0.9184,0.0,0.0,0.0,0.0,0.0,0.0,0.0,0.0,0.0,0.0,0.0,0.0,0.0,0.0,0.0,0.0,0.0,0.0,0.0,0.0,0.0,0.0,0.0,0.0,0.0,0.0,0.0,0.0,0.0,0.0,0.0,0.0,0.0,0.0,0.0,0.0,0.0,0.0,0.0,0.0,0.0,0.0,0.0,0.0,0.0,0.0,0.0,0.0,0.0,0.0,0.0,0.0,0.0,0.0,0.0,0.0,0.0,0.0,0.0,0.0,0.0,0.0,0.0,0.0,0.0,0.0,0.0,0.0,0.0,0.0,0.0,0.0,0.0,0.0,0.0,0.0,0.0,0.0,0.0,0.0,0.0,0.0,0.0,0.0,0.0,0.0,0.0,0.0,0.0,0.0,0.0,0.0,0.0,0.0,0.0,0.0,0.0,0.0,0.0,0.0,0.0,0.0,0.0,0.0,0.0,0.0,0.0,0.0,0.7787,0.8057,0.917,1.0118,1.0772,1.0398,1.0223,0.0,0.0,0.0,0.0,0.0,0.0,0.0,0.0,0.0,0.0,0.0,0.0,0.0,0.0,0.0,0.0,0.0,0.0,0.0,0.0,0.0,0.0,0.0,0.0,0.0,0.0,0.0,0.0,0.0,0.0,0.0,0.0,0.0,0.0,0.0,0.0,0.0,0.0,0.0,0.0,0.0,0.0,0.0,0.0,0.0,0.0,0.0,0.0,0.0,0.0,0.0,0.0,0.0,0.0,0.0,0.0,0.0,0.0,0.0,0.0,0.0,0.0,0.0,0.0,0.0,0.0,0.0,0.0,0.0,0.0,0.0,0.0,0.0,0.0,0.0,0.0,0.0,0.0,0.0,0.0,0.0,0.0,0.0,0.0,0.0,0.0,0.0,0.0,0.0,0.0,0.0,0.0,0.0,0.0,0.0,0.0,0.0,0.0,0.0,0.0,0.0,0.0,0.0,0.0,0.0,0.0,0.0,0.0,0.8528,0.8804,0.9546,1.0394,1.1264,1.176,1.1413,0.0,0.0,0.0,0.0,0.0,0.0,0.0,0.0,0.0,0.0,0.0,0.0,0.0,0.0,0.0,0.0,0.0,0.0,0.0,0.0,0.0,0.0,0.0,0.0,0.0,0.0,0.0,0.0,0.0,0.0,0.0,0.0,0.0,0.0,0.0,0.0,0.0,0.0,0.0,0.0,0.0,0.0,0.0,0.0,0.0,0.0,0.0,0.0,0.0,0.0,0.0,0.0,0.0,0.0,0.0,0.0,0.0,0.0,0.0,0.0,0.0,0.0,0.0,0.0,0.0,0.0,0.0,0.0,0.0,0.0,0.0,0.0,0.0,0.0,0.0,0.0,0.0,0.0,0.0,0.0,0.0,0.0,0.0,0.0,0.0,0.0,0.0,0.0,0.0,0.0,0.0,0.0,0.0,0.0,0.0,0.0,0.0,0.0,0.0,0.0,0.0,0.0,0.0,0.0,0.0,0.0,0.0,0.0,0.8998,0.8837,1.0227,1.1072,1.1278,1.176,1.1836,0.0,0.0,0.0,0.0,0.0,0.0,0.0,0.0,0.0,0.0,0.0,0.0,0.0,0.0,0.0,0.0,0.0,0.0,0.0,0.0,0.0,0.0,0.0,0.0,0.0,0.0,0.0,0.0,0.0,0.0,0.0,0.0,0.0,0.0,0.0,0.0,0.0,0.0,0.0,0.0,0.0,0.0,0.0,0.0,0.0,0.0,0.0,0.0,0.6638,0.0,0.0,0.0,0.0,0.0,0.0,0.0,0.0,0.0,0.0,0.0,0.0,0.0,0.0,0.0,0.0,0.0,0.0,0.0,0.0,0.0,0.0,0.0,0.0,0.0,0.0,0.0,0.0,0.0,0.0,0.0,0.0,0.0,0.0,0.0,0.0,0.0,0.0,0.0,0.0,0.0,0.0,0.0,0.0,0.0,0.0,0.0,0.0,0.0,0.0,0.0,0.0,0.0,0.0,0.0,0.0,0.0,0.0,0.0,0.9849,0.9828,1.077,1.1529,1.2039,1.2837,1.2834,0.0,0.0,0.0,0.0,0.0,0.0,0.0,0.0,0.0,0.0,0.0,0.0,0.0,0.0,0.0,0.0,0.0,0.0,0.0,0.0,0.0,0.0,0.0,0.0,0.0,0.0,0.0,0.0,0.0,0.0,0.0,0.0,0.0,0.0,0.0,0.0,0.0,0.0,0.0,0.0,0.0,0.0,0.0,0.0,0.0,0.0,0.0,0.0,0.0,0.0,0.0,0.0,0.0,0.0,0.0,0.0,0.0,0.0,0.0,0.0,0.0,0.0,0.0,0.0,0.0,0.0,0.0,0.0,0.0,0.0,0.0,0.0,0.0,0.0,0.0,0.0,0.0,0.0,0.0,0.0,0.0,0.0,0.0,0.0,0.0,0.0,0.0,0.0,0.0,0.0,0.0,0.0,0.0,0.0,0.0,0.0,0.0,0.0,0.0,0.0,0.0,0.0,0.0,0.0,0.0,0.0,0.0,0.9775,1.0771,1.1051,1.1445,1.2071,1.2896,1.4121,1.39,1.2059,0.0,0.0,0.0,0.0,0.0,0.0,0.0,0.0,0.0,0.0,0.0,0.0,0.0,0.0,0.0,0.0,0.0,0.0,0.0,0.0,0.0,0.0,0.0,0.0,0.0,0.0,0.0,0.0,0.0,0.0,0.0,0.0,0.0,0.0,0.0,0.0,0.0,0.0,0.6812,0.759,0.0,0.0,0.0,0.0,0.0,0.0,0.0,0.0,0.7759,0.0,0.0,0.0,0.0,0.0,0.0,0.0,0.0,0.0,0.0,0.0,0.0,0.0,0.0,0.0,0.0,0.0,0.0,0.0,0.0,0.0,0.0,0.0,0.0,0.0,0.0,0.0,0.0,0.0,0.0,0.0,0.0,0.0,0.0,0.0,0.0,0.0,0.0,0.0,0.0,0.0,0.0,0.0,0.0,0.0,0.0,0.0,0.0,0.0,0.0,0.0,0.0,0.0,0.0,0.0,0.0,1.0087,1.0647,1.1192,1.1731,1.2716,1.3107,1.295,1.4397,1.4281,1.2389,0.0,0.0,0.0,0.0,0.0,0.0,0.0,0.0,0.0,0.0,0.0,0.0,0.0,0.0,0.0,0.0,0.0,0.0,0.0,0.0,0.0,0.0,0.0,0.0,0.0,0.0,0.0,0.0,0.0,0.0,0.0,0.0,0.0,0.0,0.0,0.0,0.0,0.0,0.0,0.7681,0.7904,0.0,0.0,0.0,0.0,0.0,0.0,0.0,0.0,0.7291,0.0,0.0,0.0,0.0,0.0,0.0,0.0,0.0,0.0,0.0,0.0,0.0,0.0,0.0,0.0,0.0,0.0,0.0,0.0,0.0,0.0,0.0,0.0,0.0,0.0,0.0,0.0,0.0,0.0,0.0,0.0,0.0,0.0,0.0,0.0,0.0,0.0,0.0,0.0,0.0,0.0,0.0,0.0,0.0,0.0,0.0,0.0,0.0,0.0,0.0,0.0,0.0,0.0,0.0,0.0,0.9948,1.1267,1.2158,1.2531,1.3213,1.3587,1.353,1.4146,1.3775,0.0,0.0,0.0,0.0,0.0,0.0,0.0,0.0,0.0,0.0,0.0,0.0,0.0,0.0,0.0,0.0,0.0,0.0,0.0,0.0,0.0,0.0,0.0,0.0,0.0,0.0,0.0,0.0,0.0,0.0,0.0,0.0,0.0,0.0,0.0,0.0,0.0,0.0,0.0,0.0,0.8255,0.8547,0.8234,0.0,0.0,0.0,0.0,0.0,0.0,0.7924,0.7671,0.0,0.0,0.0,0.0,0.0,0.0,0.0,0.0,0.0,0.0,0.0,0.0,0.0,0.0,0.0,0.0,0.0,0.0,0.0,0.0,0.0,0.0,0.0,0.0,0.0,0.0,0.0,0.0,0.0,0.0,0.0,0.0,0.0,0.0,0.0,0.0,0.0,0.0,0.0,0.0,0.0,0.0,0.0,0.0,0.0,0.0,0.0,0.0,0.0,0.0,0.0,0.0,0.0,0.0,0.0,0.9574,1.1743,1.304,1.3313,1.3736,1.4007,1.4114,1.4145,1.3564,0.0,0.0,0.0,0.0,0.0,0.0,0.0,0.0,0.0,0.0,0.0,0.0,0.0,0.0,0.0,0.0,0.0,0.0,0.0,0.0,0.0,0.0,0.0,0.0,0.0,0.0,0.0,0.0,0.0,0.0,0.0,0.0,0.0,0.0,0.0,0.0,0.0,0.0,0.0,0.0,0.0,0.911,0.8668,0.8541,0.0,0.0,0.0,0.0,0.8379,0.8215,0.0,0.0,0.0,0.0,0.0,0.0,0.0,0.0,0.0,0.0,0.0,0.0,0.0,0.0,0.0,0.0,0.0,0.0,0.0,0.0,0.0,0.0,0.0,0.0,0.0,0.0,0.0,0.0,0.0,0.0,0.0,0.0,0.0,0.0,0.0,0.0,0.0,0.0,0.0,0.0,0.0,0.0,0.0,0.0,0.0,0.0,0.0,0.0,0.0,0.0,0.0,0.0,0.0,0.0,0.0,0.0,1.0196,1.1966,1.3227,1.3961,1.4781,1.4848,1.4133,1.5139,1.4665,0.0,0.0,0.0,0.0,0.0,0.0,0.0,0.0,0.0,0.0,0.0,0.0,0.0,0.0,0.0,0.0,0.0,0.0,0.0,0.0,0.0,0.0,0.0,0.0,0.0,0.0,0.0,0.0,0.0,0.0,0.0,0.0,0.0,0.0,0.0,0.0,0.0,0.0,0.0,0.0,0.0,0.8844,0.7821,0.8158,0.8354,0.0,0.0,0.8088,0.8366,0.8227,0.0,0.0,0.0,0.0,0.0,0.0,0.0,0.0,0.0,0.0,0.0,0.0,0.0,0.0,0.0,0.0,0.0,0.0,0.0,0.0,0.0,0.0,0.0,0.0,0.0,0.0,0.0,0.0,0.0,0.0,0.0,0.0,0.0,0.0,0.0,0.0,0.0,0.0,0.0,0.0,0.0,0.0,0.0,0.0,0.0,0.0,0.0,0.0,0.0,0.0,0.0,0.0,0.0,0.0,0.0,0.9674,1.0665,1.2588,1.3887,1.4492,1.5069,1.4972,1.4124,1.4704,1.4105,0.0,0.0,0.0,0.0,0.0,0.0,0.0,0.0,0.0,0.0,0.0,0.0,0.0,0.0,0.0,0.0,0.0,0.0,0.0,0.0,0.0,0.0,0.0,0.0,0.0,0.0,0.0,0.0,0.0,0.0,0.0,0.0,0.0,0.0,0.0,0.0,0.0,0.0,0.0,0.0,0.0,0.0,0.8357,0.8368,0.0,0.0,0.0,0.8479,0.8407,0.0,0.0,0.0,0.0,0.0,0.0,0.0,0.0,0.0,0.0,0.0,0.0,0.0,0.0,0.0,0.0,0.0,0.0,0.0,0.0,0.0,0.0,0.0,0.0,0.0,0.0,0.0,0.0,0.0,0.0,0.0,0.0,0.0,0.0,0.0,0.0,0.0,0.0,0.0,0.0,0.0,0.0,0.0,0.0,0.0,0.0,0.0,0.0,0.0,0.0,0.0,0.0,0.0,0.0,0.0,0.0,0.0,1.0908,1.3012,1.4319,1.4803,1.5186,1.4972,1.4133,1.451,0.0,0.0,0.0,0.0,0.0,0.0,0.0,0.0,0.0,0.0,0.0,0.0,0.0,0.0,0.0,0.0,0.0,0.0,0.0,0.0,0.0,0.0,0.0,0.0,0.0,0.0,0.0,0.5574,0.0,0.0,0.0,0.0,0.0,0.0,0.0,0.0,0.0,0.0,0.0,0.0,0.0,0.0,0.9204,0.8849,0.8744,0.873,0.0,0.0,0.8844,0.8624,0.9061,0.9321,0.0,0.0,0.0,0.0,0.0,0.0,0.0,0.0,0.0,0.0,0.0,0.0,0.0,0.0,0.0,0.0,0.0,0.0,0.0,0.0,0.0,0.0,0.0,0.0,0.0,0.0,0.0,0.0,0.0,0.0,0.0,0.0,0.0,0.0,0.0,0.0,0.0,0.0,0.0,0.0,0.0,0.0,0.0,0.0,0.0,0.0,0.0,0.0,0.0,0.0,0.0,0.0,0.0,0.0,0.0,1.0928,1.3012,1.4319,1.4813,1.5195,1.5,1.4133,1.526,1.4618,0.0,0.0,0.0,0.0,0.0,0.0,0.0,0.0,0.0,0.0,0.0,0.0,0.0,0.0,0.0,0.0,0.0,0.0,0.0,0.0,0.0,0.0,0.0,0.0,0.0,0.0,0.0,0.0,0.0,0.0,0.0,0.0,0.0,0.0,0.0,0.0,0.0,0.0,0.0,0.0,0.0,0.8843,0.8804,0.9259,0.9621,0.0,0.0,0.9171,0.9158,0.8998,0.9001,0.9384,0.0,0.0,0.0,0.0,0.0,0.0,0.0,0.0,0.0,0.0,0.0,0.0,0.0,0.0,0.0,0.0,0.0,0.0,0.0,0.0,0.0,0.0,0.0,0.0,0.0,0.0,0.0,0.0,0.0,0.0,0.0,0.0,0.0,0.0,0.0,0.0,0.0,0.0,0.0,0.0,0.0,0.0,0.0,0.0,0.0,0.0,0.0,0.0,0.0,0.0,0.0,0.0,0.0,1.0364,1.1687,1.3285,1.4445,1.5146,1.5332,1.4981,1.4133,1.4966,1.4383,0.0,0.0,0.0,0.0,0.0,0.0,0.0,0.0,0.0,0.0,0.0,0.0,0.0,0.0,0.0,0.0,0.0,0.0,0.0,0.0,0.0,0.0,0.0,0.0,0.0,0.0,0.0,0.0,0.6379,0.6729,0.6789,0.0,0.0,0.0,0.0,0.0,0.0,0.0,0.0,0.0,0.0,0.9298,0.9348,0.9539,0.0,0.0,0.9733,0.969,0.9539,0.9771,0.9879,0.962,0.9636,0.0,0.0,0.0,0.0,0.0,0.0,0.0,0.0,0.0,0.0,0.0,0.0,0.0,0.0,0.0,0.0,0.0,0.0,0.0,0.0,0.0,0.0,0.0,0.0,0.0,0.0,0.0,0.0,0.0,0.0,0.0,0.0,0.0,0.0,0.0,0.0,0.0,0.0,0.0,0.0,0.0,0.0,0.0,0.0,0.0,0.0,0.0,0.0,0.0,0.0,0.0,0.0,1.0709,1.2184,1.3461,1.4513,1.5391,1.542,1.504,1.4365,1.4822,1.4244,0.0,0.0,0.0,0.0,0.0,0.0,0.0,0.0,0.0,0.0,0.0,0.0,0.0,0.0,0.0,0.0,0.0,0.0,0.0,0.0,0.0,0.0,0.0,0.0,0.0,0.0,0.0,0.0,0.6608,0.6914,0.6708,0.0,0.0,0.0,0.0,0.0,0.0,0.0,0.0,0.0,0.0,0.9666,0.9798,0.9893,0.9976,0.9947,1.0047,0.999,0.9733,1.0106,1.0213,0.969,0.0,0.0,0.0,0.0,0.0,0.0,0.0,0.0,0.0,0.0,0.0,0.0,0.0,0.0,0.0,0.0,0.0,0.0,0.0,0.0,0.0,0.0,0.0,0.0,0.0,0.0,0.0,0.8095,0.0,0.0,0.7254,0.0,0.0,0.0,0.0,0.0,0.0,0.0,0.0,0.0,0.0,0.0,0.0,0.0,0.0,0.0,0.0,0.0,0.0,0.0,0.0,0.0,0.0,1.1146,1.2203,1.348,1.4533,1.5381,1.542,1.5195,1.4803,1.4975,1.4349,1.2794,0.0,0.0,0.0,0.0,0.0,0.0,0.0,0.0,0.0,0.0,0.0,0.0,0.0,0.0,0.0,0.0,0.0,0.0,0.0,0.0,0.0,0.0,0.0,0.0,0.0,0.0,0.7066,0.6771,0.6478,0.0,0.0,0.0,0.0,0.0,0.0,0.0,0.0,0.0,0.0,0.9173,0.9802,1.0074,1.0392,1.0566,1.0573,1.0314,1.0033,0.9789,0.9751,0.9699,0.0,0.0,0.0,0.0,0.0,0.0,0.0,0.0,0.0,0.0,0.0,0.0,0.0,0.0,0.0,0.0,0.0,0.0,0.0,0.0,0.0,0.0,0.0,0.0,0.0,0.0,0.0,1.0782,0.9746,0.0,0.0,0.0,0.0,0.0,0.0,0.0,0.0,0.0,0.0,0.0,1.3017,1.3459,0.0,0.0,0.0,0.0,0.0,0.0,0.0,0.0,0.0,0.0,0.0,0.0,1.2048,1.3062,1.4062,1.4844,1.5391,1.542,1.5215,1.4823,1.4555,1.3611,1.1866,0.0,0.0,0.0,0.0,0.0,0.0,0.0,0.0,0.0,0.0,0.0,0.0,0.0,0.0,0.0,0.0,0.0,0.0,0.0,0.0,0.0,0.0,0.0,0.0,0.0,0.6733,0.0,0.0,0.0,0.0,0.0,0.0,0.0,0.0,0.0,0.0,0.0,0.8824,0.922,0.9666,1.0154,1.0635,1.0788,1.0948,0.0,0.0,0.0,0.0,0.0,0.0,0.0,0.0,0.0,0.0,0.0,0.0,0.0,0.0,0.9816,0.7291,0.6731,0.6506,0.6143,0.0,0.0,0.0,0.0,0.0,0.0,0.0,0.0,0.0,0.0,0.0,0.0,0.0,0.0,1.269,0.0,1.2099,0.0,0.0,0.0,0.0,0.0,0.0,0.0,0.0,1.415,1.4615,1.4414,1.4814,1.4795,0.0,1.4357,1.3401,0.0,0.0,0.0,0.0,0.0,0.0,0.0,0.0,1.267,1.3502,1.4346,1.499,1.5391,1.542,1.5273,1.5038,1.4661,1.3706,1.2143,1.1719,1.1155,0.0,0.0,0.0,0.0,0.0,0.0,0.0,0.0,0.0,0.0,0.0,0.0,0.0,0.0,0.0,0.0,0.0,0.0,0.0,0.0,0.0,0.0,0.0,0.7116,0.0,0.0,0.0,0.0,0.0,0.0,0.0,0.0,0.0,0.885,0.9151,0.9584,1.01,1.0388,1.0683,1.1089,0.0,0.0,0.0,0.0,0.0,0.0,0.0,1.1087,1.0791,1.0843,1.0887,1.0757,1.0719,1.0669,1.0572,0.0,0.0,0.7894,0.7536,0.7409,0.6973,0.6987,0.6929,0.6533,0.6299,0.6027,0.0,0.0,0.0,0.0,0.0,0.0,0.0,0.0,1.4108,1.4518,0.0,1.4519,0.0,0.0,0.0,0.0,0.0,1.4272,0.0,0.0,1.6257,1.6848,1.6174,1.5762,1.5762,1.6153,1.6144,1.5704,1.4723,1.2498,0.0,0.0,0.0,0.0,0.0,0.0,1.3121,1.3594,1.4453,1.5059,1.543,1.5449,1.542,1.5361,1.5199,1.4628,1.3638,1.3183,1.2491,1.1437,1.0537,0.0,0.0,0.0,0.0,0.0,0.0,0.0,0.0,0.0,0.0,0.0,0.0,0.0,0.0,0.0,0.0,0.0,0.0,0.0,0.0,0.7373,0.0,0.0,0.0,0.0,0.0,0.0,0.0,0.0,0.0,0.0,1.0033,1.0087,1.0323,1.0922,0.0,0.0,0.0,0.0,1.1422,1.1483,1.1483,1.1396,1.1116,1.1276,1.1356,1.1122,0.0,0.0,1.1089,1.0579,1.0163,0.9845,0.9496,0.9296,1.0393,1.0363,1.0027,0.9105,0.8151,0.745,0.7015,0.6326,0.5591,1.9171,0.0,0.0,0.0,0.0,1.7672,1.8092,1.8539,1.9085,1.889,1.8222,1.7779,0.0,0.0,0.0,0.0,0.0,0.0,1.6158,1.6629,1.7411,1.7807,1.79,1.8086,1.8086,1.79,1.7598,1.7012,1.6122,1.5178,1.4068,1.2869,0.0,0.0,0.0,0.0,1.4764,1.4911,1.5703,1.62,1.6317,1.6035,1.5615,1.498,1.5046,1.4604,1.3556,1.3219,1.2711,1.1933,1.0701,0.0,0.0,0.0,0.0,0.0,0.0,0.0,0.0,0.0,0.0,0.0,0.0,0.0,0.0,0.0,0.0,0.0,0.0,0.0,0.7365,0.7906,0.8172,0.0,0.0,0.0,0.0,0.0,0.0,0.0,0.0,0.0,1.1283,1.0982,1.0882,0.0,0.0,1.1503,1.171,1.1917,1.2124,1.2375,1.2559,0.0,1.2321,1.2138,1.2024,1.1937,1.1997,1.2017,1.1937,1.1775,1.1657,1.1572,1.1444,1.138,1.1396,1.0309,0.931,0.8894,0.8602,0.8414,0.824,0.7467,0.6743,2.3376,2.1832,2.02,1.963,1.99,2.0207,2.0609,2.1045,2.1499,2.1567,2.1333,2.0822,2.0262,1.9584,1.8038,0.0,0.0,0.0,1.7916,1.8603,1.8526,1.8652,1.8906,1.917,1.915,1.8851,1.8643,1.8252,1.7734,1.7295,1.6558,1.5531,0.0,0.0,1.4764,1.5399,1.5719,1.5723,1.6336,1.6697,1.6687,1.6596,1.6195,1.5519,1.5764,1.5488,1.4603,1.4041,1.3436,1.2805,1.1532,1.0709,0.0,0.0,0.0,0.0,0.0,0.0,0.0,0.0,0.0,0.0,0.0,0.7945,0.6906,0.0,0.0,0.0,0.725,0.7783,0.8867,0.9228,0.0,0.0,0.0,0.0,0.0,0.0,0.0,1.0526,1.1073,1.1599,1.2016,1.1944,1.1937,1.2075,1.2101,1.2198,1.2378,0.0,1.2726,1.2945,1.3086,1.3146,1.2998,1.2779,1.2665,1.2665,1.2627,1.2659,1.2659,1.2659,1.2659,1.2659,1.2665,1.2612,1.2438,1.1347,1.041,1.0095,0.9708,0.9482,0.954,0.8479,0.7513,2.7077,2.6373,2.3331,2.1868,2.1644,2.1662,2.1962,2.2426,2.2402,2.3056,2.413,2.3521,2.3203,2.3049,2.1526,0.0,2.1234,2.0235,1.9956,2.0279,1.9782,1.9494,1.9531,1.9431,1.9431,1.9394,1.9355,1.9336,1.9307,1.8887,1.8547,1.8344,1.6606,1.5959,1.6415,1.6287,1.6193,1.6212,1.6611,1.6785,1.6746,1.7063,1.7005,1.6584,1.6899,1.6814,1.6204,1.5272,1.4491,1.3854,1.2806,1.1996,1.1596,0.0,0.0,0.0,0.0,0.0,0.0,0.0,0.0,0.0,0.0,0.0,0.0,0.0,0.0,0.0,0.9021,0.0,1.0767,1.0911,0.0,0.0,0.0,1.1021,1.0057,1.0836,1.1259,1.0825,0.0,0.0,1.2405,1.2899,1.3253,1.328,1.324,1.3206,1.3206,1.3206,1.3247,1.32,1.3273,1.3287,1.3307,1.3253,1.3213,1.3174,1.3227,1.318,1.3173,1.318,1.32,1.3173,1.32,1.3186,1.32,1.3048,1.2953,1.2072,1.1263,1.0693,1.0677,0.9337,0.8056,2.7833,2.7645,2.6854,2.6011,2.5265,2.5676,2.5925,2.6012,2.5614,2.5602,2.5845,2.4858,2.4043,2.3381,2.2978,2.2497,2.1955,2.2058,2.2129,2.2192,2.1613,2.1377,2.1339,2.0625,2.0302,2.0273,1.9922,1.9766,1.9746,1.9346,1.9095,1.9031,1.8576,1.7869,1.6913,1.7015,1.707,1.7103,1.749,1.7549,1.7227,1.7512,1.7486,1.7055,1.7081,1.6814,1.6216,1.5695,1.5118,1.4503,1.3448,1.3033,1.3324,1.1052,0.0,0.0,0.0,0.0,0.0,0.0,0.0,0.0,0.0,0.9915,0.8188,0.0,1.0008,0.0,1.0234,1.1082,1.0582,1.0978,0.0,0.0,1.1149,1.1423,1.1423,1.1628,1.1899,1.2251,1.2509,1.2857,1.3227,1.3413,1.3621,1.3834,1.3494,1.3206,1.3213,1.3407,1.3507,1.352,1.3721,1.3874,1.3848,1.3681,1.35,1.35,1.332,1.3213,1.3213,1.3206,1.3206,1.3206,1.3206,1.3206,1.3227,1.3206,1.316,1.2939,1.2693,1.2266,1.1494,1.0298,0.9143,2.885,2.885,2.885,2.8499,2.7934,2.7733,2.7645,2.762,2.7318,2.7228,2.7155,2.6553,2.599,2.555,2.555,2.5294,2.4838,2.4633,2.4543,2.4519,2.3778,2.3079,2.2429,2.2314,2.1694,2.0634,2.1196,2.1073,2.0262,2.0392,2.0182,1.9607,1.957,1.9045,1.8087,1.7961,1.7949,1.7939,1.7978,1.7803,1.7425,1.7654,1.7659,1.7359,1.7409,1.7214,1.674,1.623,1.569,1.5107,1.4022,1.3573,1.3893,1.1779,1.0657,0.0,0.0,0.0,0.0,0.0,0.0,0.0,0.0,0.0,0.0,0.0,1.1299,1.083,1.1969,1.2806,1.2941,1.2995,1.3098,1.3198,1.3256,1.3389,1.3697,1.3834,1.371,1.3182,1.3577,1.3896,1.3857,1.3841,1.3901,1.4062,1.3808,1.3601,1.3607,1.3748,1.3806,1.3813,1.3981,1.4088,1.4088,1.3948,1.3848,1.3786,1.3707,1.3601,1.3601,1.3601,1.3601,1.3601,1.3601,1.3601,1.3601,1.3601,1.3601,1.3601,1.3601,1.3251,1.2437,1.141,1.0474,2.9779,2.9779,2.9779,2.9779,2.9716,2.8737,2.8323,2.831,2.8235,2.8172,2.8109,2.8109,2.8109,2.8109,2.8109,2.8109,2.8036,2.7187,2.6801,2.6726,2.5816,2.4653,2.3408,2.4088,2.322,2.1113,2.2698,2.2525,2.0722,2.1504,2.1232,2.0048,2.0,1.9824,1.9443,1.8987,1.8705,1.8598,1.8188,1.7832,1.7504,1.7735,1.7768,1.7561,1.7762,1.7676,1.7251,1.6688,1.6135,1.5562,1.4518,1.3995,1.4027,1.2446,1.153,0.0,1.0379,0.0,0.0,0.0,0.0,0.0,0.0,0.0,0.0,1.2217,1.2808,1.3682,1.4143,1.4846,1.5944,1.5611,1.5548,1.6031,1.5798,1.5683,1.6062,1.6221,1.5724,1.414,1.4826,1.5138,1.4755,1.4416,1.4244,1.4477,1.435,1.4202,1.4188,1.4122,1.4062,1.4088,1.4088,1.4088,1.4088,1.4082,1.4068,1.4075,1.4055,1.4088,1.4055,1.4062,1.4068,1.4068,1.4041,1.4062,1.4088,1.4068,1.4068,1.4041,1.4035,1.3805,1.3116,1.2295,1.1757,2.9779,2.9779,2.9779,2.9779,2.9779,2.9566,2.9478,2.944,2.8976,2.8487,2.8109,2.8109,2.8109,2.8109,2.8109,2.8109,2.8109,2.7901,2.7828,2.7779,2.6801,2.6203,2.587,2.5283,2.4309,2.3041,2.3308,2.2666,2.1064,2.1253,2.1027,2.0449,2.0478,2.0439,2.0341,0.0,0.0,0.0,1.8232,1.7969,1.7915,1.8194,1.8155,1.7772,1.773,0.0,1.6487,1.6349,1.6021,1.5398,1.5042,0.0,0.0,0.0,0.0,0.0,0.0,0.0,0.0,0.0,0.0,0.0,1.3422,1.3315,1.3164,1.351,1.4094,1.501,1.6982,1.7494,1.578,1.6369,1.6572,1.6088,1.5653,1.5725,1.6583,1.6246,1.598,1.6547,1.6239,1.6312,1.6902,1.5879,1.5211,1.5908,1.5432,1.4885,1.4827,1.4389,1.4108,1.4088,1.4102,1.4088,1.4088,1.4088,1.4088,1.4088,1.4088,1.4088,1.4088,1.4088,1.4088,1.4088,1.4088,1.4088,1.4088,1.4088,1.4088,1.4088,1.4088,1.3747,1.2722,1.2355,1.1928,2.9779,0.0,2.9779,2.9779,0.0,2.9779,2.9779,2.9779,2.949,2.9189,2.8938,2.8938,2.8938,2.8938,2.8938,2.8938,2.8938,2.895,2.8938,2.8938,2.8409,2.778,2.7033,2.7045,2.6097,2.4377,2.4759,2.4364,2.3206,2.2817,2.2597,2.2412,2.2153,2.1783,2.1288,2.0345,1.96,1.8955,1.8535,1.8286,1.8291,1.8085,1.7868,1.7698,1.7532,0.0,0.0,0.0,0.0,0.0,0.0,0.0,0.0,0.0,0.0,1.3532,1.3283,1.3226,1.3417,1.3631,1.418,1.501,1.5488,1.5459,1.4852,1.5166,1.5742,1.6599,1.8291,1.8783,1.7546,1.7632,1.7795,1.7878,1.7463,1.7531,1.8464,1.8369,1.821,1.8318,1.8078,1.7794,1.7437,1.6614,1.5859,1.5866,1.5397,1.5022,1.4988,1.476,1.4532,1.4322,1.4168,1.4088,1.4088,1.4088,1.4095,1.4088,1.4088,1.4088,1.4088,1.4088,1.4088,1.4088,1.4088,1.4088,1.4088,1.4088,1.4088,1.4088,1.4088,1.3948,1.3294,1.3203,1.2857,2.9779,2.9779,2.9779,2.9779,2.9779,2.9779,2.9779,2.9779,0.0,0.0,0.0,2.9779,2.9779,2.9779,2.9779,2.9779,2.9779,2.9779,2.9779,2.9779,2.9779,2.913,2.7968,2.8684,2.7892,2.5833,2.6452,2.629,2.5323,2.4763,2.4467,2.443,2.3932,2.3075,2.1979,2.0858,2.0031,1.9539,1.8978,1.8715,1.8695,1.7998,1.7635,1.7675,1.7429,1.7035,1.6537,1.6721,1.6573,1.6044,1.5626,1.5341,1.5269,1.4745,1.4416,1.4358,1.4766,1.5048,1.5048,1.54,1.5869,1.6408,1.7148,1.7298,1.6496,1.6748,1.7282,1.8164,1.9014,1.9519,1.9414,1.9005,1.9048,1.9916,1.9459,1.9503,2.0488,2.0595,2.0261,2.0048,1.9847,1.9349,1.8154,1.7355,1.6721,1.5998,1.5558,1.511,1.5104,1.5062,1.4881,1.4629,1.4442,1.4275,1.4298,1.4318,1.4242,1.4338,1.4269,1.4242,1.4235,1.4197,1.4135,1.4289,1.4285,1.4262,1.4255,1.4282,1.4242,1.4242,1.4242,1.4285,1.4285,1.4242,1.3874,2.9792,2.9779,2.9779,2.9779,2.9779,2.9779,2.9779,2.9779,2.9779,2.9779,2.9779,2.9779,2.9779,2.9779,2.9779,2.9779,2.9779,2.9779,2.9779,2.9779,2.9779,2.9703,2.9512,2.9628,2.8959,2.7763,2.783,2.7119,2.5865,2.5633,2.5408,2.5047,2.4475,2.3479,2.2096,2.1824,2.1291,2.041,1.9637,1.9189,1.9189,1.8711,1.8252,1.7947,1.7682,1.7093,1.6228,1.6681,1.6689,1.6128,1.6335,1.6314,1.5969,1.5861,1.5615,1.5293,1.5644,1.5919,1.5928,1.6299,1.6863,1.7666,1.8184,1.8217,1.7793,1.7793,1.8184,1.9033,1.9891,2.0273,1.9912,2.0062,2.0275,2.043,1.9909,1.9959,2.0983,2.0665,2.0665,2.1387,2.0968,2.0931,2.1041,1.9215,1.798,1.8278,1.6754,1.5678,1.5678,1.5277,1.5028,1.4955,1.4914,1.4881,1.4821,1.4881,1.4834,1.4888,1.4847,1.4814,1.4807,1.4492,1.4385,1.478,1.4827,1.4847,1.4854,1.4888,1.4834,1.4821,1.4814,1.4834,1.4814,1.4821,1.4612,3.0495,3.0256,3.0244,3.0055,2.9779,2.9779,2.9779,2.9779,2.9779,2.9779,2.9779,2.9779,2.9779,2.9779,2.9779,2.9779,2.9779,2.9779,2.9779,2.9779,2.9779,2.9779,2.9779,2.9779,2.9546,2.8988,2.8386,2.8056,2.7881,2.7073,2.6804,2.7095,2.5822,2.4494,2.328,2.2418,2.1565,2.0624,1.9951,1.9619,1.9619,1.9209,1.8789,1.8325,1.7992,1.7521,1.6829,1.6823,1.6725,1.6426,1.6621,1.6609,1.6445,1.6426,1.6338,1.6132,1.6533,1.6809,1.6819,1.7402,1.8003,1.8652,1.8877,1.9014,1.9043,1.8828,1.8965,1.958,2.0215,2.0527,2.0303,2.0664,2.0928,2.0928,2.0855,2.1062,2.1428,2.1348,2.1434,2.2062,2.1897,2.1744,2.182,2.0569,1.9185,1.868,1.6842,1.6062,1.6622,1.6025,1.5371,1.5224,1.5115,1.5022,1.5022,1.5015,1.5015,1.5015,1.5015,1.5015,1.5022,1.4756,1.481,1.4923,1.5037,1.5064,1.5048,1.5015,1.5015,1.5015,1.5015,1.5015,1.5015,1.5015,1.4678,3.116,3.0796,3.0783,3.0545,3.0143,3.003,2.998,2.9967,2.9854,2.9779,2.9779,2.9779,2.9779,2.9779,2.9779,2.9779,2.9779,2.9779,2.9779,2.9779,2.9779,2.9779,2.9779,2.9779,2.9779,2.9702,2.8897,2.8937,2.9561,2.8482,2.8201,2.8662,2.7274,2.5816,2.4449,2.3393,2.2298,2.1131,2.0835,2.0492,2.0049,1.9639,1.9258,1.89,1.8383,1.7998,1.7666,1.7256,1.6999,1.698,1.6989,1.6989,1.6989,1.6989,1.7028,1.7135,1.748,1.7715,1.7842,1.8373,1.8929,1.9394,1.9434,1.9609,1.9971,1.9766,1.9707,2.0049,2.0566,2.0889,2.0791,2.1123,2.1346,2.1366,2.1768,2.197,2.2031,2.21,2.2285,2.2598,2.2646,2.2342,2.185,2.148,2.0305,1.8141,1.6622,1.6298,1.6943,1.6386,1.5772,1.5545,1.5304,1.5204,1.5157,1.5184,1.5236,1.5202,1.5223,1.5263,1.5224,1.5304,1.5271,1.5251,1.5291,1.5337,1.5204,1.5223,1.5243,1.5224,1.5231,1.5197,1.5263,1.5211,1.4728,3.1373,3.1323,3.1323,3.1286,3.1148,3.0733,3.0545,3.047,3.0018,2.9779,2.9817,2.9779,2.9779,2.9779,2.9779,2.9779,2.9779,2.9779,2.9779,2.9779,2.9779,2.9779,2.9779,2.9779,2.9779,2.9779,2.9611,2.9624,2.9792,2.96,2.9313,2.895,2.87,2.735,2.5274,2.5252,2.4464,2.2579,2.295,2.2312,2.0633,2.0078,1.9844,1.9795,1.8968,1.8529,1.8451,1.8125,1.7891,1.7891,1.7891,1.7891,1.7891,1.7857,1.8057,1.8373,1.8451,1.8656,1.9053,1.918,1.9414,1.9795,1.9853,2.0049,2.0488,2.0498,2.0488,2.0683,2.1279,2.1514,2.122,2.1572,2.1816,2.1846,2.2197,2.2451,2.249,2.2793,2.3003,2.3033,2.2984,2.3008,2.2614,2.1712,2.026,1.8411,1.6709,1.5967,1.6292,1.6062,1.5778,1.5785,1.5738,1.5718,1.5698,1.5738,1.5671,1.5691,1.5725,1.5685,1.5665,1.5685,1.5698,1.5611,1.5691,1.5691,1.5705,1.5745,1.5705,1.5625,1.5645,1.5712,1.5738,1.5698,1.5052,3.219,3.1888,3.1876,3.1687,3.1373,3.116,3.1072,3.1022,3.0507,3.0281,3.0231,2.9942,2.9779,2.9779,2.9779,2.9779,2.9779,2.9779,2.9779,2.9779,2.9779,2.9779,2.9779,2.9779,2.9779,2.9779,2.9779,2.9779,2.9779,2.9779,2.9666,2.9415,2.9063,2.8058,2.6581,2.6366,2.5405,2.3722,2.3308,2.2588,2.1576,2.1229,2.0752,1.995,1.958,1.9231,1.9033,1.8848,1.8769,1.8769,1.876,1.8769,1.8769,1.8769,1.8838,1.9004,1.9014,1.9209,1.9629,1.9658,1.9834,2.0273,2.0303,2.0488,2.0889,2.0762,2.0801,2.1309,2.168,2.1797,2.1689,2.2012,2.2256,2.2305,2.2584,2.2838,2.2847,2.2984,2.3101,2.3101,2.3091,2.2765,2.1943,2.0359,1.9497,1.9123,1.7654,1.615,1.6662,1.6298,1.5825,1.5825,1.5825,1.5825,1.5825,1.5825,1.5825,1.5825,1.5825,1.5825,1.5825,1.5825,1.5825,1.5825,1.5825,1.5825,1.5798,1.5825,1.5825,1.5825,1.5825,1.5825,1.5825,1.5825,1.5402,3.2842,3.2478,3.2441,3.2215,3.1838,3.1675,3.1612,3.1537,3.106,3.0794,3.0771,3.0256,3.003,2.9993,2.9867,2.9779,2.9779,2.9779,2.9779,2.9779,2.9779,2.9779,2.9779,2.9779,2.9779,2.9779,2.9779,2.9779,2.9779,2.9779,2.9779,2.9716,2.9377,2.8643,2.7723,2.732,2.6524,2.5215,2.4583,2.3858,2.2982,2.2697,2.1817,2.0279,1.9971,1.9766,1.9482,1.9355,1.9277,1.9277,1.9277,1.9277,1.9277,1.9277,1.9346,1.9463,1.957,1.9766,2.0068,2.0098,2.0283,2.0684,2.0752,2.0937,2.125,2.1113,2.1319,2.1924,2.2158,2.2227,2.21,2.2441,2.2666,2.2652,2.2935,2.3091,2.3091,2.3101,2.3101,2.3101,2.3101,2.2818,2.1756,2.026,1.9443,2.0025,1.8211,1.6339,1.6943,1.6339,1.5825,1.5825,1.5825,1.5825,1.5825,1.5825,1.5825,1.5825,1.5825,1.5825,1.5825,1.5825,1.5825,1.5825,1.5825,1.5825,1.5825,1.5825,1.5825,1.5825,1.5825,1.5825,1.5825,1.5825,1.5825,3.3056,3.3074,3.3086,3.3023,3.2943,3.2403,3.2177,3.2152,3.1587,3.1361,3.1286,3.0809,3.0583,3.0545,3.0105,2.9804,2.9779,2.9779,2.9779,2.9779,2.9779,2.9779,2.9779,2.9779,2.9779,2.9779,2.9779,2.9779,2.9779,2.9779,2.9779,2.9767,2.9716,2.9174,2.8333,2.8542,2.8233,2.7224,2.7232,2.6716,2.4952,2.4319,2.2938,2.0925,2.0146,1.9932,1.9853,1.9512,1.9307,1.9297,1.9336,1.9316,1.9316,1.9316,1.9512,1.9863,2.0292,2.0527,2.0566,2.0537,2.0732,2.1113,2.1171,2.1387,2.1797,2.1758,2.1943,2.2451,2.275,2.2808,2.2588,2.2769,2.3003,2.3023,2.3062,2.3101,2.3101,2.3101,2.3101,2.3047,2.2872,2.2677,2.2765,2.1943,2.026,1.9534,1.8365,1.7178,1.6244,1.5872,1.5825,1.5825,1.5825,1.5825,1.5825,1.5825,1.5825,1.5825,1.5825,1.5825,1.5825,1.5825,1.5825,1.5825,1.5825,1.5825,1.5825,1.5825,1.5825,1.5825,1.5825,1.5825,1.5825,1.5825,1.5825,3.3124,3.3124,3.3124,3.3124,3.3099,3.2855,3.2767,3.2704,3.2152,3.1913,3.1825,3.1348,3.111,3.1097,3.0896,3.0444,2.9829,2.9779,2.9779,2.9779,2.9779,2.9779,2.9779,2.9779,2.9779,2.9779,2.9779,2.9779,2.9779,2.9779,2.9779,2.9779,2.9779,2.9573,2.9289,2.9373,2.9073,2.8295,2.7287,2.6073,2.5116,2.4192,2.3313,2.2476,2.1073,2.037,2.0332,2.0214,2.0145,2.0145,2.0136,2.0136,2.0136,2.0136,2.0194,2.0312,2.0517,2.0723,2.0947,2.0986,2.1182,2.1592,2.165,2.1836,2.2139,2.207,2.2168,2.2721,2.2984,2.3003,2.2945,2.3013,2.3101,2.3101,2.3101,2.3101,2.3101,2.3101,2.3101,2.2872,2.1908,2.1078,2.1346,1.9571,1.8025,1.818,1.7264,1.6433,1.6015,1.5825,1.5825,1.5825,1.5825,1.5825,1.5825,1.5825,1.5825,1.5825,1.5825,1.5825,1.5825,1.5825,1.5825,1.5825,1.5825,1.5825,1.5825,1.5825,1.5825,1.5825,1.5825,1.5825,1.5825,1.5825,1.5825,3.3124,3.3124,3.3124,3.3124,3.3124,3.3124,3.3124,3.3074,3.2654,3.2491,3.239,3.1901,3.1662,3.1612,3.1474,3.1035,3.0319,3.0156,2.9967,2.9804,2.9779,2.9779,2.9779,2.9779,2.9779,2.9779,2.9779,2.9779,2.9779,2.9779,2.9779,2.9779,2.9779,2.9779,2.9779,2.9779,2.9578,2.8946,2.7792,2.6806,2.5949,2.4821,2.4237,2.3969,2.2505,2.1548,2.1538,2.1418,2.1337,2.124,2.0868,2.0664,2.0752,2.0781,2.085,2.0967,2.1036,2.1113,2.1387,2.1405,2.1631,2.2041,2.209,2.2266,2.2637,2.2451,2.2627,2.2955,2.3101,2.3101,2.3101,2.3091,2.3101,2.3101,2.3101,2.3101,2.3101,2.3101,2.3101,2.2872,2.1498,2.0755,2.0792,1.871,1.7669,1.7731,1.6897,1.6386,1.592,1.5825,1.5825,1.5825,1.5825,1.5825,1.5825,1.5825,1.5825,1.5825,1.5825,1.5825,1.5825,1.5825,1.5825,1.5825,1.5825,1.5825,1.5825,1.5825,1.5825,1.5825,1.5825,1.5825,1.5825,1.5825,1.5825,3.3136,3.3124,3.3124,3.3124,3.3124,3.3124,3.3124,3.3111,3.3086,3.3036,3.2893,3.2453,3.2227,3.2139,3.1788,3.1436,3.126,3.0896,3.0394,2.9917,2.9867,2.9829,2.9792,2.9779,2.9779,2.9779,2.9779,2.9779,2.9779,2.9779,2.9779,2.9779,2.9779,2.9779,2.9779,2.9779,2.9779,2.9626,2.9369,2.8915,2.8064,2.6548,2.5813,2.5688,2.4498,2.3783,2.3612,2.3139,2.2857,2.2621,2.1495,2.0879,2.1172,2.12,2.1416,2.1709,2.1826,2.1897,2.1875,2.1894,2.207,2.2432,2.2519,2.2676,2.2925,2.2994,2.3013,2.3071,2.3101,2.3101,2.3101,2.3101,2.3101,2.3101,2.3101,2.3101,2.3101,2.3101,2.3101,2.2916,2.1756,2.1248,2.098,1.9571,1.8311,1.7777,1.7544,1.7217,1.652,1.6285,1.592,1.592,1.5872,1.5825,1.5825,1.5825,1.5825,1.5825,1.5825,1.5825,1.5825,1.5825,1.5825,1.5825,1.5825,1.5825,1.5825,1.5825,1.5825,1.5825,1.5825,1.5825,1.5825,1.5825,1.5825,3.342,3.3136,3.3124,3.3124,3.3124,3.3124,3.3124,3.3124,3.3124,3.3124,3.3086,3.2893,3.2805,3.278,3.2604,3.2328,3.1951,3.175,3.1235,3.0482,3.0369,3.0156,2.9867,2.9792,2.9779,2.9779,2.9779,2.9779,2.9779,2.9779,2.9779,2.9779,2.9779,2.9779,2.9779,2.9779,2.9779,2.9714,2.9028,2.8426,2.8084,2.7651,2.7369,2.7385,2.7625,2.7502,2.6679,2.5296,2.4493,2.4382,2.3274,2.2331,2.1845,2.168,2.1748,2.1865,2.1936,2.2041,2.2275,2.2334,2.249,2.2789,2.2896,2.2945,2.3071,2.3101,2.3101,2.3101,2.3101,2.3101,2.3101,2.3101,2.3101,2.3101,2.3101,2.3101,2.3101,2.3101,2.3101,2.2862,2.1311,2.0215,1.9716,1.8534,1.7537,1.7731,1.7731,1.7677,1.8033,1.735,1.7131,1.7084,1.6567,1.5825,1.5825,1.5825,1.5825,1.5825,1.5825,1.5825,1.5825,1.5825,1.5825,1.5825,1.5825,1.5825,1.5825,1.5825,1.5825,1.5825,1.5825,1.5825,1.5825,1.5825,1.5825,3.3872,3.3395,3.3382,3.3257,3.3136,3.3124,3.3124,3.3124,3.3124,3.3124,3.3124,3.3124,3.3124,3.3124,3.3124,3.288,3.2554,3.2528,3.2051,3.126,3.0959,3.0696,3.0357,3.0168,2.9967,2.9817,2.9779,2.9779,2.9779,2.9779,2.9779,2.9779,2.9779,2.9779,2.9779,2.9779,2.9779,2.9663,2.9118,2.8727,2.8636,2.8307,2.8307,2.8688,2.9028,2.9028,2.8588,2.7505,2.6624,2.5899,2.4752,2.3668,2.2838,2.2401,2.2187,2.2324,2.2373,2.249,2.2672,2.2754,2.2789,2.3033,2.3101,2.3091,2.3101,2.3101,2.3101,2.3101,2.3101,2.3101,2.3101,2.3101,2.3101,2.3101,2.3101,2.3101,2.3101,2.3101,2.3101,2.2731,2.1436,2.0079,1.881,1.8357,1.7217,1.7731,1.8095,1.8187,1.868,1.8095,1.7731,1.7171,1.6339,1.5872,1.5825,1.5825,1.5825,1.5825,1.5825,1.5825,1.5825,1.5825,1.5825,1.5825,1.5825,1.5825,1.5825,1.5825,1.5825,1.5825,1.5825,1.5825,1.5825,1.5825,1.5825,3.4437,3.3972,3.3897,3.3596,3.3181,3.3119,3.3124,3.3124,3.3124,3.3124,3.3124,3.3124,3.3124,3.3124,3.3124,3.3074,3.3099,3.3048,3.2729,3.219,3.1775,3.1449,3.1185,3.0733,3.0306,2.9955,2.9829,2.9779,2.9779,2.9779,2.9779,2.9779,2.9779,2.9779,2.9779,2.9779,2.9779,2.9779,2.9714,2.9663,2.9663,2.8806,2.8688,2.9624,2.8937,2.8858,2.947,2.937,2.8748,2.737,2.5869,2.481,2.4115,2.3155,2.2672,2.2964,2.3062,2.3023,2.3071,2.3023,2.3052,2.3081,2.3101,2.3101,2.3101,2.3101,2.3101,2.3101,2.3101,2.3101,2.3101,2.3101,2.3101,2.3101,2.3101,2.3101,2.3101,2.3101,2.3101,2.2906,2.1987,2.0755,1.9231,1.9268,1.8734,1.8419,1.878,1.8818,1.8419,1.8002,1.7217,1.6662,1.6244,1.5872,1.5825,1.5825,1.5825,1.5825,1.5825,1.5825,1.5825,1.5825,1.5825,1.5825,1.5825,1.5825,1.5825,1.5825,1.5825,1.5825,1.5825,1.5825,1.5825,1.5825,1.5825,3.4956,3.4474,3.4073,3.3809,3.3633,3.3312,3.3136,3.3124,3.3124,3.3124,3.3124,3.3124,3.3124,3.3124,3.3124,3.3124,3.3124,3.3124,3.3086,3.2898,3.2759,3.2114,3.1424,3.0884,3.057,3.0369,3.003,2.9779,2.9779,2.9792,2.9792,2.9779,2.9779,2.9779,2.9779,2.9779,2.9779,2.9779,2.9779,2.9779,2.974,2.9534,2.9495,2.965,2.9495,2.9456,2.9779,2.9779,2.9238,2.7957,2.6777,2.5634,2.4735,2.3599,2.3041,2.3052,2.3101,2.3101,2.3101,2.3101,2.3101,2.3101,2.3101,2.3101,2.3101,2.3101,2.3101,2.3101,2.3101,2.3101,2.3101,2.3101,2.3101,2.3101,2.3101,2.3101,2.3101,2.3101,2.3101,2.296,2.2031,2.1489,2.1355,2.0458,1.9588,1.9231,1.9338,1.9459,1.888,1.8063,1.7391,1.7052,1.6669,1.6109,1.5825,1.5825,1.5825,1.5825,1.5825,1.5825,1.5825,1.5825,1.5825,1.5825,1.5825,1.5825,1.5825,1.5825,1.5825,1.5825,1.5825,1.5825,1.5825,1.5825,1.5825,3.5567,3.4994,3.468,3.4449,3.4186,3.3658,3.342,3.337,3.3212,3.3124,3.3124,3.3124,3.3124,3.3124,3.3124,3.3124,3.3124,3.3124,3.3124,3.3124,3.3086,3.2554,3.1838,3.1386,3.1173,3.0884,3.0394,3.0181,3.0093,2.9917,2.9792,2.9779,2.9779,2.9779,2.9779,2.9779,2.9779,2.9779,2.9779,2.9779,2.9779,2.9779,2.9779,2.9779,2.9779,2.9779,2.9779,2.9779,2.9443,2.8727,2.7775,2.6666,2.5588,2.4425,2.3637,2.3222,2.3101,2.3101,2.3101,2.3101,2.3101,2.3101,2.3101,2.3101,2.3101,2.3101,2.3101,2.3101,2.3101,2.3101,2.3101,2.3101,2.3101,2.3101,2.3101,2.3101,2.3101,2.3101,2.3101,2.2906,2.258,2.2262,2.3057,2.1793,2.0962,2.0447,2.042,2.0115,1.9509,1.8536,1.7574,1.7025,1.6692,1.613,1.5905,1.5905,1.5932,1.5925,1.5952,1.5925,1.5905,1.5885,1.5825,1.5825,1.5825,1.5825,1.5825,1.5825,1.5825,1.5825,1.5825,1.5825,1.5825,1.5825,1.5825,3.6069,3.5571,3.5508,3.5219,3.4705,3.4223,3.3935,3.3784,3.3407,3.3199,3.3136,3.3124,3.3124,3.3124,3.3124,3.3124,3.3124,3.3124,3.3124,3.3124,3.3086,3.2754,3.2353,3.2089,3.1825,3.1449,3.0947,3.0733,3.057,3.0181,2.9917,2.9917,2.9867,2.9779,2.9779,2.9779,2.9779,2.9779,2.9779,2.9779,2.9779,2.9779,2.9779,2.9779,2.9779,2.9779,2.9779,2.9779,2.974,2.9779,2.8715,2.74,2.6348,2.5252,2.4339,2.3474,2.3299,2.3387,2.3135,2.3101,2.3101,2.3101,2.3101,2.3101,2.3101,2.3101,2.3101,2.3101,2.3101,2.3101,2.3101,2.3101,2.3101,2.311,2.312,2.3179,2.3149,2.312,2.311,2.3179,2.3188,2.3179,2.3257,2.3149,2.2751,2.1451,2.1263,2.0644,1.981,1.8696,1.7529,1.6436,1.6238,1.6088,1.5992,1.5992,1.6032,1.6066,1.6071,1.6071,1.6017,1.5964,1.5885,1.5825,1.5825,1.5825,1.5825,1.5825,1.5838,1.5825,1.5825,1.5825,1.5825,1.5825,1.5825,3.6342,3.6157,3.5683,3.5433,3.5257,3.4731,3.4311,3.3922,3.3796,3.3508,3.3181,3.3149,3.3149,3.3149,3.3149,3.3124,3.3124,3.3124,3.3124,3.3124,3.3124,3.3074,3.278,3.2466,3.2177,3.1901,3.1486,3.1248,3.1085,3.0733,3.0419,3.0369,3.003,2.9792,2.9792,2.9779,2.9779,2.9779,2.9779,2.9779,2.9779,2.9779,2.9779,2.9779,2.9779,2.9779,2.9779,2.9779,2.9779,2.9534,2.874,2.7441,2.5953,2.5797,2.5052,2.3887,2.392,2.3963,2.3299,2.3101,2.3101,2.3101,2.3101,2.3101,2.3101,2.3101,2.3101,2.3101,2.3101,2.3101,2.3149,2.311,2.3169,2.3237,2.3432,2.3652,2.3594,2.3325,2.3364,2.3598,2.3721,2.3857,2.4365,2.4085,2.3543,2.2602,2.1901,2.1221,2.0157,1.8987,1.7804,1.6689,1.6717,1.6683,1.6299,1.6293,1.6286,1.6293,1.6319,1.629,1.6244,1.6144,1.6031,1.5945,1.5825,1.5852,1.5952,1.5879,1.5899,1.5865,1.5838,1.5865,1.5879,1.5858,1.5945,3.6417,3.638,3.6044,3.5918,3.5843,3.5307,3.4893,3.465,3.4387,3.4135,3.3834,3.3608,3.347,3.342,3.3206,3.3124,3.3124,3.3124,3.3124,3.3124,3.3124,3.3124,3.3099,3.2805,3.2604,3.2516,3.2039,3.18,3.1637,3.1248,3.0834,3.062,3.0319,3.0043,2.9817,2.9804,2.9779,2.9779,2.9779,2.9779,2.9779,2.9779,2.9779,2.9779,2.9779,2.9779,2.9779,2.9779,2.9495,2.9106,2.8897,2.8056,2.6315,2.5839,2.5147,2.4573,2.3844,2.3833,2.3212,2.3101,2.3101,2.3101,2.3101,2.3101,2.3101,2.3101,2.3101,2.3101,2.312,2.3159,2.3408,2.3447,2.3496,2.3695,2.3935,2.4082,2.4053,2.3877,2.3725,2.4014,2.4043,2.4336,2.458,2.4648,2.4373,2.3513,2.2795,2.2097,2.0939,1.9764,1.8531,1.769,1.7683,1.7421,1.6839,1.6627,1.6593,1.658,1.656,1.6573,1.6553,1.6426,1.6251,1.6206,1.6146,1.6119,1.6179,1.6079,1.5972,1.5879,1.5865,1.5912,1.5992,1.6079,1.6213,3.6417,3.6417,3.6417,3.6417,3.6342,3.5868,3.5545,3.5395,3.5006,3.4718,3.4593,3.4211,3.4022,3.3935,3.3608,3.3332,3.3244,3.3275,3.3269,3.3124,3.3124,3.3124,3.3099,3.3061,3.3023,3.3048,3.2579,3.2365,3.2202,3.18,3.1373,3.0906,3.0718,3.0583,3.0168,2.9942,2.9993,3.0005,2.9854,2.9779,2.9779,2.9779,2.9779,2.9779,2.9779,2.9779,2.9779,2.974,2.9404,2.8466,2.9106,2.887,2.7947,2.6666,2.5062,2.5242,2.4231,2.3844,2.3266,2.3101,2.3101,2.3101,2.3101,2.3101,2.3101,2.311,2.3169,2.3257,2.3335,2.353,2.3848,2.3887,2.4053,2.4287,2.4424,2.4512,2.4531,2.4551,2.4531,2.4307,2.4443,2.4727,2.4893,2.4971,2.4766,2.4462,2.3765,2.2912,2.1779,2.0973,2.0014,1.9222,1.933,1.8793,1.8095,1.7625,1.7482,1.6941,1.6887,1.6887,1.6894,1.6887,1.68,1.6627,1.6553,1.65,1.6426,1.6366,1.6213,1.5999,1.6032,1.6206,1.6286,1.6326,1.6466,3.6417,3.6417,3.6417,3.6417,3.6405,3.6304,3.5956,3.5533,3.542,3.5107,3.4788,3.4593,3.4587,3.4537,3.4525,3.4198,3.3834,3.3696,3.3495,3.3224,3.3149,3.3124,3.3124,3.3124,3.3124,3.3068,3.2905,3.2855,3.2742,3.2378,3.1989,3.1825,3.1474,3.1148,3.0934,3.0733,3.0482,3.0419,3.0156,2.9967,2.988,2.9804,2.9779,2.9779,2.9779,2.9779,2.9779,2.9779,2.9702,2.9443,2.8806,2.8858,2.9028,2.8819,2.7046,2.4851,2.4904,2.4681,2.343,2.3101,2.3101,2.3101,2.314,2.313,2.312,2.3169,2.3374,2.3682,2.3945,2.4209,2.4297,2.4316,2.4346,2.4502,2.4756,2.4998,2.5019,2.5156,2.5234,2.4912,2.4971,2.5059,2.5205,2.5322,2.5196,2.5128,2.4823,2.3996,2.2907,2.2603,2.2326,2.1678,2.1216,2.0413,1.9508,1.9015,1.8626,1.7608,1.7321,1.7315,1.7341,1.7422,1.7341,1.7054,1.6854,1.6747,1.6687,1.664,1.654,1.6386,1.646,1.6553,1.66,1.669,1.6673,3.6417,3.6417,3.6417,3.6417,3.6417,3.6417,3.6267,3.5994,3.5968,3.583,3.5554,3.529,3.5094,3.5019,3.4756,3.4505,3.4349,3.3985,3.3759,3.3483,3.3275,3.3124,3.3149,3.3149,3.3124,3.3124,3.3124,3.3124,3.3099,3.2817,3.2503,3.219,3.1913,3.1687,3.1399,3.1135,3.1035,3.0934,3.0733,3.0457,3.0193,3.0005,2.9817,2.9804,2.9817,2.9779,2.9779,2.9779,2.9779,2.9663,2.9287,2.9378,2.9649,2.9442,2.8195,2.5306,2.52,2.4967,2.3464,2.3101,2.3101,2.312,2.3286,2.3467,2.3545,2.3691,2.3832,2.4092,2.4238,2.4521,2.4717,2.4746,2.4863,2.5088,2.5283,2.5371,2.5449,2.5625,2.5547,2.54,2.541,2.5449,2.5557,2.5606,2.5654,2.5684,2.5684,2.4962,2.3949,2.3949,2.3899,2.2818,2.1946,2.0931,2.0128,1.9672,1.922,1.8356,1.7589,1.7589,1.7582,1.7562,1.7502,1.7321,1.7161,1.7034,1.6967,1.6978,1.6847,1.6767,1.6727,1.674,1.6867,1.6998,1.6981,3.6417,3.6417,3.6417,3.6417,3.6417,3.6417,3.6405,3.6417,3.6392,3.6367,3.6355,3.5931,3.5705,3.5604,3.5316,3.5014,3.4876,3.4424,3.4248,3.401,3.3709,3.3458,3.342,3.3312,3.3325,3.3375,3.3149,3.3124,3.3124,3.3074,3.278,3.2554,3.2403,3.2202,3.1863,3.1687,3.1599,3.1524,3.1411,3.1148,3.0758,3.0369,3.0118,3.0105,3.0118,3.0168,3.0231,3.0256,3.0244,3.0231,3.0154,3.0116,3.0118,3.0118,2.8775,2.6417,2.5465,2.4563,2.3777,2.3291,2.3296,2.3305,2.3701,2.3867,2.4014,2.4228,2.4521,2.456,2.467,2.4863,2.5156,2.5195,2.5361,2.5547,2.5615,2.5664,2.5635,2.5664,2.5664,2.5615,2.5684,2.5684,2.5684,2.5684,2.5684,2.5684,2.5684,2.5528,2.4766,2.503,2.4766,2.3384,2.2316,2.1245,2.0487,1.9922,1.9472,1.876,1.7996,1.7589,1.7589,1.7582,1.7515,1.7462,1.7475,1.7355,1.734,1.7273,1.7174,1.7088,1.6941,1.6967,1.7154,1.73,1.7326,3.6417,3.6417,3.6417,3.6417,3.6417,3.6417,3.6417,3.6417,3.6417,3.6417,3.6417,3.6329,3.6267,3.6216,3.6204,3.5855,3.5483,3.5207,3.4906,3.4593,3.4437,3.4336,3.4387,3.3997,3.3834,3.3759,3.3382,3.3149,3.3174,3.3187,3.3099,3.2918,3.2867,3.288,3.2671,3.2303,3.2127,3.2039,3.1662,3.1386,3.1298,3.1185,3.1097,3.111,3.1097,3.106,3.0997,3.0997,3.1035,3.1072,3.1122,3.1173,3.121,3.1198,2.9904,2.8141,2.6759,2.5819,2.4655,2.3993,2.3711,2.3779,2.4111,2.4297,2.4512,2.4736,2.5,2.501,2.5283,2.5421,2.5489,2.5567,2.5645,2.5654,2.5684,2.5684,2.5684,2.5684,2.5684,2.5684,2.5684,2.5684,2.5684,2.5684,2.5684,2.5684,2.5684,2.5528,2.543,2.5586,2.5333,2.3899,2.3185,2.2215,2.0845,2.0333,1.9687,1.9124,1.8311,1.7648,1.7589,1.7589,1.7589,1.7555,1.7589,1.7589,1.7527,1.7487,1.7475,1.7408,1.7261,1.7341,1.7502,1.7542,1.7554,3.6417,3.6417,3.6417,3.6417,3.6417,3.6417,3.6417,3.6417,3.6417,3.6417,3.6417,3.6417,3.6417,3.6417,3.6417,3.6279,3.5968,3.5658,3.5408,3.5107,3.4881,3.4718,3.465,3.4487,3.4374,3.4299,3.411,3.3859,3.3608,3.3287,3.3124,3.3124,3.3124,3.3086,3.3124,3.2842,3.2729,3.2541,3.219,3.1876,3.1775,3.1574,3.1399,3.1399,3.1424,3.1436,3.1477,3.1386,3.1386,3.1386,3.1386,3.1386,3.1386,3.1333,3.0762,3.012,2.8951,2.7207,2.4985,2.4405,2.4293,2.4294,2.4541,2.4883,2.5117,2.5293,2.543,2.5459,2.5557,2.5674,2.5684,2.5684,2.5684,2.5684,2.5684,2.5684,2.5684,2.5684,2.5684,2.5684,2.5684,2.5684,2.5684,2.5684,2.5684,2.5684,2.5684,2.5635,2.5577,2.5635,2.5128,2.4254,2.3791,2.3384,2.1862,2.0692,2.0019,1.9316,1.83,1.778,1.7648,1.7589,1.7629,1.7609,1.7589,1.7589,1.7589,1.7569,1.7535,1.7555,1.7582,1.7589,1.7589,1.7582,1.7549,3.6417,3.6417,3.6417,3.6417,3.6417,3.6417,3.6417,3.6417,3.6417,3.6417,3.6417,3.6417,3.6417,3.6417,3.6417,3.638,3.6367,3.5918,3.578,3.5579,3.5366,3.5215,3.519,3.509,3.4881,3.4881,3.465,3.4424,3.4098,3.3746,3.3514,3.3149,3.3124,3.3124,3.3124,3.3086,3.3048,3.2943,3.2629,3.2453,3.2365,3.2064,3.1913,3.1851,3.1813,3.1813,3.1854,3.1905,3.1863,3.1888,3.1913,3.1964,3.1951,3.1989,3.1617,3.1076,3.0252,2.8606,2.6466,2.5364,2.5043,2.507,2.5008,2.5352,2.5538,2.5684,2.5674,2.5635,2.5654,2.5684,2.5684,2.5684,2.5684,2.5684,2.5684,2.5684,2.5703,2.5762,2.5742,2.5684,2.5684,2.5684,2.5684,2.5684,2.5684,2.5684,2.5684,2.5713,2.5732,2.5781,2.5439,2.4792,2.4665,2.4514,2.3707,2.2198,2.1107,1.9702,1.8682,1.7895,1.7822,1.7756,1.7762,1.7716,1.7649,1.7589,1.7589,1.7589,1.7589,1.7589,1.7589,1.7589,1.7589,1.7589,1.7589,3.6417,3.6417,3.6417,3.6417,3.6417,3.6417,3.6417,3.6417,3.6417,3.6417,3.6417,3.6417,3.6417,3.6417,3.6417,3.6417,3.6405,3.6367,3.6279,3.6279,3.6292,3.6128,3.5931,3.568,3.5433,3.5357,3.5177,3.4901,3.4675,3.4575,3.3947,3.3244,3.3312,3.3199,3.3149,3.3187,3.3136,3.3111,3.2918,3.293,3.293,3.2872,3.286,3.2885,3.2948,3.2998,3.2986,3.286,3.2797,3.2742,3.2747,3.2759,3.2696,3.2722,3.2288,3.1693,3.1402,2.9947,2.8333,2.6909,2.6599,2.6481,2.6104,2.5577,2.5664,2.5684,2.5684,2.5684,2.5684,2.5684,2.5684,2.5684,2.5684,2.5713,2.5762,2.5849,2.5879,2.5927,2.5888,2.5742,2.5781,2.5957,2.5996,2.6064,2.5927,2.5927,2.6064,2.6093,2.5996,2.5996,2.5908,2.5614,2.5624,2.5593,2.5741,2.432,2.2056,2.0628,1.9581,1.8678,1.8056,1.8023,1.7996,1.7889,1.7829,1.7702,1.7622,1.7702,1.7722,1.7629,1.7589,1.7589,1.7589,1.7589,1.7589,3.6417,3.6417,3.6417,3.6417,3.6417,3.6417,3.6417,3.6417,3.6417,3.6417,3.6417,3.6417,3.6417,3.6417,3.6417,3.6417,3.6417,3.6417,3.6417,3.6417,3.6405,3.6417,3.6292,3.6182,3.6044,3.5981,3.5768,3.5491,3.5207,3.5194,3.4756,3.4223,3.3809,3.3621,3.3533,3.3332,3.3224,3.3162,3.3149,3.3136,3.3124,3.3124,3.3124,3.3124,3.3124,3.3124,3.3099,3.3111,3.3124,3.3124,3.3124,3.3124,3.3124,3.3124,3.284,3.2326,3.2239,3.1601,3.0418,2.8679,2.7056,2.6187,2.5867,2.5684,2.5684,2.5684,2.5684,2.5684,2.5732,2.5801,2.5703,2.5693,2.5693,2.5752,2.5879,2.6084,2.6182,2.626,2.6328,2.6289,2.6435,2.6621,2.6602,2.6582,2.6396,2.624,2.6396,2.6504,2.6406,2.6367,2.6318,2.6259,2.6239,2.6356,2.6507,2.4735,2.2661,2.1556,2.0485,1.9311,1.837,1.8337,1.829,1.8156,1.8096,1.8096,1.805,1.7949,1.7849,1.7722,1.7635,1.7589,1.7589,1.7615,1.7669,3.6417,3.6417,3.6417,3.6417,3.6417,3.6417,3.6417,3.6417,3.6417,3.6417,3.6417,3.6417,3.6417,3.6417,3.6417,3.6417,3.6417,3.6417,3.6417,3.6417,3.6417,3.6417,3.6417,3.6392,3.6329,3.6417,3.638,3.6081,3.5805,3.5793,3.5554,3.5152,3.4675,3.4412,3.406,3.3796,3.3558,3.3545,3.3382,3.3332,3.3345,3.3212,3.3124,3.3124,3.3124,3.3124,3.3124,3.3124,3.3124,3.3124,3.3124,3.3124,3.3124,3.3124,3.3124,3.3124,3.3081,3.2982,3.1845,3.0102,2.7389,2.6099,2.5742,2.5684,2.5684,2.5684,2.5684,2.5723,2.5869,2.6074,2.5957,2.6044,2.623,2.6337,2.6445,2.6582,2.6621,2.668,2.6787,2.6846,2.6943,2.6934,2.7002,2.6953,2.6894,2.6709,2.668,2.6777,2.6777,2.6768,2.6807,2.6807,2.6826,2.6982,2.7014,2.4852,2.288,2.2409,2.1203,1.9542,1.8698,1.8671,1.8557,1.8377,1.837,1.8504,1.843,1.825,1.8016,1.7796,1.7722,1.7655,1.7782,1.7829,1.7896,3.6417,3.6417,3.6417,3.6417,3.6417,3.6417,3.6417,3.6417,3.6417,3.6417,3.6417,3.6417,3.6417,3.6417,3.6417,3.6417,3.6417,3.6417,3.6417,3.6417,3.6417,3.6417,3.6417,3.6417,3.6417,3.6417,3.6405,3.6367,3.6317,3.6254,3.6216,3.6056,3.5567,3.5056,3.4751,3.4643,3.4618,3.4575,3.4085,3.3935,3.3809,3.352,3.3382,3.3357,3.337,3.3407,3.342,3.3282,3.3269,3.3287,3.3162,3.3136,3.3124,3.3124,3.3124,3.3124,3.3174,3.2587,3.1371,3.0091,2.8265,2.6208,2.5742,2.581,2.5742,2.5703,2.581,2.5966,2.6376,2.6621,2.666,2.666,2.6768,2.6846,2.6894,2.7012,2.7051,2.7217,2.7344,2.7412,2.7207,2.707,2.7217,2.7305,2.7334,2.7226,2.707,2.706,2.7158,2.7256,2.7344,2.7363,2.7393,2.7461,2.7117,2.4791,2.3212,2.2855,2.1733,1.9898,1.9032,1.9045,1.8885,1.8637,1.8677,1.8831,1.8691,1.8497,1.829,1.8083,1.7836,1.7782,1.7923,1.805,1.8123,3.6417,3.6417,3.6417,3.6417,3.6417,3.6417,3.6417,3.6417,3.6417,3.6417,3.6417,3.6417,3.6417,3.6417,3.6417,3.6417,3.6417,3.6417,3.6417,3.6417,3.6417,3.6417,3.6417,3.6417,3.6417,3.6417,3.6417,3.6417,3.6392,3.6417,3.6417,3.6317,3.6094,3.5579,3.4964,3.468,3.4668,3.4688,3.4512,3.4437,3.4424,3.4248,3.411,3.4098,3.4085,3.406,3.4022,3.3784,3.3633,3.3571,3.3432,3.3219,3.3237,3.3237,3.3156,3.3275,3.3345,3.3254,3.223,3.1018,2.8923,2.71,2.6016,2.6162,2.6162,2.5879,2.6005,2.6395,2.6846,2.6973,2.6894,2.6904,2.6982,2.7041,2.7139,2.7363,2.751,2.7783,2.7959,2.7978,2.7871,2.7783,2.7832,2.7744,2.7734,2.7783,2.7656,2.7705,2.7803,2.7891,2.7978,2.7978,2.7988,2.7998,2.7298,2.5306,2.4099,2.3706,2.2009,1.9733,1.9357,1.9472,1.929,1.9062,1.9135,1.9196,1.8985,1.8824,1.8617,1.8404,1.825,1.8143,1.8257,1.8337,1.8364,3.6417,3.6417,3.6417,3.6417,3.6417,3.6417,3.6417,3.6417,3.6417,3.6417,3.6417,3.6417,3.6417,3.6417,3.6417,3.6417,3.6417,3.6417,3.6417,3.6417,3.6417,3.6417,3.6417,3.6417,3.6417,3.6417,3.6417,3.6417,3.6417,3.6417,3.6417,3.6417,3.6405,3.6028,3.5504,3.5391,3.5378,3.5341,3.5215,3.4956,3.4893,3.4813,3.463,3.4618,3.4618,3.463,3.4613,3.4424,3.4173,3.406,3.3872,3.3633,3.3621,3.3633,3.3646,3.3796,3.3871,3.3707,3.2801,3.2254,3.027,2.8277,2.7201,2.6632,2.6582,2.6396,2.6533,2.6855,2.7226,2.7295,2.7275,2.7275,2.7412,2.749,2.7578,2.7812,2.7891,2.8144,2.8203,2.8252,2.8271,2.8291,2.8301,2.8262,2.8154,2.8213,2.8252,2.8301,2.8301,2.8301,2.8301,2.8271,2.8262,2.8203,2.7567,2.6182,2.52,2.4701,2.2548,2.009,1.9866,2.0063,1.9751,1.9424,1.9363,1.9323,1.9343,1.9216,1.8958,1.8878,1.8838,1.8744,1.8671,1.8644,1.8644,3.6439,3.6452,3.6405,3.6499,3.6546,3.6675,3.6499,3.6452,3.6499,3.6499,3.6417,3.6417,3.6417,3.6417,3.6417,3.6417,3.6417,3.6417,3.6417,3.6417,3.6417,3.6417,3.6417,3.6417,3.6417,3.6417,3.6417,3.6417,3.6417,3.6417,3.6417,3.6417,3.6417,3.6254,3.6179,3.6128,3.6128,3.5943,3.5755,3.5592,3.5516,3.5203,3.5102,3.5077,3.5077,3.5052,3.4989,3.4851,3.4763,3.47,3.4593,3.4605,3.463,3.4668,3.4668,3.4693,3.468,3.4139,3.3627,3.3242,3.2416,3.0641,2.8828,2.7753,2.7337,2.747,2.7351,2.7589,2.7947,2.7839,2.7773,2.7939,2.8115,2.8135,2.8135,2.8213,2.8213,2.8281,2.8281,2.8291,2.8291,2.8301,2.8301,2.8301,2.8301,2.8301,2.8301,2.8301,2.8301,2.8301,2.8301,2.8291,2.8291,2.8291,2.7511,2.6545,2.5927,2.5316,2.3095,2.0973,2.0866,2.0422,1.9758,1.9424,1.9424,1.9417,1.9397,1.9397,1.937,1.931,1.9152,1.9105,1.8951,1.8945,1.8978,3.7586,3.754,3.6756,3.7348,3.8662,3.7952,3.7183,3.6534,3.7196,3.7243,3.6417,3.6417,3.6417,3.6417,3.6417,3.6417,3.6417,3.6417,3.6417,3.6417,3.6417,3.6417,3.6417,3.6417,3.6417,3.6417,3.6417,3.6417,3.6417,3.6417,3.6417,3.6417,3.6417,3.6417,3.6417,3.6417,3.6417,3.6367,3.6144,3.6081,3.6069,3.5843,3.5801,3.5742,3.573,3.573,3.5705,3.5441,3.5353,3.5257,3.4881,3.4718,3.468,3.4705,3.4768,3.5219,3.5295,3.5198,3.5194,3.451,3.3766,3.3188,3.1578,3.0887,3.0101,2.9259,2.8671,2.8687,2.882,2.8735,2.8555,2.8546,2.8495,2.8344,2.8398,2.8548,2.8495,2.8301,2.8301,2.8301,2.8301,2.8301,2.8301,2.8301,2.8301,2.8301,2.8301,2.8301,2.8301,2.8301,2.8301,2.8301,2.8301,2.8301,2.7843,2.6997,2.6436,2.5645,2.3758,2.2194,2.1756,2.1088,1.9924,1.9424,1.9424,1.9424,1.9424,1.9424,1.9424,1.9424,1.935,1.9279,1.9259,1.9205,1.9178,3.8783,3.8693,3.8075,3.8347,3.8961,3.8424,3.7461,3.6662,3.715,3.6977,3.6452,3.6417,3.6417,3.6417,3.6417,3.6417,3.6417,3.6417,3.6417,3.6417,3.6417,3.6417,3.6417,3.6417,3.6417,3.6417,3.6417,3.6417,3.6417,3.6417,3.6417,3.6417,3.6417,3.6417,3.6417,3.6417,3.6417,3.6417,3.6392,3.6417,3.6417,3.6417,3.6417,3.6417,3.6417,3.6417,3.6392,3.5956,3.5893,3.5868,3.5454,3.5391,3.5391,3.5416,3.5454,3.5855,3.5881,3.5981,3.5993,3.5628,3.5295,3.4824,3.3958,3.3525,3.2632,3.1711,3.0664,3.0047,2.987,2.9692,2.9398,2.9059,2.8751,2.8441,2.8644,2.8847,2.8591,2.8344,2.8301,2.8301,2.8301,2.8301,2.8301,2.8301,2.8301,2.8301,2.8301,2.8301,2.8301,2.8301,2.8301,2.8301,2.8301,2.8291,2.7789,2.7565,2.7305,2.6681,2.5426,2.4036,2.3095,2.1892,2.0744,2.0009,1.9424,1.9444,1.947,1.9437,1.9424,1.9424,1.9424,1.9397,1.9325,1.937,1.937,3.9842,3.9855,3.9885,3.9108,3.8198,3.8107,3.754,3.6534,3.6593,3.6417,3.6417,3.6417,3.6417,3.6417,3.6417,3.6417,3.6417,3.6417,3.6417,3.6417,3.6417,3.6417,3.6417,3.6417,3.6417,3.6417,3.6417,3.6417,3.6417,3.6417,3.6417,3.6417,3.6417,3.6417,3.6417,3.6417,3.6417,3.6417,3.6417,3.6417,3.6417,3.6417,3.6417,3.6417,3.6417,3.6417,3.6417,3.6392,3.6417,3.6392,3.6367,3.6292,3.6254,3.6241,3.6292,3.6304,3.6279,3.6317,3.638,3.6168,3.6216,3.5823,3.5319,3.5162,3.4424,3.2853,3.156,3.1429,3.1378,3.0773,3.0369,3.012,2.9765,2.9207,2.8996,2.8847,2.8495,2.8291,2.8301,2.834,2.8457,2.8467,2.8545,2.8584,2.8809,2.8574,2.8535,2.8555,2.8535,2.8535,2.8408,2.8398,2.832,2.831,2.8184,2.8023,2.8179,2.7612,2.6582,2.5995,2.5151,2.348,2.1633,2.057,1.9559,1.9544,1.9531,1.9491,1.945,1.9424,1.9424,1.9424,1.943,1.9457,1.9424,3.9885,3.9885,3.9885,3.9197,3.814,3.8107,3.7984,3.7599,3.6769,3.6452,3.6417,3.6417,3.6417,3.6417,3.6417,3.6417,3.6417,3.6417,3.6417,3.6417,3.6417,3.6417,3.6417,3.6417,3.6417,3.6417,3.6417,3.6417,3.6417,3.6417,3.6417,3.6417,3.6417,3.6417,3.6417,3.6417,3.6417,3.6417,3.6417,3.6417,3.6417,3.6417,3.6417,3.6417,3.6417,3.6417,3.6417,3.6417,3.6417,3.6405,3.6405,3.6405,3.6405,3.6417,3.6417,3.6417,3.6417,3.6417,3.6417,3.6417,3.6417,3.6417,3.6061,3.6156,3.5391,3.3479,3.2582,3.2844,3.2794,3.2079,3.1429,3.1184,3.0824,3.012,2.9408,2.8953,2.8461,2.835,2.835,2.8486,2.8643,2.873,2.8818,2.8965,2.9199,2.9333,2.9297,2.9287,2.9219,2.916,2.8779,2.8672,2.8398,2.835,2.8389,2.8496,2.8633,2.8375,2.7537,2.7197,2.7035,2.511,2.3014,2.0984,1.978,2.0185,2.0265,1.9544,1.9504,1.9777,1.9506,1.9566,1.9512,1.9506,1.9491,4.1099,4.0661,4.0661,4.0304,3.964,3.9125,3.859,3.8017,3.7402,3.6849,3.6452,3.6417,3.6417,3.6417,3.6417,3.6499,3.6499,3.6417,3.6417,3.6417,3.6499,3.6417,3.6417,3.6417,3.6417,3.6417,3.6417,3.6417,3.6417,3.6417,3.6417,3.6417,3.6417,3.6417,3.6417,3.6417,3.6417,3.6417,3.6417,3.6417,3.6417,3.6417,3.6417,3.6417,3.6417,3.6417,3.6417,3.6417,3.6417,3.6417,3.6417,3.6417,3.6417,3.6417,3.6417,3.6417,3.6417,3.6417,3.6417,3.6417,3.6417,3.6417,3.6417,3.6358,3.631,3.4642,3.4056,3.4313,3.4751,3.424,3.3082,3.2582,3.228,3.1724,3.0959,3.038,2.954,2.8867,2.8926,2.9053,2.915,2.918,2.9238,2.9258,2.9499,2.9509,2.9607,2.9629,2.9629,2.9756,2.9365,2.9101,2.8935,2.8857,2.8994,2.9043,2.9127,2.8745,2.8404,2.8529,2.8286,2.6341,2.4387,2.3022,2.2097,2.1817,2.1635,2.0617,2.0704,2.1215,2.0545,1.9806,1.9733,1.9686,1.9733,4.229,4.1462,4.1337,4.1337,4.1211,4.0102,3.9139,3.8424,3.8153,3.7678,3.715,3.7036,3.6815,3.6628,3.6628,3.6722,3.6849,3.7023,3.6849,3.6756,3.6756,3.6628,3.6499,3.6417,3.6417,3.6417,3.6417,3.6417,3.6417,3.6417,3.6417,3.6417,3.6417,3.6417,3.6417,3.6417,3.6417,3.6417,3.6417,3.6417,3.6417,3.6417,3.6417,3.6417,3.6417,3.6417,3.6417,3.6417,3.6417,3.6417,3.6417,3.6417,3.6417,3.6417,3.6417,3.6417,3.6417,3.6417,3.6417,3.6417,3.6417,3.6417,3.6417,3.643,3.6395,3.6098,3.55,3.5598,3.6042,3.5814,3.4652,3.3878,3.358,3.3083,3.2328,3.13,3.0227,2.9372,2.9424,2.9541,2.96,2.9609,2.9648,2.9724,2.9783,2.9763,2.9707,2.9726,2.9824,3.0039,2.999,2.9873,2.9795,2.9746,2.958,2.9548,2.9489,2.9524,2.9321,2.9674,2.9516,2.7687,2.6529,2.6092,2.5233,2.3696,2.2706,2.1763,2.2059,2.232,2.1033,2.0007,2.0034,2.002,2.0154,4.1267,4.0246,4.0232,4.0289,4.0116,3.9036,3.8827,3.936,3.8559,3.8424,3.8975,3.9108,3.8796,3.7815,3.7756,3.803,3.8541,3.8219,3.7874,3.7802,3.7748,3.7219,3.6754,3.6744,3.648,3.6518,3.6593,3.6455,3.6719,3.6606,3.6455,3.6531,3.6493,3.648,3.6468,3.6505,3.6593,3.6619,3.6606,3.6606,3.6531,3.6505,3.6417,3.6417,3.6417,3.6417,3.6417,3.6417,3.6417,3.6417,3.6417,3.6417,3.6417,3.6417,3.6417,3.6417,3.6417,3.6417,3.6417,3.6417,3.6417,3.6543,3.6556,3.6581,3.6533,3.6521,3.6239,3.6295,3.6598,3.6475,3.5661,3.5006,3.4604,3.3942,3.322,3.1485,3.0018,2.9767,2.9687,2.9824,2.9941,3.001,3.0098,3.0225,3.0469,3.0449,3.0439,3.0439,3.04,3.0498,3.0537,3.0508,3.0478,3.0107,2.9783,2.9812,2.9756,2.9932,3.0107,3.0254,2.9949,2.913,2.8237,2.7848,2.6211,2.4316,2.3443,2.3741,2.2692,2.2617,2.1141,2.0201,2.0261,2.0347,2.0474]}]]